Wetterdaten: aktuell Dienstag, 19.11.2019 02:01
Datum Zeit Temperatur Luftfeuchte Luftdruck Regen Wind Richtung Richtung Sonnenschein UV Solar Taupunkt Windchill Windben
19.11.2019 02:01 4,5 C 84 % 1014,3 hPa 0,0 l/m 5,6 km/h (1 Bft) N-NO 30 0 min 0,0 UV-I 0 W/m 2,0 C 4,5 C 8,0 km/h (2 Bft)
19.11.2019 02:00 4,5 C 84 % 1014,3 hPa 0,0 l/m 4,7 km/h (1 Bft) N-NO 15 0 min 0,0 UV-I 0 W/m 2,0 C 4,5 C 8,0 km/h (2 Bft)
19.11.2019 01:59 4,5 C 84 % 1014,3 hPa 0,0 l/m 8,8 km/h (2 Bft) NO 40 0 min 0,0 UV-I 0 W/m 2,0 C 2,4 C 12,9 km/h (3 Bft)
19.11.2019 01:58 4,5 C 83 % 1014,2 hPa 0,0 l/m 5,3 km/h (1 Bft) N 355 0 min 0,0 UV-I 0 W/m 1,9 C 4,5 C 8,0 km/h (2 Bft)
19.11.2019 01:57 4,5 C 83 % 1014,2 hPa 0,0 l/m 8,7 km/h (2 Bft) N 355 0 min 0,0 UV-I 0 W/m 1,9 C 2,5 C 14,5 km/h (3 Bft)
19.11.2019 01:56 4,5 C 83 % 1014,2 hPa 0,0 l/m 7,2 km/h (2 Bft) NO 50 0 min 0,0 UV-I 0 W/m 1,9 C 3,8 C 14,5 km/h (3 Bft)
19.11.2019 01:55 4,5 C 83 % 1014,2 hPa 0,0 l/m 3,9 km/h (1 Bft) N-NW 342 0 min 0,0 UV-I 0 W/m 1,9 C 4,5 C 6,4 km/h (2 Bft)
19.11.2019 01:54 4,5 C 83 % 1014,2 hPa 0,0 l/m 7,2 km/h (2 Bft) N-NO 31 0 min 0,0 UV-I 0 W/m 1,9 C 3,8 C 11,3 km/h (2 Bft)
19.11.2019 01:53 4,5 C 83 % 1014,2 hPa 0,0 l/m 5,1 km/h (1 Bft) O-NO 59 0 min 0,0 UV-I 0 W/m 1,9 C 4,5 C 6,4 km/h (2 Bft)
19.11.2019 01:52 4,5 C 83 % 1014,2 hPa 0,0 l/m 8,9 km/h (2 Bft) N-NO 29 0 min 0,0 UV-I 0 W/m 1,9 C 2,3 C 12,9 km/h (3 Bft)
19.11.2019 01:51 4,5 C 83 % 1014,1 hPa 0,0 l/m 1,7 km/h (1 Bft) N-NW 329 0 min 0,0 UV-I 0 W/m 1,9 C 4,5 C 4,8 km/h (1 Bft)
19.11.2019 01:50 4,5 C 83 % 1014,1 hPa 0,0 l/m 2,1 km/h (1 Bft) NO 37 0 min 0,0 UV-I 0 W/m 1,9 C 4,5 C 4,8 km/h (1 Bft)
19.11.2019 01:49 4,5 C 83 % 1014,1 hPa 0,0 l/m 3,6 km/h (1 Bft) NO 40 0 min 0,0 UV-I 0 W/m 1,9 C 4,5 C 9,7 km/h (2 Bft)
19.11.2019 01:48 4,5 C 83 % 1014,2 hPa 0,0 l/m 5,9 km/h (2 Bft) NO 34 0 min 0,0 UV-I 0 W/m 1,9 C 4,5 C 8,0 km/h (2 Bft)
19.11.2019 01:47 4,5 C 83 % 1014,2 hPa 0,0 l/m 3,4 km/h (1 Bft) NO 50 0 min 0,0 UV-I 0 W/m 1,9 C 4,5 C 12,9 km/h (3 Bft)
19.11.2019 01:46 4,4 C 83 % 1014,0 hPa 0,0 l/m 11,2 km/h (2 Bft) N 360 0 min 0,0 UV-I 0 W/m 1,8 C 0,6 C 20,9 km/h (4 Bft)
19.11.2019 01:45 4,4 C 83 % 1014,0 hPa 0,0 l/m 15,4 km/h (3 Bft) N-NO 23 0 min 0,0 UV-I 0 W/m 1,8 C -1,9 C 22,5 km/h (4 Bft)
19.11.2019 01:44 4,4 C 83 % 1014,0 hPa 0,0 l/m 9,9 km/h (2 Bft) NO 38 0 min 0,0 UV-I 0 W/m 1,8 C 1,5 C 17,7 km/h (3 Bft)
19.11.2019 01:43 4,4 C 83 % 1014,0 hPa 0,0 l/m 15,2 km/h (3 Bft) N-NO 17 0 min 0,0 UV-I 0 W/m 1,8 C -1,8 C 22,5 km/h (4 Bft)
19.11.2019 01:42 4,4 C 83 % 1014,0 hPa 0,0 l/m 6,5 km/h (2 Bft) N-NW 348 0 min 0,0 UV-I 0 W/m 1,8 C 4,3 C 12,9 km/h (3 Bft)
19.11.2019 01:41 4,4 C 83 % 1014,0 hPa 0,0 l/m 4,7 km/h (1 Bft) N 5 0 min 0,0 UV-I 0 W/m 1,8 C 4,4 C 8,0 km/h (2 Bft)
19.11.2019 01:40 4,4 C 83 % 1014,0 hPa 0,0 l/m 5,8 km/h (2 Bft) N-NO 20 0 min 0,0 UV-I 0 W/m 1,8 C 4,4 C 12,9 km/h (3 Bft)
19.11.2019 01:39 4,4 C 83 % 1014,0 hPa 0,0 l/m 3,1 km/h (1 Bft) N-NO 18 0 min 0,0 UV-I 0 W/m 1,8 C 4,4 C 6,4 km/h (2 Bft)
19.11.2019 01:38 4,4 C 83 % 1014,0 hPa 0,0 l/m 6,9 km/h (2 Bft) N-NO 14 0 min 0,0 UV-I 0 W/m 1,8 C 4,0 C 12,9 km/h (3 Bft)
19.11.2019 01:37 4,5 C 83 % 1014,0 hPa 0,0 l/m 2,1 km/h (1 Bft) NO 47 0 min 0,0 UV-I 0 W/m 1,9 C 4,5 C 3,2 km/h (1 Bft)
19.11.2019 01:36 4,4 C 83 % 1014,0 hPa 0,0 l/m 1,4 km/h (1 Bft) N 5 0 min 0,0 UV-I 0 W/m 1,8 C 4,4 C 3,2 km/h (1 Bft)
19.11.2019 01:35 4,5 C 83 % 1013,9 hPa 0,0 l/m 7,5 km/h (2 Bft) N-NO 13 0 min 0,0 UV-I 0 W/m 1,9 C 3,5 C 14,5 km/h (3 Bft)
19.11.2019 01:34 4,5 C 83 % 1013,9 hPa 0,0 l/m 6,6 km/h (2 Bft) NO 34 0 min 0,0 UV-I 0 W/m 1,9 C 4,3 C 12,9 km/h (3 Bft)
19.11.2019 01:33 4,5 C 83 % 1013,9 hPa 0,0 l/m 6,9 km/h (2 Bft) N-NO 17 0 min 0,0 UV-I 0 W/m 1,9 C 4,1 C 12,9 km/h (3 Bft)
19.11.2019 01:32 4,5 C 83 % 1013,8 hPa 0,0 l/m 9,2 km/h (2 Bft) NO 34 0 min 0,0 UV-I 0 W/m 1,9 C 2,1 C 16,1 km/h (3 Bft)
19.11.2019 01:31 4,5 C 83 % 1013,9 hPa 0,0 l/m 7,2 km/h (2 Bft) N-NO 16 0 min 0,0 UV-I 0 W/m 1,9 C 3,8 C 12,9 km/h (3 Bft)
19.11.2019 01:30 4,4 C 83 % 1013,8 hPa 0,0 l/m 8,6 km/h (2 Bft) N-NO 23 0 min 0,0 UV-I 0 W/m 1,8 C 2,5 C 16,1 km/h (3 Bft)
19.11.2019 01:29 4,5 C 83 % 1013,8 hPa 0,0 l/m 9,3 km/h (2 Bft) N 350 0 min 0,0 UV-I 0 W/m 1,9 C 2,0 C 12,9 km/h (3 Bft)
19.11.2019 01:28 4,5 C 83 % 1013,7 hPa 0,0 l/m 8,5 km/h (2 Bft) NO 53 0 min 0,0 UV-I 0 W/m 1,9 C 2,7 C 12,9 km/h (3 Bft)
19.11.2019 01:27 4,4 C 83 % 1013,8 hPa 0,0 l/m 7,1 km/h (2 Bft) N-NO 28 0 min 0,0 UV-I 0 W/m 1,8 C 3,8 C 12,9 km/h (3 Bft)
19.11.2019 01:26 4,4 C 83 % 1013,8 hPa 0,0 l/m 10,1 km/h (2 Bft) N 355 0 min 0,0 UV-I 0 W/m 1,8 C 1,3 C 17,7 km/h (3 Bft)
19.11.2019 01:25 4,5 C 83 % 1013,7 hPa 0,0 l/m 10,3 km/h (2 Bft) N-NO 31 0 min 0,0 UV-I 0 W/m 1,9 C 1,3 C 14,5 km/h (3 Bft)
19.11.2019 01:24 4,5 C 82 % 1013,7 hPa 0,0 l/m 6,2 km/h (2 Bft) N-NO 23 0 min 0,0 UV-I 0 W/m 1,7 C 4,5 C 14,5 km/h (3 Bft)
19.11.2019 01:23 4,5 C 82 % 1013,6 hPa 0,0 l/m 3,6 km/h (1 Bft) N 360 0 min 0,0 UV-I 0 W/m 1,7 C 4,5 C 8,0 km/h (2 Bft)
19.11.2019 01:22 4,5 C 82 % 1013,6 hPa 0,0 l/m 6,8 km/h (2 Bft) N-NO 12 0 min 0,0 UV-I 0 W/m 1,7 C 4,2 C 17,7 km/h (3 Bft)
19.11.2019 01:21 4,5 C 82 % 1013,6 hPa 0,0 l/m 10,6 km/h (2 Bft) O-NO 75 0 min 0,0 UV-I 0 W/m 1,7 C 1,1 C 22,5 km/h (4 Bft)
19.11.2019 01:20 4,5 C 82 % 1013,6 hPa 0,0 l/m 6,9 km/h (2 Bft) O-NO 65 0 min 0,0 UV-I 0 W/m 1,7 C 4,1 C 11,3 km/h (2 Bft)
19.11.2019 01:19 4,5 C 82 % 1013,7 hPa 0,0 l/m 11,8 km/h (2 Bft) N-NO 16 0 min 0,0 UV-I 0 W/m 1,7 C 0,3 C 19,3 km/h (3 Bft)
19.11.2019 01:18 4,5 C 82 % 1013,7 hPa 0,0 l/m 4,4 km/h (1 Bft) N-NO 20 0 min 0,0 UV-I 0 W/m 1,7 C 4,5 C 11,3 km/h (2 Bft)
19.11.2019 01:17 4,5 C 82 % 1013,6 hPa 0,0 l/m 9,3 km/h (2 Bft) NO 40 0 min 0,0 UV-I 0 W/m 1,7 C 2,0 C 14,5 km/h (3 Bft)
19.11.2019 01:16 4,5 C 82 % 1013,6 hPa 0,0 l/m 4,3 km/h (1 Bft) N-NW 346 0 min 0,0 UV-I 0 W/m 1,7 C 4,5 C 6,4 km/h (2 Bft)
19.11.2019 01:15 4,4 C 82 % 1013,6 hPa 0,0 l/m 7,8 km/h (2 Bft) O-NO 59 0 min 0,0 UV-I 0 W/m 1,6 C 3,1 C 14,5 km/h (3 Bft)
19.11.2019 01:14 4,5 C 82 % 1013,6 hPa 0,0 l/m 12,1 km/h (2 Bft) N-NO 24 0 min 0,0 UV-I 0 W/m 1,7 C 0,1 C 17,7 km/h (3 Bft)
19.11.2019 01:13 4,4 C 82 % 1013,6 hPa 0,0 l/m 12,3 km/h (3 Bft) NO 48 0 min 0,0 UV-I 0 W/m 1,6 C -0,1 C 20,9 km/h (4 Bft)
19.11.2019 01:12 4,4 C 82 % 1013,7 hPa 0,0 l/m 14,6 km/h (3 Bft) N-NO 24 0 min 0,0 UV-I 0 W/m 1,6 C -1,4 C 20,9 km/h (4 Bft)
19.11.2019 01:11 4,4 C 82 % 1013,6 hPa 0,0 l/m 12,3 km/h (3 Bft) N 5 0 min 0,0 UV-I 0 W/m 1,6 C -0,1 C 19,3 km/h (3 Bft)
19.11.2019 01:10 4,4 C 82 % 1013,6 hPa 0,0 l/m 11,9 km/h (2 Bft) N 360 0 min 0,0 UV-I 0 W/m 1,6 C 0,1 C 17,7 km/h (3 Bft)
19.11.2019 01:09 4,4 C 82 % 1013,6 hPa 0,0 l/m 8,6 km/h (2 Bft) N 355 0 min 0,0 UV-I 0 W/m 1,6 C 2,5 C 14,5 km/h (3 Bft)
19.11.2019 01:08 4,4 C 82 % 1013,6 hPa 0,0 l/m 5,6 km/h (1 Bft) N-NW 331 0 min 0,0 UV-I 0 W/m 1,6 C 4,4 C 12,9 km/h (3 Bft)
19.11.2019 01:07 4,4 C 82 % 1013,6 hPa 0,0 l/m 7,6 km/h (2 Bft) N-NO 26 0 min 0,0 UV-I 0 W/m 1,6 C 3,3 C 17,7 km/h (3 Bft)
19.11.2019 01:06 4,4 C 82 % 1013,6 hPa 0,0 l/m 6,2 km/h (2 Bft) NO 36 0 min 0,0 UV-I 0 W/m 1,6 C 4,4 C 11,3 km/h (2 Bft)
19.11.2019 01:05 4,4 C 82 % 1013,6 hPa 0,0 l/m 10,9 km/h (2 Bft) N-NW 345 0 min 0,0 UV-I 0 W/m 1,6 C 0,8 C 16,1 km/h (3 Bft)
19.11.2019 01:04 4,4 C 82 % 1013,6 hPa 0,0 l/m 8,9 km/h (2 Bft) N-NO 29 0 min 0,0 UV-I 0 W/m 1,6 C 2,2 C 16,1 km/h (3 Bft)
19.11.2019 01:03 4,4 C 82 % 1013,6 hPa 0,0 l/m 6,8 km/h (2 Bft) N 360 0 min 0,0 UV-I 0 W/m 1,6 C 4,1 C 12,9 km/h (3 Bft)
19.11.2019 01:02 4,4 C 82 % 1013,5 hPa 0,0 l/m 9,9 km/h (2 Bft) N 355 0 min 0,0 UV-I 0 W/m 1,6 C 1,5 C 17,7 km/h (3 Bft)
19.11.2019 01:01 4,5 C 82 % 1013,6 hPa 0,0 l/m 6,2 km/h (2 Bft) NW 310 0 min 0,0 UV-I 0 W/m 1,7 C 4,5 C 11,3 km/h (2 Bft)
19.11.2019 01:00 4,4 C 82 % 1013,6 hPa 0,0 l/m 9,5 km/h (2 Bft) N 5 0 min 0,0 UV-I 0 W/m 1,6 C 1,8 C 14,5 km/h (3 Bft)
19.11.2019 00:59 4,4 C 82 % 1013,5 hPa 0,0 l/m 13,5 km/h (3 Bft) N-NW 346 0 min 0,0 UV-I 0 W/m 1,6 C -0,8 C 22,5 km/h (4 Bft)
19.11.2019 00:58 4,4 C 82 % 1013,5 hPa 0,0 l/m 13,2 km/h (3 Bft) N-NO 30 0 min 0,0 UV-I 0 W/m 1,6 C -0,7 C 24,1 km/h (4 Bft)
19.11.2019 00:57 4,4 C 82 % 1013,6 hPa 0,0 l/m 7,8 km/h (2 Bft) N 5 0 min 0,0 UV-I 0 W/m 1,6 C 3,1 C 20,9 km/h (4 Bft)
19.11.2019 00:56 4,5 C 82 % 1013,6 hPa 0,0 l/m 5,4 km/h (1 Bft) N-NW 346 0 min 0,0 UV-I 0 W/m 1,7 C 4,5 C 8,0 km/h (2 Bft)
19.11.2019 00:55 4,5 C 82 % 1013,6 hPa 0,0 l/m 10,9 km/h (2 Bft) NW 321 0 min 0,0 UV-I 0 W/m 1,7 C 0,9 C 19,3 km/h (3 Bft)
19.11.2019 00:54 4,4 C 82 % 1013,6 hPa 0,0 l/m 9,4 km/h (2 Bft) NO 34 0 min 0,0 UV-I 0 W/m 1,6 C 1,9 C 16,1 km/h (3 Bft)
19.11.2019 00:53 4,4 C 82 % 1013,6 hPa 0,0 l/m 7,6 km/h (2 Bft) N-NW 348 0 min 0,0 UV-I 0 W/m 1,6 C 3,3 C 12,9 km/h (3 Bft)
19.11.2019 00:52 4,5 C 82 % 1013,6 hPa 0,0 l/m 10,6 km/h (2 Bft) N-NW 348 0 min 0,0 UV-I 0 W/m 1,7 C 1,1 C 16,1 km/h (3 Bft)
19.11.2019 00:51 4,4 C 82 % 1013,5 hPa 0,0 l/m 5,8 km/h (2 Bft) N-NO 12 0 min 0,0 UV-I 0 W/m 1,6 C 4,4 C 9,7 km/h (2 Bft)
19.11.2019 00:50 4,4 C 82 % 1013,5 hPa 0,0 l/m 9,2 km/h (2 Bft) N-NW 345 0 min 0,0 UV-I 0 W/m 1,6 C 2,0 C 12,9 km/h (3 Bft)
19.11.2019 00:49 4,4 C 82 % 1013,5 hPa 0,0 l/m 8,2 km/h (2 Bft) N 5 0 min 0,0 UV-I 0 W/m 1,6 C 2,8 C 14,5 km/h (3 Bft)
19.11.2019 00:48 4,5 C 82 % 1013,5 hPa 0,0 l/m 8,1 km/h (2 Bft) N-NO 15 0 min 0,0 UV-I 0 W/m 1,7 C 3,0 C 12,9 km/h (3 Bft)
19.11.2019 00:47 4,4 C 82 % 1013,5 hPa 0,0 l/m 14,0 km/h (3 Bft) N 360 0 min 0,0 UV-I 0 W/m 1,6 C -1,1 C 17,7 km/h (3 Bft)
19.11.2019 00:46 4,4 C 82 % 1013,5 hPa 0,0 l/m 10,0 km/h (2 Bft) N-NO 14 0 min 0,0 UV-I 0 W/m 1,6 C 1,4 C 14,5 km/h (3 Bft)
19.11.2019 00:45 4,4 C 82 % 1013,5 hPa 0,0 l/m 11,5 km/h (2 Bft) NO 36 0 min 0,0 UV-I 0 W/m 1,6 C 0,4 C 17,7 km/h (3 Bft)
19.11.2019 00:44 4,4 C 82 % 1013,5 hPa 0,0 l/m 7,2 km/h (2 Bft) N-NO 30 0 min 0,0 UV-I 0 W/m 1,6 C 3,7 C 12,9 km/h (3 Bft)
19.11.2019 00:43 4,4 C 82 % 1013,5 hPa 0,0 l/m 10,9 km/h (2 Bft) N-NO 17 0 min 0,0 UV-I 0 W/m 1,6 C 0,8 C 14,5 km/h (3 Bft)
19.11.2019 00:42 4,4 C 82 % 1013,5 hPa 0,0 l/m 10,1 km/h (2 Bft) N-NW 346 0 min 0,0 UV-I 0 W/m 1,6 C 1,3 C 16,1 km/h (3 Bft)
19.11.2019 00:41 4,4 C 82 % 1013,6 hPa 0,0 l/m 7,4 km/h (2 Bft) N 360 0 min 0,0 UV-I 0 W/m 1,6 C 3,5 C 14,5 km/h (3 Bft)
19.11.2019 00:40 4,4 C 82 % 1013,5 hPa 0,0 l/m 4,9 km/h (1 Bft) N-NO 30 0 min 0,0 UV-I 0 W/m 1,6 C 4,4 C 9,7 km/h (2 Bft)
19.11.2019 00:39 4,4 C 82 % 1013,5 hPa 0,0 l/m 12,7 km/h (3 Bft) N 355 0 min 0,0 UV-I 0 W/m 1,6 C -0,4 C 17,7 km/h (3 Bft)
19.11.2019 00:38 4,4 C 82 % 1013,5 hPa 0,0 l/m 7,7 km/h (2 Bft) NO 35 0 min 0,0 UV-I 0 W/m 1,6 C 3,2 C 14,5 km/h (3 Bft)
19.11.2019 00:37 4,4 C 82 % 1013,5 hPa 0,0 l/m 8,0 km/h (2 Bft) NO 39 0 min 0,0 UV-I 0 W/m 1,6 C 3,0 C 14,5 km/h (3 Bft)
19.11.2019 00:36 4,5 C 82 % 1013,5 hPa 0,0 l/m 8,8 km/h (2 Bft) N-NO 25 0 min 0,0 UV-I 0 W/m 1,7 C 2,4 C 16,1 km/h (3 Bft)
19.11.2019 00:35 4,5 C 82 % 1013,6 hPa 0,0 l/m 11,1 km/h (2 Bft) N-NO 23 0 min 0,0 UV-I 0 W/m 1,7 C 0,8 C 17,7 km/h (3 Bft)
19.11.2019 00:34 4,5 C 82 % 1013,6 hPa 0,0 l/m 8,5 km/h (2 Bft) N-NO 24 0 min 0,0 UV-I 0 W/m 1,7 C 2,7 C 12,9 km/h (3 Bft)
19.11.2019 00:33 4,5 C 82 % 1013,5 hPa 0,0 l/m 8,8 km/h (2 Bft) N 11 0 min 0,0 UV-I 0 W/m 1,7 C 2,4 C 12,9 km/h (3 Bft)
19.11.2019 00:32 4,5 C 82 % 1013,5 hPa 0,0 l/m 8,4 km/h (2 Bft) NO 35 0 min 0,0 UV-I 0 W/m 1,7 C 2,7 C 14,5 km/h (3 Bft)
19.11.2019 00:31 4,6 C 82 % 1013,5 hPa 0,0 l/m 12,3 km/h (3 Bft) NO 36 0 min 0,0 UV-I 0 W/m 1,8 C 0,1 C 16,1 km/h (3 Bft)
19.11.2019 00:30 4,6 C 82 % 1013,5 hPa 0,0 l/m 11,0 km/h (2 Bft) N-NO 26 0 min 0,0 UV-I 0 W/m 1,8 C 0,9 C 20,9 km/h (4 Bft)
19.11.2019 00:29 4,6 C 82 % 1013,5 hPa 0,0 l/m 15,5 km/h (3 Bft) NO 55 0 min 0,0 UV-I 0 W/m 1,8 C -1,7 C 17,7 km/h (3 Bft)
19.11.2019 00:28 4,6 C 82 % 1013,6 hPa 0,0 l/m 13,2 km/h (3 Bft) N-NO 26 0 min 0,0 UV-I 0 W/m 1,8 C -0,4 C 19,3 km/h (3 Bft)
19.11.2019 00:27 4,6 C 81 % 1013,6 hPa 0,0 l/m 12,3 km/h (3 Bft) N 355 0 min 0,0 UV-I 0 W/m 1,6 C 0,1 C 20,9 km/h (4 Bft)
19.11.2019 00:26 4,6 C 81 % 1013,7 hPa 0,0 l/m 9,6 km/h (2 Bft) O-NO 69 0 min 0,0 UV-I 0 W/m 1,6 C 1,9 C 14,5 km/h (3 Bft)
19.11.2019 00:25 4,7 C 81 % 1013,6 hPa 0,0 l/m 4,0 km/h (1 Bft) N-NO 13 0 min 0,0 UV-I 0 W/m 1,7 C 4,7 C 6,4 km/h (2 Bft)
19.11.2019 00:24 4,7 C 81 % 1013,6 hPa 0,0 l/m 2,5 km/h (1 Bft) NO 34 0 min 0,0 UV-I 0 W/m 1,7 C 4,7 C 6,4 km/h (2 Bft)
19.11.2019 00:23 4,7 C 81 % 1013,6 hPa 0,0 l/m 4,6 km/h (1 Bft) N-NO 29 0 min 0,0 UV-I 0 W/m 1,7 C 4,7 C 11,3 km/h (2 Bft)
19.11.2019 00:22 4,7 C 81 % 1013,6 hPa 0,0 l/m 9,0 km/h (2 Bft) N 349 0 min 0,0 UV-I 0 W/m 1,7 C 2,5 C 16,1 km/h (3 Bft)
19.11.2019 00:21 4,7 C 81 % 1013,6 hPa 0,0 l/m 12,0 km/h (2 Bft) N 360 0 min 0,0 UV-I 0 W/m 1,7 C 0,4 C 16,1 km/h (3 Bft)
19.11.2019 00:20 4,7 C 80 % 1013,5 hPa 0,0 l/m 14,8 km/h (3 Bft) N 360 0 min 0,0 UV-I 0 W/m 1,6 C -1,2 C 22,5 km/h (4 Bft)
19.11.2019 00:19 4,7 C 80 % 1013,6 hPa 0,0 l/m 14,8 km/h (3 Bft) NO 42 0 min 0,0 UV-I 0 W/m 1,6 C -1,2 C 19,3 km/h (3 Bft)
19.11.2019 00:18 4,7 C 80 % 1013,5 hPa 0,0 l/m 11,8 km/h (2 Bft) N-NO 25 0 min 0,0 UV-I 0 W/m 1,6 C 0,5 C 19,3 km/h (3 Bft)
19.11.2019 00:17 4,7 C 80 % 1013,6 hPa 0,0 l/m 10,0 km/h (2 Bft) N-NO 24 0 min 0,0 UV-I 0 W/m 1,6 C 1,7 C 16,1 km/h (3 Bft)
19.11.2019 00:16 4,7 C 80 % 1013,6 hPa 0,0 l/m 12,1 km/h (2 Bft) N-NW 346 0 min 0,0 UV-I 0 W/m 1,6 C 0,3 C 17,7 km/h (3 Bft)
19.11.2019 00:15 4,7 C 80 % 1013,6 hPa 0,0 l/m 9,1 km/h (2 Bft) N-NO 33 0 min 0,0 UV-I 0 W/m 1,6 C 2,4 C 16,1 km/h (3 Bft)
19.11.2019 00:14 4,7 C 80 % 1013,6 hPa 0,0 l/m 8,2 km/h (2 Bft) N 11 0 min 0,0 UV-I 0 W/m 1,6 C 3,1 C 12,9 km/h (3 Bft)
19.11.2019 00:13 4,7 C 80 % 1013,6 hPa 0,0 l/m 12,5 km/h (3 Bft) N-NO 13 0 min 0,0 UV-I 0 W/m 1,6 C 0,1 C 17,7 km/h (3 Bft)
19.11.2019 00:12 4,7 C 80 % 1013,5 hPa 0,0 l/m 11,4 km/h (2 Bft) N-NO 14 0 min 0,0 UV-I 0 W/m 1,6 C 0,8 C 16,1 km/h (3 Bft)
19.11.2019 00:11 4,7 C 80 % 1013,5 hPa 0,0 l/m 12,2 km/h (2 Bft) O 83 0 min 0,0 UV-I 0 W/m 1,6 C 0,3 C 17,7 km/h (3 Bft)
19.11.2019 00:10 4,7 C 80 % 1013,6 hPa 0,0 l/m 9,9 km/h (2 Bft) N-NO 22 0 min 0,0 UV-I 0 W/m 1,6 C 1,8 C 14,5 km/h (3 Bft)
19.11.2019 00:09 4,7 C 80 % 1013,5 hPa 0,0 l/m 5,6 km/h (1 Bft) N 5 0 min 0,0 UV-I 0 W/m 1,6 C 4,7 C 11,3 km/h (2 Bft)
19.11.2019 00:08 4,7 C 80 % 1013,6 hPa 0,0 l/m 5,2 km/h (1 Bft) N 5 0 min 0,0 UV-I 0 W/m 1,6 C 4,7 C 8,0 km/h (2 Bft)
19.11.2019 00:07 4,7 C 80 % 1013,6 hPa 0,0 l/m 5,5 km/h (1 Bft) N-NO 13 0 min 0,0 UV-I 0 W/m 1,6 C 4,7 C 12,9 km/h (3 Bft)
19.11.2019 00:06 4,7 C 80 % 1013,6 hPa 0,0 l/m 8,9 km/h (2 Bft) NO 36 0 min 0,0 UV-I 0 W/m 1,6 C 2,6 C 14,5 km/h (3 Bft)
19.11.2019 00:05 4,7 C 80 % 1013,5 hPa 0,0 l/m 6,7 km/h (2 Bft) N-NO 20 0 min 0,0 UV-I 0 W/m 1,6 C 4,4 C 12,9 km/h (3 Bft)
19.11.2019 00:04 4,7 C 80 % 1013,5 hPa 0,0 l/m 8,1 km/h (2 Bft) N 10 0 min 0,0 UV-I 0 W/m 1,6 C 3,2 C 11,3 km/h (2 Bft)
19.11.2019 00:03 4,7 C 80 % 1013,6 hPa 0,0 l/m 6,8 km/h (2 Bft) N-NO 13 0 min 0,0 UV-I 0 W/m 1,6 C 4,4 C 11,3 km/h (2 Bft)
19.11.2019 00:02 4,7 C 80 % 1013,5 hPa 0,0 l/m 7,2 km/h (2 Bft) N 5 0 min 0,0 UV-I 0 W/m 1,6 C 4,0 C 11,3 km/h (2 Bft)
19.11.2019 00:01 4,7 C 80 % 1013,5 hPa 0,0 l/m 14,0 km/h (3 Bft) O-NO 65 0 min 0,0 UV-I 0 W/m 1,6 C -0,8 C 25,7 km/h (4 Bft)
19.11.2019 00:00 4,7 C 80 % 1013,5 hPa 0,0 l/m 10,9 km/h (2 Bft) N-NO 23 0 min 0,0 UV-I 0 W/m 1,6 C 1,1 C 24,1 km/h (4 Bft)
18.11.2019 23:59 4,7 C 80 % 1013,5 hPa 0,0 l/m 10,5 km/h (2 Bft) N 5 0 min 0,0 UV-I 0 W/m 1,6 C 1,4 C 19,3 km/h (3 Bft)
18.11.2019 23:58 4,7 C 80 % 1013,5 hPa 0,0 l/m 12,3 km/h (3 Bft) NO 34 0 min 0,0 UV-I 0 W/m 1,6 C 0,2 C 20,9 km/h (4 Bft)
18.11.2019 23:57 4,7 C 80 % 1013,5 hPa 0,0 l/m 3,6 km/h (1 Bft) O-NO 67 0 min 0,0 UV-I 0 W/m 1,6 C 4,7 C 8,0 km/h (2 Bft)
18.11.2019 23:56 4,7 C 80 % 1013,4 hPa 0,0 l/m 4,2 km/h (1 Bft) NO 50 0 min 0,0 UV-I 0 W/m 1,6 C 4,7 C 12,9 km/h (3 Bft)
18.11.2019 23:55 4,7 C 80 % 1013,5 hPa 0,0 l/m 8,5 km/h (2 Bft) N-NW 342 0 min 0,0 UV-I 0 W/m 1,6 C 2,9 C 16,1 km/h (3 Bft)
18.11.2019 23:54 4,7 C 80 % 1013,4 hPa 0,0 l/m 9,7 km/h (2 Bft) N-NO 24 0 min 0,0 UV-I 0 W/m 1,6 C 2,0 C 16,1 km/h (3 Bft)
18.11.2019 23:53 4,7 C 80 % 1013,5 hPa 0,0 l/m 10,8 km/h (2 Bft) N 351 0 min 0,0 UV-I 0 W/m 1,6 C 1,2 C 14,5 km/h (3 Bft)
18.11.2019 23:52 4,7 C 80 % 1013,5 hPa 0,0 l/m 17,3 km/h (3 Bft) NO 46 0 min 0,0 UV-I 0 W/m 1,6 C -2,4 C 22,5 km/h (4 Bft)
18.11.2019 23:51 4,7 C 80 % 1013,5 hPa 0,0 l/m 13,8 km/h (3 Bft) NO 49 0 min 0,0 UV-I 0 W/m 1,6 C -0,6 C 24,1 km/h (4 Bft)
18.11.2019 23:50 4,7 C 80 % 1013,5 hPa 0,0 l/m 12,4 km/h (3 Bft) NO 52 0 min 0,0 UV-I 0 W/m 1,6 C 0,2 C 16,1 km/h (3 Bft)
18.11.2019 23:49 4,6 C 80 % 1013,5 hPa 0,0 l/m 12,6 km/h (3 Bft) O-NO 72 0 min 0,0 UV-I 0 W/m 1,5 C -0,1 C 19,3 km/h (3 Bft)
18.11.2019 23:48 4,6 C 80 % 1013,5 hPa 0,0 l/m 17,3 km/h (3 Bft) NO 36 0 min 0,0 UV-I 0 W/m 1,5 C -2,5 C 24,1 km/h (4 Bft)
18.11.2019 23:47 4,6 C 80 % 1013,5 hPa 0,0 l/m 12,6 km/h (3 Bft) N 5 0 min 0,0 UV-I 0 W/m 1,5 C -0,1 C 17,7 km/h (3 Bft)
18.11.2019 23:46 4,6 C 80 % 1013,5 hPa 0,0 l/m 5,0 km/h (1 Bft) N-NO 24 0 min 0,0 UV-I 0 W/m 1,5 C 4,6 C 8,0 km/h (2 Bft)
18.11.2019 23:45 4,6 C 80 % 1013,5 hPa 0,0 l/m 6,0 km/h (2 Bft) N-NW 340 0 min 0,0 UV-I 0 W/m 1,5 C 4,6 C 11,3 km/h (2 Bft)
18.11.2019 23:44 4,6 C 80 % 1013,6 hPa 0,0 l/m 10,7 km/h (2 Bft) NO 35 0 min 0,0 UV-I 0 W/m 1,5 C 1,1 C 14,5 km/h (3 Bft)
18.11.2019 23:43 4,6 C 80 % 1013,5 hPa 0,0 l/m 4,8 km/h (1 Bft) N-NW 346 0 min 0,0 UV-I 0 W/m 1,5 C 4,6 C 11,3 km/h (2 Bft)
18.11.2019 23:42 4,6 C 80 % 1013,5 hPa 0,0 l/m 7,6 km/h (2 Bft) N 5 0 min 0,0 UV-I 0 W/m 1,5 C 3,5 C 14,5 km/h (3 Bft)
18.11.2019 23:41 4,6 C 80 % 1013,5 hPa 0,0 l/m 7,6 km/h (2 Bft) N-NW 345 0 min 0,0 UV-I 0 W/m 1,5 C 3,5 C 14,5 km/h (3 Bft)
18.11.2019 23:40 4,6 C 80 % 1013,5 hPa 0,0 l/m 9,7 km/h (2 Bft) N 11 0 min 0,0 UV-I 0 W/m 1,5 C 1,8 C 16,1 km/h (3 Bft)
18.11.2019 23:39 4,6 C 81 % 1013,5 hPa 0,0 l/m 9,6 km/h (2 Bft) O-NO 65 0 min 0,0 UV-I 0 W/m 1,6 C 1,9 C 17,7 km/h (3 Bft)
18.11.2019 23:38 4,6 C 81 % 1013,5 hPa 0,0 l/m 7,1 km/h (2 Bft) N-NW 346 0 min 0,0 UV-I 0 W/m 1,6 C 4,0 C 14,5 km/h (3 Bft)
18.11.2019 23:37 4,6 C 81 % 1013,5 hPa 0,0 l/m 4,4 km/h (1 Bft) N 360 0 min 0,0 UV-I 0 W/m 1,6 C 4,6 C 8,0 km/h (2 Bft)
18.11.2019 23:36 4,6 C 81 % 1013,5 hPa 0,0 l/m 5,3 km/h (1 Bft) N-NO 22 0 min 0,0 UV-I 0 W/m 1,6 C 4,6 C 14,5 km/h (3 Bft)
18.11.2019 23:35 4,6 C 80 % 1013,5 hPa 0,0 l/m 2,5 km/h (1 Bft) NO 36 0 min 0,0 UV-I 0 W/m 1,5 C 4,6 C 6,4 km/h (2 Bft)
18.11.2019 23:34 4,6 C 81 % 1013,4 hPa 0,0 l/m 6,2 km/h (2 Bft) N-NO 20 0 min 0,0 UV-I 0 W/m 1,6 C 4,6 C 8,0 km/h (2 Bft)
18.11.2019 23:33 4,6 C 81 % 1013,5 hPa 0,0 l/m 8,0 km/h (2 Bft) NO 52 0 min 0,0 UV-I 0 W/m 1,6 C 3,2 C 12,9 km/h (3 Bft)
18.11.2019 23:32 4,6 C 81 % 1013,5 hPa 0,0 l/m 3,0 km/h (1 Bft) O-SO 113 0 min 0,0 UV-I 0 W/m 1,6 C 4,6 C 9,7 km/h (2 Bft)
18.11.2019 23:31 4,6 C 81 % 1013,4 hPa 0,0 l/m 8,3 km/h (2 Bft) N 5 0 min 0,0 UV-I 0 W/m 1,6 C 2,9 C 12,9 km/h (3 Bft)
18.11.2019 23:30 4,6 C 81 % 1013,5 hPa 0,0 l/m 2,4 km/h (1 Bft) N-NO 27 0 min 0,0 UV-I 0 W/m 1,6 C 4,6 C 9,7 km/h (2 Bft)
18.11.2019 23:29 4,6 C 81 % 1013,5 hPa 0,0 l/m 0,0 km/h (0 Bft) NO 36 0 min 0,0 UV-I 0 W/m 1,6 C 4,6 C 0,0 km/h (0 Bft)
18.11.2019 23:28 4,6 C 80 % 1013,5 hPa 0,0 l/m 4,3 km/h (1 Bft) NO 36 0 min 0,0 UV-I 0 W/m 1,5 C 4,6 C 8,0 km/h (2 Bft)
18.11.2019 23:27 4,6 C 81 % 1013,4 hPa 0,0 l/m 3,1 km/h (1 Bft) O-NO 64 0 min 0,0 UV-I 0 W/m 1,6 C 4,6 C 4,8 km/h (1 Bft)
18.11.2019 23:26 4,6 C 81 % 1013,4 hPa 0,0 l/m 5,6 km/h (1 Bft) NO 55 0 min 0,0 UV-I 0 W/m 1,6 C 4,6 C 8,0 km/h (2 Bft)
18.11.2019 23:25 4,6 C 81 % 1013,4 hPa 0,0 l/m 6,7 km/h (2 Bft) NO 37 0 min 0,0 UV-I 0 W/m 1,6 C 4,3 C 12,9 km/h (3 Bft)
18.11.2019 23:24 4,6 C 81 % 1013,4 hPa 0,0 l/m 0,5 km/h (0 Bft) O-NO 76 0 min 0,0 UV-I 0 W/m 1,6 C 4,6 C 3,2 km/h (1 Bft)
18.11.2019 23:23 4,6 C 81 % 1013,4 hPa 0,0 l/m 0,0 km/h (0 Bft) O-NO 60 0 min 0,0 UV-I 0 W/m 1,6 C 4,6 C 0,0 km/h (0 Bft)
18.11.2019 23:22 4,6 C 80 % 1013,4 hPa 0,0 l/m 0,2 km/h (0 Bft) O-NO 60 0 min 0,0 UV-I 0 W/m 1,5 C 4,6 C 1,6 km/h (1 Bft)
18.11.2019 23:21 4,6 C 80 % 1013,4 hPa 0,0 l/m 1,4 km/h (1 Bft) O-SO 123 0 min 0,0 UV-I 0 W/m 1,5 C 4,6 C 4,8 km/h (1 Bft)
18.11.2019 23:20 4,6 C 80 % 1013,3 hPa 0,0 l/m 6,5 km/h (2 Bft) NO 49 0 min 0,0 UV-I 0 W/m 1,5 C 4,5 C 8,0 km/h (2 Bft)
18.11.2019 23:19 4,6 C 80 % 1013,4 hPa 0,0 l/m 7,2 km/h (2 Bft) N-NO 12 0 min 0,0 UV-I 0 W/m 1,5 C 3,9 C 14,5 km/h (3 Bft)
18.11.2019 23:18 4,6 C 81 % 1013,4 hPa 0,0 l/m 5,8 km/h (2 Bft) N-NO 26 0 min 0,0 UV-I 0 W/m 1,6 C 4,6 C 8,0 km/h (2 Bft)
18.11.2019 23:17 4,6 C 80 % 1013,3 hPa 0,0 l/m 6,0 km/h (2 Bft) N-NO 28 0 min 0,0 UV-I 0 W/m 1,5 C 4,6 C 9,7 km/h (2 Bft)
18.11.2019 23:16 4,6 C 81 % 1013,3 hPa 0,0 l/m 0,6 km/h (0 Bft) NO 56 0 min 0,0 UV-I 0 W/m 1,6 C 4,6 C 3,2 km/h (1 Bft)
18.11.2019 23:15 4,6 C 81 % 1013,3 hPa 0,0 l/m 0,6 km/h (0 Bft) O 98 0 min 0,0 UV-I 0 W/m 1,6 C 4,6 C 3,2 km/h (1 Bft)
18.11.2019 23:14 4,6 C 80 % 1013,3 hPa 0,0 l/m 4,4 km/h (1 Bft) O 98 0 min 0,0 UV-I 0 W/m 1,5 C 4,6 C 8,0 km/h (2 Bft)
18.11.2019 23:13 4,6 C 80 % 1013,3 hPa 0,0 l/m 2,8 km/h (1 Bft) N 355 0 min 0,0 UV-I 0 W/m 1,5 C 4,6 C 9,7 km/h (2 Bft)
18.11.2019 23:12 4,6 C 80 % 1013,3 hPa 0,0 l/m 0,8 km/h (0 Bft) N-NO 21 0 min 0,0 UV-I 0 W/m 1,5 C 4,6 C 3,2 km/h (1 Bft)
18.11.2019 23:11 4,6 C 80 % 1013,3 hPa 0,0 l/m 2,2 km/h (1 Bft) NW 305 0 min 0,0 UV-I 0 W/m 1,5 C 4,6 C 8,0 km/h (2 Bft)
18.11.2019 23:10 4,6 C 80 % 1013,2 hPa 0,0 l/m 0,0 km/h (0 Bft) NO 52 0 min 0,0 UV-I 0 W/m 1,5 C 4,6 C 0,0 km/h (0 Bft)
18.11.2019 23:09 4,6 C 80 % 1013,3 hPa 0,0 l/m 0,0 km/h (0 Bft) NO 35 0 min 0,0 UV-I 0 W/m 1,5 C 4,6 C 0,0 km/h (0 Bft)
18.11.2019 23:08 4,6 C 80 % 1013,2 hPa 0,0 l/m 1,7 km/h (1 Bft) O-NO 74 0 min 0,0 UV-I 0 W/m 1,5 C 4,6 C 8,0 km/h (2 Bft)
18.11.2019 23:07 4,6 C 80 % 1013,3 hPa 0,0 l/m 9,5 km/h (2 Bft) NO 37 0 min 0,0 UV-I 0 W/m 1,5 C 2,0 C 11,3 km/h (2 Bft)
18.11.2019 23:06 4,6 C 80 % 1013,3 hPa 0,0 l/m 9,3 km/h (2 Bft) N-NO 19 0 min 0,0 UV-I 0 W/m 1,5 C 2,1 C 16,1 km/h (3 Bft)
18.11.2019 23:05 4,6 C 80 % 1013,2 hPa 0,0 l/m 7,8 km/h (2 Bft) NO 54 0 min 0,0 UV-I 0 W/m 1,5 C 3,4 C 11,3 km/h (2 Bft)
18.11.2019 23:04 4,6 C 80 % 1013,2 hPa 0,0 l/m 6,6 km/h (2 Bft) NO 38 0 min 0,0 UV-I 0 W/m 1,5 C 4,4 C 12,9 km/h (3 Bft)
18.11.2019 23:03 4,6 C 81 % 1013,2 hPa 0,0 l/m 5,8 km/h (2 Bft) N-NO 22 0 min 0,0 UV-I 0 W/m 1,6 C 4,6 C 14,5 km/h (3 Bft)
18.11.2019 23:02 4,6 C 80 % 1013,2 hPa 0,0 l/m 2,0 km/h (1 Bft) N-NO 17 0 min 0,0 UV-I 0 W/m 1,5 C 4,6 C 3,2 km/h (1 Bft)
18.11.2019 23:01 4,6 C 80 % 1013,2 hPa 0,0 l/m 2,6 km/h (1 Bft) N-NO 17 0 min 0,0 UV-I 0 W/m 1,5 C 4,6 C 4,8 km/h (1 Bft)
18.11.2019 23:00 4,6 C 80 % 1013,1 hPa 0,0 l/m 3,4 km/h (1 Bft) N-NO 17 0 min 0,0 UV-I 0 W/m 1,5 C 4,6 C 8,0 km/h (2 Bft)
18.11.2019 22:59 4,6 C 80 % 1013,2 hPa 0,0 l/m 5,6 km/h (1 Bft) N-NO 13 0 min 0,0 UV-I 0 W/m 1,5 C 4,6 C 8,0 km/h (2 Bft)
18.11.2019 22:58 4,6 C 80 % 1013,2 hPa 0,0 l/m 3,2 km/h (1 Bft) NO 46 0 min 0,0 UV-I 0 W/m 1,5 C 4,6 C 8,0 km/h (2 Bft)
18.11.2019 22:57 4,6 C 80 % 1013,2 hPa 0,0 l/m 5,6 km/h (1 Bft) NO 36 0 min 0,0 UV-I 0 W/m 1,5 C 4,6 C 8,0 km/h (2 Bft)
18.11.2019 22:56 4,6 C 80 % 1013,2 hPa 0,0 l/m 8,4 km/h (2 Bft) NO 42 0 min 0,0 UV-I 0 W/m 1,5 C 2,9 C 12,9 km/h (3 Bft)
18.11.2019 22:55 4,6 C 80 % 1013,1 hPa 0,0 l/m 10,4 km/h (2 Bft) NO 35 0 min 0,0 UV-I 0 W/m 1,5 C 1,3 C 14,5 km/h (3 Bft)
18.11.2019 22:54 4,6 C 80 % 1013,2 hPa 0,0 l/m 9,7 km/h (2 Bft) N-NO 13 0 min 0,0 UV-I 0 W/m 1,5 C 1,8 C 17,7 km/h (3 Bft)
18.11.2019 22:53 4,6 C 80 % 1013,2 hPa 0,0 l/m 4,5 km/h (1 Bft) NO 54 0 min 0,0 UV-I 0 W/m 1,5 C 4,6 C 6,4 km/h (2 Bft)
18.11.2019 22:52 4,6 C 80 % 1013,1 hPa 0,0 l/m 5,2 km/h (1 Bft) NO 53 0 min 0,0 UV-I 0 W/m 1,5 C 4,6 C 9,7 km/h (2 Bft)
18.11.2019 22:51 4,6 C 80 % 1013,1 hPa 0,0 l/m 8,4 km/h (2 Bft) N-NW 346 0 min 0,0 UV-I 0 W/m 1,5 C 2,9 C 14,5 km/h (3 Bft)
18.11.2019 22:50 4,6 C 80 % 1013,1 hPa 0,0 l/m 14,9 km/h (3 Bft) NO 34 0 min 0,0 UV-I 0 W/m 1,5 C -1,4 C 22,5 km/h (4 Bft)
18.11.2019 22:49 4,6 C 80 % 1013,1 hPa 0,0 l/m 7,6 km/h (2 Bft) N-NO 14 0 min 0,0 UV-I 0 W/m 1,5 C 3,5 C 14,5 km/h (3 Bft)
18.11.2019 22:48 4,6 C 80 % 1013,1 hPa 0,0 l/m 8,5 km/h (2 Bft) N-NO 19 0 min 0,0 UV-I 0 W/m 1,5 C 2,8 C 14,5 km/h (3 Bft)
18.11.2019 22:47 4,7 C 80 % 1013,1 hPa 0,0 l/m 15,5 km/h (3 Bft) NO 40 0 min 0,0 UV-I 0 W/m 1,6 C -1,5 C 19,3 km/h (3 Bft)
18.11.2019 22:46 4,7 C 80 % 1013,1 hPa 0,0 l/m 12,9 km/h (3 Bft) N-NO 20 0 min 0,0 UV-I 0 W/m 1,6 C -0,1 C 19,3 km/h (3 Bft)
18.11.2019 22:45 4,7 C 80 % 1013,0 hPa 0,0 l/m 11,9 km/h (2 Bft) NO 52 0 min 0,0 UV-I 0 W/m 1,6 C 0,5 C 16,1 km/h (3 Bft)
18.11.2019 22:44 4,7 C 80 % 1013,0 hPa 0,0 l/m 13,2 km/h (3 Bft) N-NO 25 0 min 0,0 UV-I 0 W/m 1,6 C -0,3 C 19,3 km/h (3 Bft)
18.11.2019 22:43 4,7 C 80 % 1013,0 hPa 0,0 l/m 7,4 km/h (2 Bft) N 5 0 min 0,0 UV-I 0 W/m 1,6 C 3,8 C 11,3 km/h (2 Bft)
18.11.2019 22:42 4,7 C 80 % 1013,0 hPa 0,0 l/m 9,7 km/h (2 Bft) NO 54 0 min 0,0 UV-I 0 W/m 1,6 C 2,0 C 14,5 km/h (3 Bft)
18.11.2019 22:41 4,7 C 79 % 1013,0 hPa 0,0 l/m 8,5 km/h (2 Bft) N-NW 344 0 min 0,0 UV-I 0 W/m 1,4 C 2,9 C 17,7 km/h (3 Bft)
18.11.2019 22:40 4,7 C 79 % 1013,0 hPa 0,0 l/m 9,8 km/h (2 Bft) N-NO 27 0 min 0,0 UV-I 0 W/m 1,4 C 1,9 C 12,9 km/h (3 Bft)
18.11.2019 22:39 4,7 C 79 % 1012,9 hPa 0,0 l/m 14,5 km/h (3 Bft) N 11 0 min 0,0 UV-I 0 W/m 1,4 C -1,0 C 19,3 km/h (3 Bft)
18.11.2019 22:38 4,7 C 79 % 1012,9 hPa 0,0 l/m 14,1 km/h (3 Bft) N 355 0 min 0,0 UV-I 0 W/m 1,4 C -0,8 C 19,3 km/h (3 Bft)
18.11.2019 22:37 4,7 C 79 % 1012,9 hPa 0,0 l/m 12,5 km/h (3 Bft) N-NO 29 0 min 0,0 UV-I 0 W/m 1,4 C 0,1 C 17,7 km/h (3 Bft)
18.11.2019 22:36 4,7 C 79 % 1013,0 hPa 0,0 l/m 10,5 km/h (2 Bft) N-NW 332 0 min 0,0 UV-I 0 W/m 1,4 C 1,4 C 16,1 km/h (3 Bft)
18.11.2019 22:35 4,7 C 79 % 1012,9 hPa 0,0 l/m 12,0 km/h (2 Bft) NO 38 0 min 0,0 UV-I 0 W/m 1,4 C 0,4 C 17,7 km/h (3 Bft)
18.11.2019 22:34 4,7 C 79 % 1012,9 hPa 0,0 l/m 12,8 km/h (3 Bft) N-NO 17 0 min 0,0 UV-I 0 W/m 1,4 C -0,1 C 22,5 km/h (4 Bft)
18.11.2019 22:33 4,7 C 79 % 1012,9 hPa 0,0 l/m 9,3 km/h (2 Bft) N-NO 18 0 min 0,0 UV-I 0 W/m 1,4 C 2,3 C 17,7 km/h (3 Bft)
18.11.2019 22:32 4,7 C 79 % 1012,9 hPa 0,0 l/m 12,8 km/h (3 Bft) N-NW 340 0 min 0,0 UV-I 0 W/m 1,4 C -0,1 C 20,9 km/h (4 Bft)
18.11.2019 22:31 4,7 C 79 % 1012,9 hPa 0,0 l/m 10,9 km/h (2 Bft) NO 34 0 min 0,0 UV-I 0 W/m 1,4 C 1,1 C 16,1 km/h (3 Bft)
18.11.2019 22:30 4,7 C 79 % 1012,9 hPa 0,0 l/m 15,4 km/h (3 Bft) N-NO 23 0 min 0,0 UV-I 0 W/m 1,4 C -1,5 C 19,3 km/h (3 Bft)
18.11.2019 22:29 4,7 C 79 % 1012,9 hPa 0,0 l/m 9,9 km/h (2 Bft) N-NW 338 0 min 0,0 UV-I 0 W/m 1,4 C 1,8 C 17,7 km/h (3 Bft)
18.11.2019 22:28 4,7 C 79 % 1012,9 hPa 0,0 l/m 7,5 km/h (2 Bft) N-NO 20 0 min 0,0 UV-I 0 W/m 1,4 C 3,7 C 22,5 km/h (4 Bft)
18.11.2019 22:27 4,7 C 79 % 1012,9 hPa 0,0 l/m 6,4 km/h (2 Bft) NO 38 0 min 0,0 UV-I 0 W/m 1,4 C 4,7 C 14,5 km/h (3 Bft)
18.11.2019 22:26 4,7 C 79 % 1012,9 hPa 0,0 l/m 11,2 km/h (2 Bft) N-NW 344 0 min 0,0 UV-I 0 W/m 1,4 C 0,9 C 16,1 km/h (3 Bft)
18.11.2019 22:25 4,7 C 79 % 1012,9 hPa 0,0 l/m 12,1 km/h (2 Bft) N 11 0 min 0,0 UV-I 0 W/m 1,4 C 0,3 C 16,1 km/h (3 Bft)
18.11.2019 22:24 4,7 C 79 % 1012,9 hPa 0,0 l/m 14,0 km/h (3 Bft) N-NO 13 0 min 0,0 UV-I 0 W/m 1,4 C -0,8 C 20,9 km/h (4 Bft)
18.11.2019 22:23 4,7 C 79 % 1012,9 hPa 0,0 l/m 12,3 km/h (3 Bft) N-NO 23 0 min 0,0 UV-I 0 W/m 1,4 C 0,2 C 16,1 km/h (3 Bft)
18.11.2019 22:22 4,8 C 79 % 1012,9 hPa 0,0 l/m 6,4 km/h (2 Bft) NO 36 0 min 0,0 UV-I 0 W/m 1,5 C 4,8 C 14,5 km/h (3 Bft)
18.11.2019 22:21 4,7 C 79 % 1012,9 hPa 0,0 l/m 7,4 km/h (2 Bft) N-NO 33 0 min 0,0 UV-I 0 W/m 1,4 C 3,8 C 12,9 km/h (3 Bft)
18.11.2019 22:20 4,7 C 79 % 1013,0 hPa 0,0 l/m 2,5 km/h (1 Bft) NO 34 0 min 0,0 UV-I 0 W/m 1,4 C 4,7 C 8,0 km/h (2 Bft)
18.11.2019 22:19 4,7 C 79 % 1012,9 hPa 0,0 l/m 9,4 km/h (2 Bft) N-NO 28 0 min 0,0 UV-I 0 W/m 1,4 C 2,2 C 14,5 km/h (3 Bft)
18.11.2019 22:18 4,7 C 79 % 1012,9 hPa 0,0 l/m 14,2 km/h (3 Bft) N-NO 12 0 min 0,0 UV-I 0 W/m 1,4 C -0,9 C 24,1 km/h (4 Bft)
18.11.2019 22:17 4,7 C 79 % 1012,8 hPa 0,0 l/m 15,4 km/h (3 Bft) N-NO 24 0 min 0,0 UV-I 0 W/m 1,4 C -1,5 C 19,3 km/h (3 Bft)
18.11.2019 22:16 4,7 C 79 % 1012,8 hPa 0,0 l/m 10,0 km/h (2 Bft) NO 42 0 min 0,0 UV-I 0 W/m 1,4 C 1,7 C 17,7 km/h (3 Bft)
18.11.2019 22:15 4,7 C 79 % 1012,9 hPa 0,0 l/m 8,9 km/h (2 Bft) N-NW 346 0 min 0,0 UV-I 0 W/m 1,4 C 2,6 C 16,1 km/h (3 Bft)
18.11.2019 22:14 4,7 C 79 % 1012,8 hPa 0,0 l/m 12,1 km/h (2 Bft) N-NO 21 0 min 0,0 UV-I 0 W/m 1,4 C 0,3 C 19,3 km/h (3 Bft)
18.11.2019 22:13 4,7 C 79 % 1012,8 hPa 0,0 l/m 9,3 km/h (2 Bft) N-NW 333 0 min 0,0 UV-I 0 W/m 1,4 C 2,3 C 14,5 km/h (3 Bft)
18.11.2019 22:12 4,7 C 79 % 1012,9 hPa 0,0 l/m 9,6 km/h (2 Bft) NW 308 0 min 0,0 UV-I 0 W/m 1,4 C 2,0 C 14,5 km/h (3 Bft)
18.11.2019 22:11 4,7 C 79 % 1012,8 hPa 0,0 l/m 7,7 km/h (2 Bft) NO 38 0 min 0,0 UV-I 0 W/m 1,4 C 3,5 C 17,7 km/h (3 Bft)
18.11.2019 22:10 4,7 C 79 % 1012,8 hPa 0,0 l/m 7,8 km/h (2 Bft) N-NO 30 0 min 0,0 UV-I 0 W/m 1,4 C 3,5 C 16,1 km/h (3 Bft)
18.11.2019 22:09 4,7 C 79 % 1012,8 hPa 0,0 l/m 11,6 km/h (2 Bft) N-NW 342 0 min 0,0 UV-I 0 W/m 1,4 C 0,7 C 16,1 km/h (3 Bft)
18.11.2019 22:08 4,7 C 79 % 1012,9 hPa 0,0 l/m 14,8 km/h (3 Bft) N 9 0 min 0,0 UV-I 0 W/m 1,4 C -1,2 C 20,9 km/h (4 Bft)
18.11.2019 22:07 4,7 C 79 % 1012,8 hPa 0,0 l/m 5,0 km/h (1 Bft) N-NO 30 0 min 0,0 UV-I 0 W/m 1,4 C 4,7 C 8,0 km/h (2 Bft)
18.11.2019 22:06 4,7 C 79 % 1012,8 hPa 0,0 l/m 5,4 km/h (1 Bft) N 360 0 min 0,0 UV-I 0 W/m 1,4 C 4,7 C 8,0 km/h (2 Bft)
18.11.2019 22:05 4,7 C 79 % 1012,7 hPa 0,0 l/m 8,1 km/h (2 Bft) O-NO 68 0 min 0,0 UV-I 0 W/m 1,4 C 3,2 C 12,9 km/h (3 Bft)
18.11.2019 22:04 4,7 C 79 % 1012,8 hPa 0,0 l/m 14,7 km/h (3 Bft) N-NO 24 0 min 0,0 UV-I 0 W/m 1,4 C -1,1 C 24,1 km/h (4 Bft)
18.11.2019 22:03 4,7 C 79 % 1012,8 hPa 0,0 l/m 4,3 km/h (1 Bft) O 83 0 min 0,0 UV-I 0 W/m 1,4 C 4,7 C 8,0 km/h (2 Bft)
18.11.2019 22:02 4,7 C 79 % 1012,8 hPa 0,0 l/m 10,3 km/h (2 Bft) O-NO 67 0 min 0,0 UV-I 0 W/m 1,4 C 1,5 C 17,7 km/h (3 Bft)
18.11.2019 22:01 4,7 C 79 % 1012,8 hPa 0,0 l/m 11,3 km/h (2 Bft) N-NW 336 0 min 0,0 UV-I 0 W/m 1,4 C 0,9 C 16,1 km/h (3 Bft)
18.11.2019 22:00 4,7 C 79 % 1012,8 hPa 0,0 l/m 10,9 km/h (2 Bft) N 5 0 min 0,0 UV-I 0 W/m 1,4 C 1,1 C 19,3 km/h (3 Bft)
18.11.2019 21:59 4,7 C 79 % 1012,8 hPa 0,0 l/m 6,2 km/h (2 Bft) N-NO 23 0 min 0,0 UV-I 0 W/m 1,4 C 4,7 C 12,9 km/h (3 Bft)
18.11.2019 21:58 4,7 C 79 % 1012,7 hPa 0,0 l/m 6,2 km/h (2 Bft) N-NO 27 0 min 0,0 UV-I 0 W/m 1,4 C 4,7 C 16,1 km/h (3 Bft)
18.11.2019 21:57 4,7 C 79 % 1012,7 hPa 0,0 l/m 13,0 km/h (3 Bft) NO 45 0 min 0,0 UV-I 0 W/m 1,4 C -0,2 C 19,3 km/h (3 Bft)
18.11.2019 21:56 4,7 C 79 % 1012,8 hPa 0,0 l/m 10,9 km/h (2 Bft) N 355 0 min 0,0 UV-I 0 W/m 1,4 C 1,1 C 20,9 km/h (4 Bft)
18.11.2019 21:55 4,8 C 79 % 1012,7 hPa 0,0 l/m 11,3 km/h (2 Bft) NO 34 0 min 0,0 UV-I 0 W/m 1,5 C 1,0 C 19,3 km/h (3 Bft)
18.11.2019 21:54 4,8 C 79 % 1012,8 hPa 0,0 l/m 17,5 km/h (3 Bft) N-NO 12 0 min 0,0 UV-I 0 W/m 1,5 C -2,4 C 25,7 km/h (4 Bft)
18.11.2019 21:53 4,7 C 79 % 1012,7 hPa 0,0 l/m 7,4 km/h (2 Bft) N 9 0 min 0,0 UV-I 0 W/m 1,4 C 3,8 C 12,9 km/h (3 Bft)
18.11.2019 21:52 4,8 C 79 % 1012,8 hPa 0,0 l/m 8,5 km/h (2 Bft) NO 40 0 min 0,0 UV-I 0 W/m 1,5 C 3,0 C 16,1 km/h (3 Bft)
18.11.2019 21:51 4,8 C 79 % 1012,7 hPa 0,0 l/m 15,2 km/h (3 Bft) NO 38 0 min 0,0 UV-I 0 W/m 1,5 C -1,3 C 20,9 km/h (4 Bft)
18.11.2019 21:50 4,7 C 79 % 1012,8 hPa 0,0 l/m 19,3 km/h (3 Bft) NO 49 0 min 0,0 UV-I 0 W/m 1,4 C -3,3 C 27,4 km/h (4 Bft)
18.11.2019 21:49 4,7 C 79 % 1012,7 hPa 0,0 l/m 18,5 km/h (3 Bft) N 355 0 min 0,0 UV-I 0 W/m 1,4 C -2,9 C 27,4 km/h (4 Bft)
18.11.2019 21:48 4,7 C 79 % 1012,6 hPa 0,0 l/m 12,5 km/h (3 Bft) O-NO 60 0 min 0,0 UV-I 0 W/m 1,4 C 0,1 C 17,7 km/h (3 Bft)
18.11.2019 21:47 4,7 C 79 % 1012,6 hPa 0,0 l/m 21,0 km/h (4 Bft) NO 41 0 min 0,0 UV-I 0 W/m 1,4 C -4,0 C 27,4 km/h (4 Bft)
18.11.2019 21:46 4,7 C 79 % 1012,6 hPa 0,0 l/m 9,3 km/h (2 Bft) N-NO 21 0 min 0,0 UV-I 0 W/m 1,4 C 2,3 C 14,5 km/h (3 Bft)
18.11.2019 21:45 4,7 C 79 % 1012,6 hPa 0,0 l/m 10,9 km/h (2 Bft) O-NO 66 0 min 0,0 UV-I 0 W/m 1,4 C 1,1 C 14,5 km/h (3 Bft)
18.11.2019 21:44 4,7 C 79 % 1012,6 hPa 0,0 l/m 18,8 km/h (3 Bft) N-NO 31 0 min 0,0 UV-I 0 W/m 1,4 C -3,1 C 24,1 km/h (4 Bft)
18.11.2019 21:43 4,7 C 79 % 1012,6 hPa 0,0 l/m 10,9 km/h (2 Bft) N 360 0 min 0,0 UV-I 0 W/m 1,4 C 1,1 C 19,3 km/h (3 Bft)
18.11.2019 21:42 4,7 C 79 % 1012,6 hPa 0,0 l/m 10,4 km/h (2 Bft) N-NW 339 0 min 0,0 UV-I 0 W/m 1,4 C 1,5 C 17,7 km/h (3 Bft)
18.11.2019 21:41 4,7 C 79 % 1012,6 hPa 0,0 l/m 13,6 km/h (3 Bft) N 5 0 min 0,0 UV-I 0 W/m 1,4 C -0,5 C 20,9 km/h (4 Bft)
18.11.2019 21:40 4,7 C 79 % 1012,5 hPa 0,0 l/m 10,0 km/h (2 Bft) O-NO 59 0 min 0,0 UV-I 0 W/m 1,4 C 1,7 C 16,1 km/h (3 Bft)
18.11.2019 21:39 4,7 C 79 % 1012,5 hPa 0,0 l/m 7,6 km/h (2 Bft) NO 40 0 min 0,0 UV-I 0 W/m 1,4 C 3,6 C 12,9 km/h (3 Bft)
18.11.2019 21:38 4,7 C 79 % 1012,5 hPa 0,0 l/m 11,0 km/h (2 Bft) N-NO 14 0 min 0,0 UV-I 0 W/m 1,4 C 1,1 C 17,7 km/h (3 Bft)
18.11.2019 21:37 4,7 C 79 % 1012,5 hPa 0,0 l/m 14,7 km/h (3 Bft) O-NO 61 0 min 0,0 UV-I 0 W/m 1,4 C -1,1 C 22,5 km/h (4 Bft)
18.11.2019 21:36 4,7 C 79 % 1012,5 hPa 0,0 l/m 10,7 km/h (2 Bft) N 355 0 min 0,0 UV-I 0 W/m 1,4 C 1,3 C 22,5 km/h (4 Bft)
18.11.2019 21:35 4,7 C 79 % 1012,4 hPa 0,0 l/m 10,1 km/h (2 Bft) NO 44 0 min 0,0 UV-I 0 W/m 1,4 C 1,7 C 16,1 km/h (3 Bft)
18.11.2019 21:34 4,7 C 79 % 1012,4 hPa 0,0 l/m 10,0 km/h (2 Bft) O 79 0 min 0,0 UV-I 0 W/m 1,4 C 1,7 C 14,5 km/h (3 Bft)
18.11.2019 21:33 4,7 C 80 % 1012,4 hPa 0,0 l/m 7,6 km/h (2 Bft) NO 50 0 min 0,0 UV-I 0 W/m 1,6 C 3,6 C 12,9 km/h (3 Bft)
18.11.2019 21:32 4,7 C 80 % 1012,4 hPa 0,0 l/m 4,2 km/h (1 Bft) N 5 0 min 0,0 UV-I 0 W/m 1,6 C 4,7 C 6,4 km/h (2 Bft)
18.11.2019 21:31 4,7 C 80 % 1012,4 hPa 0,0 l/m 9,5 km/h (2 Bft) N-NO 25 0 min 0,0 UV-I 0 W/m 1,6 C 2,1 C 16,1 km/h (3 Bft)
18.11.2019 21:30 4,7 C 80 % 1012,4 hPa 0,0 l/m 12,9 km/h (3 Bft) N 9 0 min 0,0 UV-I 0 W/m 1,6 C -0,1 C 22,5 km/h (4 Bft)
18.11.2019 21:29 4,7 C 80 % 1012,4 hPa 0,0 l/m 12,7 km/h (3 Bft) NO 48 0 min 0,0 UV-I 0 W/m 1,6 C -0,0 C 17,7 km/h (3 Bft)
18.11.2019 21:28 4,7 C 80 % 1012,4 hPa 0,0 l/m 10,1 km/h (2 Bft) N-NW 344 0 min 0,0 UV-I 0 W/m 1,6 C 1,7 C 14,5 km/h (3 Bft)
18.11.2019 21:27 4,7 C 80 % 1012,3 hPa 0,0 l/m 10,9 km/h (2 Bft) N-NO 29 0 min 0,0 UV-I 0 W/m 1,6 C 1,1 C 16,1 km/h (3 Bft)
18.11.2019 21:26 4,7 C 80 % 1012,3 hPa 0,0 l/m 8,9 km/h (2 Bft) N-NO 32 0 min 0,0 UV-I 0 W/m 1,6 C 2,6 C 14,5 km/h (3 Bft)
18.11.2019 21:25 4,6 C 80 % 1012,3 hPa 0,0 l/m 9,0 km/h (2 Bft) N 11 0 min 0,0 UV-I 0 W/m 1,5 C 2,4 C 14,5 km/h (3 Bft)
18.11.2019 21:24 4,6 C 80 % 1012,3 hPa 0,0 l/m 7,6 km/h (2 Bft) N 360 0 min 0,0 UV-I 0 W/m 1,5 C 3,5 C 11,3 km/h (2 Bft)
18.11.2019 21:23 4,6 C 80 % 1012,2 hPa 0,0 l/m 12,5 km/h (3 Bft) NO 46 0 min 0,0 UV-I 0 W/m 1,5 C -0,0 C 16,1 km/h (3 Bft)
18.11.2019 21:22 4,6 C 80 % 1012,2 hPa 0,0 l/m 9,3 km/h (2 Bft) N 5 0 min 0,0 UV-I 0 W/m 1,5 C 2,1 C 17,7 km/h (3 Bft)
18.11.2019 21:21 4,6 C 80 % 1012,2 hPa 0,0 l/m 8,5 km/h (2 Bft) N 5 0 min 0,0 UV-I 0 W/m 1,5 C 2,8 C 9,7 km/h (2 Bft)
18.11.2019 21:20 4,6 C 80 % 1012,1 hPa 0,0 l/m 11,9 km/h (2 Bft) N 5 0 min 0,0 UV-I 0 W/m 1,5 C 0,4 C 17,7 km/h (3 Bft)
18.11.2019 21:19 4,6 C 81 % 1012,1 hPa 0,0 l/m 3,7 km/h (1 Bft) NO 42 0 min 0,0 UV-I 0 W/m 1,6 C 4,6 C 14,5 km/h (3 Bft)
18.11.2019 21:18 4,6 C 81 % 1012,2 hPa 0,0 l/m 1,7 km/h (1 Bft) N 355 0 min 0,0 UV-I 0 W/m 1,6 C 4,6 C 8,0 km/h (2 Bft)
18.11.2019 21:17 4,6 C 81 % 1012,2 hPa 0,0 l/m 3,4 km/h (1 Bft) N-NO 16 0 min 0,0 UV-I 0 W/m 1,6 C 4,6 C 6,4 km/h (2 Bft)
18.11.2019 21:16 4,6 C 81 % 1012,2 hPa 0,0 l/m 7,4 km/h (2 Bft) N-NO 30 0 min 0,0 UV-I 0 W/m 1,6 C 3,7 C 16,1 km/h (3 Bft)
18.11.2019 21:15 4,7 C 81 % 1012,3 hPa 0,0 l/m 7,5 km/h (2 Bft) O-NO 77 0 min 0,0 UV-I 0 W/m 1,7 C 3,7 C 12,9 km/h (3 Bft)
18.11.2019 21:14 4,7 C 81 % 1012,2 hPa 0,0 l/m 0,7 km/h (0 Bft) O 94 0 min 0,0 UV-I 0 W/m 1,7 C 4,7 C 3,2 km/h (1 Bft)
18.11.2019 21:13 4,7 C 81 % 1012,2 hPa 0,0 l/m 4,4 km/h (1 Bft) O-NO 76 0 min 0,0 UV-I 0 W/m 1,7 C 4,7 C 6,4 km/h (2 Bft)
18.11.2019 21:12 4,7 C 80 % 1012,3 hPa 0,0 l/m 8,0 km/h (2 Bft) O 88 0 min 0,0 UV-I 0 W/m 1,6 C 3,3 C 12,9 km/h (3 Bft)
18.11.2019 21:11 4,7 C 80 % 1012,1 hPa 0,0 l/m 8,6 km/h (2 Bft) O-SO 121 0 min 0,0 UV-I 0 W/m 1,6 C 2,8 C 11,3 km/h (2 Bft)
18.11.2019 21:10 4,7 C 80 % 1012,1 hPa 0,0 l/m 6,3 km/h (2 Bft) O 84 0 min 0,0 UV-I 0 W/m 1,6 C 4,7 C 9,7 km/h (2 Bft)
18.11.2019 21:09 4,7 C 80 % 1012,2 hPa 0,0 l/m 9,6 km/h (2 Bft) N-NO 32 0 min 0,0 UV-I 0 W/m 1,6 C 2,0 C 14,5 km/h (3 Bft)
18.11.2019 21:08 4,7 C 80 % 1012,1 hPa 0,0 l/m 0,0 km/h (0 Bft) N-NO 27 0 min 0,0 UV-I 0 W/m 1,6 C 4,7 C 0,0 km/h (0 Bft)
18.11.2019 21:07 4,7 C 80 % 1012,1 hPa 0,0 l/m 0,0 km/h (0 Bft) O-NO 71 0 min 0,0 UV-I 0 W/m 1,6 C 4,7 C 0,0 km/h (0 Bft)
18.11.2019 21:06 4,7 C 80 % 1012,1 hPa 0,0 l/m 0,1 km/h (0 Bft) N-NO 32 0 min 0,0 UV-I 0 W/m 1,6 C 4,7 C 1,6 km/h (1 Bft)
18.11.2019 21:05 4,7 C 80 % 1012,1 hPa 0,0 l/m 6,0 km/h (2 Bft) N 5 0 min 0,0 UV-I 0 W/m 1,6 C 4,7 C 11,3 km/h (2 Bft)
18.11.2019 21:04 4,7 C 80 % 1012,1 hPa 0,0 l/m 10,2 km/h (2 Bft) N-NO 30 0 min 0,0 UV-I 0 W/m 1,6 C 1,6 C 16,1 km/h (3 Bft)
18.11.2019 21:03 4,6 C 80 % 1012,1 hPa 0,0 l/m 12,4 km/h (3 Bft) N-NO 26 0 min 0,0 UV-I 0 W/m 1,5 C 0,1 C 16,1 km/h (3 Bft)
18.11.2019 21:02 4,6 C 80 % 1012,1 hPa 0,0 l/m 3,4 km/h (1 Bft) O-NO 74 0 min 0,0 UV-I 0 W/m 1,5 C 4,6 C 11,3 km/h (2 Bft)
18.11.2019 21:01 4,6 C 80 % 1012,1 hPa 0,0 l/m 8,0 km/h (2 Bft) N-NW 340 0 min 0,0 UV-I 0 W/m 1,5 C 3,2 C 14,5 km/h (3 Bft)
18.11.2019 21:00 4,6 C 80 % 1012,1 hPa 0,0 l/m 7,7 km/h (2 Bft) N-NO 13 0 min 0,0 UV-I 0 W/m 1,5 C 3,4 C 12,9 km/h (3 Bft)
18.11.2019 20:59 4,6 C 80 % 1012,1 hPa 0,0 l/m 5,9 km/h (2 Bft) N-NO 27 0 min 0,0 UV-I 0 W/m 1,5 C 4,6 C 9,7 km/h (2 Bft)
18.11.2019 20:58 4,6 C 81 % 1012,0 hPa 0,0 l/m 8,8 km/h (2 Bft) N-NO 22 0 min 0,0 UV-I 0 W/m 1,6 C 2,5 C 12,9 km/h (3 Bft)
18.11.2019 20:57 4,6 C 81 % 1012,0 hPa 0,0 l/m 3,3 km/h (1 Bft) N 5 0 min 0,0 UV-I 0 W/m 1,6 C 4,6 C 9,7 km/h (2 Bft)
18.11.2019 20:56 4,6 C 81 % 1012,0 hPa 0,0 l/m 7,4 km/h (2 Bft) N 355 0 min 0,0 UV-I 0 W/m 1,6 C 3,7 C 12,9 km/h (3 Bft)
18.11.2019 20:55 4,6 C 81 % 1012,0 hPa 0,0 l/m 9,3 km/h (2 Bft) N-NO 31 0 min 0,0 UV-I 0 W/m 1,6 C 2,1 C 12,9 km/h (3 Bft)
18.11.2019 20:54 4,6 C 81 % 1012,0 hPa 0,0 l/m 4,7 km/h (1 Bft) N 10 0 min 0,0 UV-I 0 W/m 1,6 C 4,6 C 6,4 km/h (2 Bft)
18.11.2019 20:53 4,6 C 81 % 1012,0 hPa 0,0 l/m 5,3 km/h (1 Bft) NO 38 0 min 0,0 UV-I 0 W/m 1,6 C 4,6 C 8,0 km/h (2 Bft)
18.11.2019 20:52 4,6 C 81 % 1012,0 hPa 0,0 l/m 7,3 km/h (2 Bft) O-NO 67 0 min 0,0 UV-I 0 W/m 1,6 C 3,8 C 11,3 km/h (2 Bft)
18.11.2019 20:51 4,5 C 81 % 1012,0 hPa 0,0 l/m 6,6 km/h (2 Bft) NO 40 0 min 0,0 UV-I 0 W/m 1,5 C 4,3 C 12,9 km/h (3 Bft)
18.11.2019 20:50 4,5 C 81 % 1012,0 hPa 0,0 l/m 11,7 km/h (2 Bft) N-NO 22 0 min 0,0 UV-I 0 W/m 1,5 C 0,4 C 16,1 km/h (3 Bft)
18.11.2019 20:49 4,5 C 81 % 1012,0 hPa 0,0 l/m 7,3 km/h (2 Bft) N-NO 30 0 min 0,0 UV-I 0 W/m 1,5 C 3,7 C 11,3 km/h (2 Bft)
18.11.2019 20:48 4,5 C 81 % 1011,9 hPa 0,0 l/m 1,7 km/h (1 Bft) O-NO 69 0 min 0,0 UV-I 0 W/m 1,5 C 4,5 C 8,0 km/h (2 Bft)
18.11.2019 20:47 4,5 C 81 % 1011,9 hPa 0,0 l/m 5,4 km/h (1 Bft) NO 40 0 min 0,0 UV-I 0 W/m 1,5 C 4,5 C 6,4 km/h (2 Bft)
18.11.2019 20:46 4,5 C 81 % 1011,9 hPa 0,0 l/m 5,9 km/h (2 Bft) NO 46 0 min 0,0 UV-I 0 W/m 1,5 C 4,5 C 8,0 km/h (2 Bft)
18.11.2019 20:45 4,4 C 81 % 1011,9 hPa 0,0 l/m 5,2 km/h (1 Bft) NO 38 0 min 0,0 UV-I 0 W/m 1,4 C 4,4 C 9,7 km/h (2 Bft)
18.11.2019 20:44 4,4 C 81 % 1011,9 hPa 0,0 l/m 6,2 km/h (2 Bft) O-NO 57 0 min 0,0 UV-I 0 W/m 1,4 C 4,4 C 11,3 km/h (2 Bft)
18.11.2019 20:43 4,4 C 81 % 1011,9 hPa 0,0 l/m 4,4 km/h (1 Bft) N 5 0 min 0,0 UV-I 0 W/m 1,4 C 4,4 C 8,0 km/h (2 Bft)
18.11.2019 20:42 4,4 C 81 % 1011,9 hPa 0,0 l/m 5,3 km/h (1 Bft) N-NO 19 0 min 0,0 UV-I 0 W/m 1,4 C 4,4 C 6,4 km/h (2 Bft)
18.11.2019 20:41 4,4 C 81 % 1011,8 hPa 0,0 l/m 5,5 km/h (1 Bft) N-NO 29 0 min 0,0 UV-I 0 W/m 1,4 C 4,4 C 6,4 km/h (2 Bft)
18.11.2019 20:40 4,4 C 81 % 1011,9 hPa 0,0 l/m 5,1 km/h (1 Bft) O-NO 65 0 min 0,0 UV-I 0 W/m 1,4 C 4,4 C 8,0 km/h (2 Bft)
18.11.2019 20:39 4,4 C 81 % 1011,8 hPa 0,0 l/m 5,1 km/h (1 Bft) O-NO 69 0 min 0,0 UV-I 0 W/m 1,4 C 4,4 C 8,0 km/h (2 Bft)
18.11.2019 20:38 4,4 C 82 % 1011,8 hPa 0,0 l/m 2,4 km/h (1 Bft) N-NO 21 0 min 0,0 UV-I 0 W/m 1,6 C 4,4 C 3,2 km/h (1 Bft)
18.11.2019 20:37 4,4 C 82 % 1011,8 hPa 0,0 l/m 1,5 km/h (1 Bft) O-SO 113 0 min 0,0 UV-I 0 W/m 1,6 C 4,4 C 4,8 km/h (1 Bft)
18.11.2019 20:36 4,4 C 82 % 1011,7 hPa 0,0 l/m 0,1 km/h (0 Bft) NO 49 0 min 0,0 UV-I 0 W/m 1,6 C 4,4 C 1,6 km/h (1 Bft)
18.11.2019 20:35 4,3 C 82 % 1011,7 hPa 0,0 l/m 0,0 km/h (0 Bft) NO 49 0 min 0,0 UV-I 0 W/m 1,5 C 4,3 C 0,0 km/h (0 Bft)
18.11.2019 20:34 4,4 C 82 % 1011,7 hPa 0,0 l/m 0,5 km/h (0 Bft) N 5 0 min 0,0 UV-I 0 W/m 1,6 C 4,4 C 4,8 km/h (1 Bft)
18.11.2019 20:33 4,3 C 82 % 1011,7 hPa 0,0 l/m 9,8 km/h (2 Bft) N-NW 340 0 min 0,0 UV-I 0 W/m 1,5 C 1,4 C 16,1 km/h (3 Bft)
18.11.2019 20:32 4,3 C 82 % 1011,8 hPa 0,0 l/m 3,0 km/h (1 Bft) N 11 0 min 0,0 UV-I 0 W/m 1,5 C 4,3 C 8,0 km/h (2 Bft)
18.11.2019 20:31 4,3 C 82 % 1011,8 hPa 0,0 l/m 0,0 km/h (0 Bft) N-NO 28 0 min 0,0 UV-I 0 W/m 1,5 C 4,3 C 0,0 km/h (0 Bft)
18.11.2019 20:30 4,3 C 82 % 1011,8 hPa 0,0 l/m 4,6 km/h (1 Bft) N-NO 28 0 min 0,0 UV-I 0 W/m 1,5 C 4,3 C 6,4 km/h (2 Bft)
18.11.2019 20:29 4,3 C 82 % 1011,8 hPa 0,0 l/m 5,4 km/h (1 Bft) NO 38 0 min 0,0 UV-I 0 W/m 1,5 C 4,3 C 11,3 km/h (2 Bft)
18.11.2019 20:28 4,3 C 82 % 1011,8 hPa 0,0 l/m 3,0 km/h (1 Bft) NO 50 0 min 0,0 UV-I 0 W/m 1,5 C 4,3 C 9,7 km/h (2 Bft)
18.11.2019 20:27 4,3 C 82 % 1011,7 hPa 0,0 l/m 0,0 km/h (0 Bft) N-NO 22 0 min 0,0 UV-I 0 W/m 1,5 C 4,3 C 0,0 km/h (0 Bft)
18.11.2019 20:26 4,3 C 82 % 1011,7 hPa 0,0 l/m 0,0 km/h (0 Bft) N-NO 22 0 min 0,0 UV-I 0 W/m 1,5 C 4,3 C 0,0 km/h (0 Bft)
18.11.2019 20:25 4,3 C 82 % 1011,7 hPa 0,0 l/m 1,5 km/h (1 Bft) O-NO 59 0 min 0,0 UV-I 0 W/m 1,5 C 4,3 C 4,8 km/h (1 Bft)
18.11.2019 20:24 4,3 C 82 % 1011,8 hPa 0,0 l/m 5,7 km/h (1 Bft) O-NO 59 0 min 0,0 UV-I 0 W/m 1,5 C 4,3 C 11,3 km/h (2 Bft)
18.11.2019 20:23 4,3 C 82 % 1011,7 hPa 0,0 l/m 0,2 km/h (0 Bft) N-NO 12 0 min 0,0 UV-I 0 W/m 1,5 C 4,3 C 3,2 km/h (1 Bft)
18.11.2019 20:22 4,3 C 82 % 1011,7 hPa 0,0 l/m 1,8 km/h (1 Bft) NO 40 0 min 0,0 UV-I 0 W/m 1,5 C 4,3 C 6,4 km/h (2 Bft)
18.11.2019 20:21 4,3 C 82 % 1011,7 hPa 0,0 l/m 0,0 km/h (0 Bft) O-NO 69 0 min 0,0 UV-I 0 W/m 1,5 C 4,3 C 0,0 km/h (0 Bft)
18.11.2019 20:20 4,3 C 82 % 1011,7 hPa 0,0 l/m 0,0 km/h (0 Bft) NO 52 0 min 0,0 UV-I 0 W/m 1,5 C 4,3 C 0,0 km/h (0 Bft)
18.11.2019 20:19 4,4 C 82 % 1011,8 hPa 0,0 l/m 0,0 km/h (0 Bft) NO 56 0 min 0,0 UV-I 0 W/m 1,6 C 4,4 C 0,0 km/h (0 Bft)
18.11.2019 20:18 4,4 C 82 % 1011,7 hPa 0,0 l/m 0,0 km/h (0 Bft) NO 55 0 min 0,0 UV-I 0 W/m 1,6 C 4,4 C 0,0 km/h (0 Bft)
18.11.2019 20:17 4,4 C 82 % 1011,8 hPa 0,0 l/m 0,0 km/h (0 Bft) O-NO 61 0 min 0,0 UV-I 0 W/m 1,6 C 4,4 C 0,0 km/h (0 Bft)
18.11.2019 20:16 4,4 C 82 % 1011,8 hPa 0,0 l/m 0,0 km/h (0 Bft) NO 46 0 min 0,0 UV-I 0 W/m 1,6 C 4,4 C 0,0 km/h (0 Bft)
18.11.2019 20:15 4,4 C 82 % 1011,8 hPa 0,0 l/m 1,3 km/h (1 Bft) NO 52 0 min 0,0 UV-I 0 W/m 1,6 C 4,4 C 4,8 km/h (1 Bft)
18.11.2019 20:14 4,4 C 82 % 1011,8 hPa 0,0 l/m 4,5 km/h (1 Bft) NO 54 0 min 0,0 UV-I 0 W/m 1,6 C 4,4 C 8,0 km/h (2 Bft)
18.11.2019 20:13 4,4 C 82 % 1011,8 hPa 0,0 l/m 7,2 km/h (2 Bft) NO 54 0 min 0,0 UV-I 0 W/m 1,6 C 3,7 C 11,3 km/h (2 Bft)
18.11.2019 20:12 4,3 C 82 % 1011,7 hPa 0,0 l/m 8,3 km/h (2 Bft) O-NO 65 0 min 0,0 UV-I 0 W/m 1,5 C 2,6 C 12,9 km/h (3 Bft)
18.11.2019 20:11 4,3 C 82 % 1011,7 hPa 0,0 l/m 0,0 km/h (0 Bft) NO 55 0 min 0,0 UV-I 0 W/m 1,5 C 4,3 C 0,0 km/h (0 Bft)
18.11.2019 20:10 4,3 C 82 % 1011,6 hPa 0,0 l/m 3,3 km/h (1 Bft) O 85 0 min 0,0 UV-I 0 W/m 1,5 C 4,3 C 6,4 km/h (2 Bft)
18.11.2019 20:09 4,3 C 82 % 1011,7 hPa 0,0 l/m 6,7 km/h (2 Bft) O-NO 67 0 min 0,0 UV-I 0 W/m 1,5 C 4,0 C 9,7 km/h (2 Bft)
18.11.2019 20:08 4,3 C 82 % 1011,7 hPa 0,0 l/m 6,9 km/h (2 Bft) O 79 0 min 0,0 UV-I 0 W/m 1,5 C 3,9 C 12,9 km/h (3 Bft)
18.11.2019 20:07 4,3 C 82 % 1011,7 hPa 0,0 l/m 9,6 km/h (2 Bft) O-NO 61 0 min 0,0 UV-I 0 W/m 1,5 C 1,6 C 12,9 km/h (3 Bft)
18.11.2019 20:06 4,4 C 82 % 1011,7 hPa 0,0 l/m 2,2 km/h (1 Bft) NO 38 0 min 0,0 UV-I 0 W/m 1,6 C 4,4 C 11,3 km/h (2 Bft)
18.11.2019 20:05 4,4 C 82 % 1011,8 hPa 0,0 l/m 0,0 km/h (0 Bft) N 360 0 min 0,0 UV-I 0 W/m 1,6 C 4,4 C 0,0 km/h (0 Bft)
18.11.2019 20:04 4,4 C 82 % 1011,7 hPa 0,0 l/m 1,5 km/h (1 Bft) NO 49 0 min 0,0 UV-I 0 W/m 1,6 C 4,4 C 4,8 km/h (1 Bft)
18.11.2019 20:03 4,4 C 82 % 1011,6 hPa 0,0 l/m 2,6 km/h (1 Bft) O 82 0 min 0,0 UV-I 0 W/m 1,6 C 4,4 C 4,8 km/h (1 Bft)
18.11.2019 20:02 4,4 C 82 % 1011,7 hPa 0,0 l/m 0,0 km/h (0 Bft) O 91 0 min 0,0 UV-I 0 W/m 1,6 C 4,4 C 0,0 km/h (0 Bft)
18.11.2019 20:01 4,4 C 82 % 1011,7 hPa 0,0 l/m 1,3 km/h (1 Bft) O-NO 78 0 min 0,0 UV-I 0 W/m 1,6 C 4,4 C 6,4 km/h (2 Bft)
18.11.2019 20:00 4,4 C 81 % 1011,6 hPa 0,0 l/m 1,3 km/h (1 Bft) O 81 0 min 0,0 UV-I 0 W/m 1,4 C 4,4 C 6,4 km/h (2 Bft)
18.11.2019 19:59 4,5 C 81 % 1011,7 hPa 0,0 l/m 0,0 km/h (0 Bft) O 80 0 min 0,0 UV-I 0 W/m 1,5 C 4,5 C 0,0 km/h (0 Bft)
18.11.2019 19:58 4,5 C 81 % 1011,6 hPa 0,0 l/m 3,3 km/h (1 Bft) O-NO 70 0 min 0,0 UV-I 0 W/m 1,5 C 4,5 C 6,4 km/h (2 Bft)
18.11.2019 19:57 4,5 C 81 % 1011,7 hPa 0,0 l/m 4,6 km/h (1 Bft) O-NO 65 0 min 0,0 UV-I 0 W/m 1,5 C 4,5 C 8,0 km/h (2 Bft)
18.11.2019 19:56 4,6 C 81 % 1011,7 hPa 0,0 l/m 1,5 km/h (1 Bft) O-SO 117 0 min 0,0 UV-I 0 W/m 1,6 C 4,6 C 4,8 km/h (1 Bft)
18.11.2019 19:55 4,6 C 81 % 1011,6 hPa 0,0 l/m 3,4 km/h (1 Bft) O-NO 69 0 min 0,0 UV-I 0 W/m 1,6 C 4,6 C 6,4 km/h (2 Bft)
18.11.2019 19:54 4,6 C 81 % 1011,6 hPa 0,0 l/m 4,9 km/h (1 Bft) O 98 0 min 0,0 UV-I 0 W/m 1,6 C 4,6 C 8,0 km/h (2 Bft)
18.11.2019 19:53 4,6 C 81 % 1011,6 hPa 0,0 l/m 6,4 km/h (2 Bft) O 90 0 min 0,0 UV-I 0 W/m 1,6 C 4,6 C 9,7 km/h (2 Bft)
18.11.2019 19:52 4,6 C 81 % 1011,6 hPa 0,0 l/m 6,9 km/h (2 Bft) O 99 0 min 0,0 UV-I 0 W/m 1,6 C 4,2 C 12,9 km/h (3 Bft)
18.11.2019 19:51 4,6 C 81 % 1011,6 hPa 0,0 l/m 12,4 km/h (3 Bft) O-NO 61 0 min 0,0 UV-I 0 W/m 1,6 C 0,1 C 16,1 km/h (3 Bft)
18.11.2019 19:50 4,6 C 81 % 1011,6 hPa 0,0 l/m 7,8 km/h (2 Bft) O 82 0 min 0,0 UV-I 0 W/m 1,6 C 3,4 C 14,5 km/h (3 Bft)
18.11.2019 19:49 4,6 C 81 % 1011,5 hPa 0,0 l/m 7,6 km/h (2 Bft) O 83 0 min 0,0 UV-I 0 W/m 1,6 C 3,5 C 12,9 km/h (3 Bft)
18.11.2019 19:48 4,6 C 81 % 1011,5 hPa 0,0 l/m 5,9 km/h (2 Bft) O-NO 65 0 min 0,0 UV-I 0 W/m 1,6 C 4,6 C 9,7 km/h (2 Bft)
18.11.2019 19:47 4,6 C 80 % 1011,5 hPa 0,0 l/m 7,3 km/h (2 Bft) O 82 0 min 0,0 UV-I 0 W/m 1,5 C 3,8 C 11,3 km/h (2 Bft)
18.11.2019 19:46 4,6 C 80 % 1011,5 hPa 0,0 l/m 5,6 km/h (1 Bft) O 89 0 min 0,0 UV-I 0 W/m 1,5 C 4,6 C 8,0 km/h (2 Bft)
18.11.2019 19:45 4,6 C 80 % 1011,5 hPa 0,0 l/m 5,8 km/h (2 Bft) O 82 0 min 0,0 UV-I 0 W/m 1,5 C 4,6 C 8,0 km/h (2 Bft)
18.11.2019 19:44 4,6 C 80 % 1011,5 hPa 0,0 l/m 0,5 km/h (0 Bft) N-NO 27 0 min 0,0 UV-I 0 W/m 1,5 C 4,6 C 6,4 km/h (2 Bft)
18.11.2019 19:43 4,6 C 80 % 1011,4 hPa 0,0 l/m 0,0 km/h (0 Bft) NO 50 0 min 0,0 UV-I 0 W/m 1,5 C 4,6 C 0,0 km/h (0 Bft)
18.11.2019 19:42 4,6 C 80 % 1011,4 hPa 0,0 l/m 1,9 km/h (1 Bft) O-NO 73 0 min 0,0 UV-I 0 W/m 1,5 C 4,6 C 6,4 km/h (2 Bft)
18.11.2019 19:41 4,6 C 80 % 1011,4 hPa 0,0 l/m 6,2 km/h (2 Bft) O 82 0 min 0,0 UV-I 0 W/m 1,5 C 4,6 C 9,7 km/h (2 Bft)
18.11.2019 19:40 4,6 C 80 % 1011,4 hPa 0,0 l/m 4,1 km/h (1 Bft) O 82 0 min 0,0 UV-I 0 W/m 1,5 C 4,6 C 9,7 km/h (2 Bft)
18.11.2019 19:39 4,6 C 80 % 1011,4 hPa 0,0 l/m 6,2 km/h (2 Bft) NO 44 0 min 0,0 UV-I 0 W/m 1,5 C 4,6 C 12,9 km/h (3 Bft)
18.11.2019 19:38 4,6 C 80 % 1011,4 hPa 0,0 l/m 0,0 km/h (0 Bft) O 82 0 min 0,0 UV-I 0 W/m 1,5 C 4,6 C 0,0 km/h (0 Bft)
18.11.2019 19:37 4,6 C 80 % 1011,4 hPa 0,0 l/m 3,9 km/h (1 Bft) NO 47 0 min 0,0 UV-I 0 W/m 1,5 C 4,6 C 9,7 km/h (2 Bft)
18.11.2019 19:36 4,6 C 80 % 1011,4 hPa 0,0 l/m 5,5 km/h (1 Bft) O-NO 71 0 min 0,0 UV-I 0 W/m 1,5 C 4,6 C 12,9 km/h (3 Bft)
18.11.2019 19:35 4,6 C 80 % 1011,5 hPa 0,0 l/m 2,6 km/h (1 Bft) NO 49 0 min 0,0 UV-I 0 W/m 1,5 C 4,6 C 8,0 km/h (2 Bft)
18.11.2019 19:34 4,6 C 80 % 1011,4 hPa 0,0 l/m 0,0 km/h (0 Bft) O-NO 73 0 min 0,0 UV-I 0 W/m 1,5 C 4,6 C 0,0 km/h (0 Bft)
18.11.2019 19:33 4,6 C 80 % 1011,4 hPa 0,0 l/m 0,1 km/h (0 Bft) O-NO 73 0 min 0,0 UV-I 0 W/m 1,5 C 4,6 C 1,6 km/h (1 Bft)
18.11.2019 19:32 4,7 C 80 % 1011,4 hPa 0,0 l/m 1,4 km/h (1 Bft) O-NO 73 0 min 0,0 UV-I 0 W/m 1,6 C 4,7 C 4,8 km/h (1 Bft)
18.11.2019 19:31 4,7 C 80 % 1011,4 hPa 0,0 l/m 3,8 km/h (1 Bft) O 90 0 min 0,0 UV-I 0 W/m 1,6 C 4,7 C 6,4 km/h (2 Bft)
18.11.2019 19:30 4,7 C 80 % 1011,4 hPa 0,0 l/m 6,9 km/h (2 Bft) O 100 0 min 0,0 UV-I 0 W/m 1,6 C 4,3 C 12,9 km/h (3 Bft)
18.11.2019 19:29 4,7 C 80 % 1011,4 hPa 0,0 l/m 0,9 km/h (0 Bft) NO 51 0 min 0,0 UV-I 0 W/m 1,6 C 4,7 C 8,0 km/h (2 Bft)
18.11.2019 19:28 4,7 C 80 % 1011,4 hPa 0,0 l/m 8,2 km/h (2 Bft) O-NO 63 0 min 0,0 UV-I 0 W/m 1,6 C 3,1 C 12,9 km/h (3 Bft)
18.11.2019 19:27 4,7 C 80 % 1011,4 hPa 0,0 l/m 8,1 km/h (2 Bft) O-NO 67 0 min 0,0 UV-I 0 W/m 1,6 C 3,2 C 11,3 km/h (2 Bft)
18.11.2019 19:26 4,7 C 80 % 1011,4 hPa 0,0 l/m 9,0 km/h (2 Bft) O-NO 75 0 min 0,0 UV-I 0 W/m 1,6 C 2,5 C 14,5 km/h (3 Bft)
18.11.2019 19:25 4,7 C 80 % 1011,4 hPa 0,0 l/m 8,6 km/h (2 Bft) O 101 0 min 0,0 UV-I 0 W/m 1,6 C 2,8 C 9,7 km/h (2 Bft)
18.11.2019 19:24 4,7 C 80 % 1011,3 hPa 0,0 l/m 6,9 km/h (2 Bft) O 84 0 min 0,0 UV-I 0 W/m 1,6 C 4,3 C 12,9 km/h (3 Bft)
18.11.2019 19:23 4,7 C 80 % 1011,4 hPa 0,0 l/m 4,8 km/h (1 Bft) NO 53 0 min 0,0 UV-I 0 W/m 1,6 C 4,7 C 6,4 km/h (2 Bft)
18.11.2019 19:22 4,7 C 80 % 1011,4 hPa 0,0 l/m 5,6 km/h (1 Bft) O-NO 59 0 min 0,0 UV-I 0 W/m 1,6 C 4,7 C 8,0 km/h (2 Bft)
18.11.2019 19:21 4,7 C 80 % 1011,4 hPa 0,0 l/m 5,3 km/h (1 Bft) O-SO 107 0 min 0,0 UV-I 0 W/m 1,6 C 4,7 C 9,7 km/h (2 Bft)
18.11.2019 19:20 4,7 C 80 % 1011,4 hPa 0,0 l/m 8,8 km/h (2 Bft) O 95 0 min 0,0 UV-I 0 W/m 1,6 C 2,6 C 12,9 km/h (3 Bft)
18.11.2019 19:19 4,7 C 80 % 1011,4 hPa 0,0 l/m 8,0 km/h (2 Bft) O 91 0 min 0,0 UV-I 0 W/m 1,6 C 3,3 C 11,3 km/h (2 Bft)
18.11.2019 19:18 4,7 C 80 % 1011,4 hPa 0,0 l/m 6,4 km/h (2 Bft) O-NO 70 0 min 0,0 UV-I 0 W/m 1,6 C 4,7 C 9,7 km/h (2 Bft)
18.11.2019 19:17 4,7 C 80 % 1011,4 hPa 0,0 l/m 6,8 km/h (2 Bft) O-NO 71 0 min 0,0 UV-I 0 W/m 1,6 C 4,4 C 9,7 km/h (2 Bft)
18.11.2019 19:16 4,7 C 80 % 1011,4 hPa 0,0 l/m 5,4 km/h (1 Bft) O 96 0 min 0,0 UV-I 0 W/m 1,6 C 4,7 C 9,7 km/h (2 Bft)
18.11.2019 19:15 4,7 C 80 % 1011,4 hPa 0,0 l/m 4,7 km/h (1 Bft) O-NO 76 0 min 0,0 UV-I 0 W/m 1,6 C 4,7 C 9,7 km/h (2 Bft)
18.11.2019 19:14 4,7 C 80 % 1011,4 hPa 0,0 l/m 5,2 km/h (1 Bft) O 81 0 min 0,0 UV-I 0 W/m 1,6 C 4,7 C 6,4 km/h (2 Bft)
18.11.2019 19:13 4,7 C 80 % 1011,4 hPa 0,0 l/m 5,5 km/h (1 Bft) O 90 0 min 0,0 UV-I 0 W/m 1,6 C 4,7 C 6,4 km/h (2 Bft)
18.11.2019 19:12 4,7 C 80 % 1011,4 hPa 0,0 l/m 4,2 km/h (1 Bft) O-NO 71 0 min 0,0 UV-I 0 W/m 1,6 C 4,7 C 4,8 km/h (1 Bft)
18.11.2019 19:11 4,7 C 80 % 1011,3 hPa 0,0 l/m 3,1 km/h (1 Bft) O 80 0 min 0,0 UV-I 0 W/m 1,6 C 4,7 C 4,8 km/h (1 Bft)
18.11.2019 19:10 4,7 C 80 % 1011,3 hPa 0,0 l/m 3,1 km/h (1 Bft) O 100 0 min 0,0 UV-I 0 W/m 1,6 C 4,7 C 4,8 km/h (1 Bft)
18.11.2019 19:09 4,7 C 80 % 1011,4 hPa 0,0 l/m 1,8 km/h (1 Bft) O 84 0 min 0,0 UV-I 0 W/m 1,6 C 4,7 C 3,2 km/h (1 Bft)
18.11.2019 19:08 4,7 C 80 % 1011,3 hPa 0,0 l/m 4,7 km/h (1 Bft) O 84 0 min 0,0 UV-I 0 W/m 1,6 C 4,7 C 6,4 km/h (2 Bft)
18.11.2019 19:07 4,7 C 80 % 1011,3 hPa 0,0 l/m 5,7 km/h (1 Bft) O 88 0 min 0,0 UV-I 0 W/m 1,6 C 4,7 C 9,7 km/h (2 Bft)
18.11.2019 19:06 4,8 C 80 % 1011,3 hPa 0,0 l/m 2,7 km/h (1 Bft) O 82 0 min 0,0 UV-I 0 W/m 1,6 C 4,8 C 6,4 km/h (2 Bft)
18.11.2019 19:05 4,8 C 80 % 1011,3 hPa 0,0 l/m 3,8 km/h (1 Bft) O-NO 76 0 min 0,0 UV-I 0 W/m 1,6 C 4,8 C 6,4 km/h (2 Bft)
18.11.2019 19:04 4,8 C 80 % 1011,3 hPa 0,0 l/m 5,1 km/h (1 Bft) O-NO 76 0 min 0,0 UV-I 0 W/m 1,6 C 4,8 C 8,0 km/h (2 Bft)
18.11.2019 19:03 4,8 C 80 % 1011,3 hPa 0,0 l/m 3,3 km/h (1 Bft) NO 52 0 min 0,0 UV-I 0 W/m 1,6 C 4,8 C 4,8 km/h (1 Bft)
18.11.2019 19:02 4,8 C 79 % 1011,3 hPa 0,0 l/m 2,8 km/h (1 Bft) O-NO 63 0 min 0,0 UV-I 0 W/m 1,5 C 4,8 C 3,2 km/h (1 Bft)
18.11.2019 19:01 4,8 C 79 % 1011,3 hPa 0,0 l/m 4,9 km/h (1 Bft) O-NO 63 0 min 0,0 UV-I 0 W/m 1,5 C 4,8 C 8,0 km/h (2 Bft)
18.11.2019 19:00 4,8 C 80 % 1011,2 hPa 0,0 l/m 6,0 km/h (2 Bft) O-NO 64 0 min 0,0 UV-I 0 W/m 1,6 C 4,8 C 9,7 km/h (2 Bft)
18.11.2019 18:59 4,8 C 80 % 1011,3 hPa 0,0 l/m 0,0 km/h (0 Bft) O-NO 59 0 min 0,0 UV-I 0 W/m 1,6 C 4,8 C 0,0 km/h (0 Bft)
18.11.2019 18:58 4,8 C 80 % 1011,2 hPa 0,0 l/m 0,3 km/h (0 Bft) O 93 0 min 0,0 UV-I 0 W/m 1,6 C 4,8 C 3,2 km/h (1 Bft)
18.11.2019 18:57 4,8 C 79 % 1011,2 hPa 0,0 l/m 4,9 km/h (1 Bft) O 86 0 min 0,0 UV-I 0 W/m 1,5 C 4,8 C 6,4 km/h (2 Bft)
18.11.2019 18:56 4,8 C 79 % 1011,2 hPa 0,0 l/m 2,8 km/h (1 Bft) O-SO 103 0 min 0,0 UV-I 0 W/m 1,5 C 4,8 C 4,8 km/h (1 Bft)
18.11.2019 18:55 4,8 C 79 % 1011,2 hPa 0,0 l/m 3,9 km/h (1 Bft) O-SO 103 0 min 0,0 UV-I 0 W/m 1,5 C 4,8 C 6,4 km/h (2 Bft)
18.11.2019 18:54 4,8 C 79 % 1011,2 hPa 0,0 l/m 5,2 km/h (1 Bft) O-NO 75 0 min 0,0 UV-I 0 W/m 1,5 C 4,8 C 6,4 km/h (2 Bft)
18.11.2019 18:53 4,8 C 79 % 1011,2 hPa 0,0 l/m 5,7 km/h (1 Bft) O-NO 76 0 min 0,0 UV-I 0 W/m 1,5 C 4,8 C 8,0 km/h (2 Bft)
18.11.2019 18:52 4,8 C 79 % 1011,3 hPa 0,0 l/m 3,8 km/h (1 Bft) O 91 0 min 0,0 UV-I 0 W/m 1,5 C 4,8 C 6,4 km/h (2 Bft)
18.11.2019 18:51 4,8 C 79 % 1011,3 hPa 0,0 l/m 3,7 km/h (1 Bft) O-NO 68 0 min 0,0 UV-I 0 W/m 1,5 C 4,8 C 4,8 km/h (1 Bft)
18.11.2019 18:50 4,8 C 79 % 1011,3 hPa 0,0 l/m 4,4 km/h (1 Bft) O 83 0 min 0,0 UV-I 0 W/m 1,5 C 4,8 C 4,8 km/h (1 Bft)
18.11.2019 18:49 4,8 C 79 % 1011,4 hPa 0,0 l/m 4,6 km/h (1 Bft) O-NO 59 0 min 0,0 UV-I 0 W/m 1,5 C 4,8 C 8,0 km/h (2 Bft)
18.11.2019 18:48 4,8 C 79 % 1011,4 hPa 0,0 l/m 7,2 km/h (2 Bft) O-NO 76 0 min 0,0 UV-I 0 W/m 1,5 C 4,1 C 9,7 km/h (2 Bft)
18.11.2019 18:47 4,7 C 79 % 1011,3 hPa 0,0 l/m 4,8 km/h (1 Bft) O-NO 74 0 min 0,0 UV-I 0 W/m 1,4 C 4,7 C 9,7 km/h (2 Bft)
18.11.2019 18:46 4,7 C 79 % 1011,3 hPa 0,0 l/m 0,9 km/h (0 Bft) N-NO 29 0 min 0,0 UV-I 0 W/m 1,4 C 4,7 C 3,2 km/h (1 Bft)
18.11.2019 18:45 4,7 C 80 % 1011,3 hPa 0,0 l/m 4,2 km/h (1 Bft) N-NO 32 0 min 0,0 UV-I 0 W/m 1,6 C 4,7 C 9,7 km/h (2 Bft)
18.11.2019 18:44 4,7 C 80 % 1011,3 hPa 0,0 l/m 2,8 km/h (1 Bft) NO 41 0 min 0,0 UV-I 0 W/m 1,6 C 4,7 C 4,8 km/h (1 Bft)
18.11.2019 18:43 4,7 C 80 % 1011,2 hPa 0,0 l/m 4,0 km/h (1 Bft) O-NO 63 0 min 0,0 UV-I 0 W/m 1,6 C 4,7 C 6,4 km/h (2 Bft)
18.11.2019 18:42 4,7 C 80 % 1011,2 hPa 0,0 l/m 2,4 km/h (1 Bft) O-NO 67 0 min 0,0 UV-I 0 W/m 1,6 C 4,7 C 4,8 km/h (1 Bft)
18.11.2019 18:41 4,7 C 80 % 1011,3 hPa 0,0 l/m 0,0 km/h (0 Bft) O 87 0 min 0,0 UV-I 0 W/m 1,6 C 4,7 C 0,0 km/h (0 Bft)
18.11.2019 18:40 4,7 C 80 % 1011,3 hPa 0,0 l/m 0,0 km/h (0 Bft) N-NO 33 0 min 0,0 UV-I 0 W/m 1,6 C 4,7 C 0,0 km/h (0 Bft)
18.11.2019 18:39 4,7 C 80 % 1011,3 hPa 0,0 l/m 0,0 km/h (0 Bft) NO 42 0 min 0,0 UV-I 0 W/m 1,6 C 4,7 C 0,0 km/h (0 Bft)
18.11.2019 18:38 4,7 C 80 % 1011,3 hPa 0,0 l/m 0,0 km/h (0 Bft) NO 34 0 min 0,0 UV-I 0 W/m 1,6 C 4,7 C 0,0 km/h (0 Bft)
18.11.2019 18:37 4,7 C 80 % 1011,3 hPa 0,0 l/m 0,0 km/h (0 Bft) N-NO 25 0 min 0,0 UV-I 0 W/m 1,6 C 4,7 C 0,0 km/h (0 Bft)
18.11.2019 18:36 4,7 C 80 % 1011,2 hPa 0,0 l/m 0,0 km/h (0 Bft) O-NO 78 0 min 0,0 UV-I 0 W/m 1,6 C 4,7 C 0,0 km/h (0 Bft)
18.11.2019 18:35 4,7 C 80 % 1011,2 hPa 0,0 l/m 0,0 km/h (0 Bft) O-NO 78 0 min 0,0 UV-I 0 W/m 1,6 C 4,7 C 0,0 km/h (0 Bft)
18.11.2019 18:34 4,7 C 80 % 1011,2 hPa 0,0 l/m 0,0 km/h (0 Bft) O-NO 78 0 min 0,0 UV-I 0 W/m 1,6 C 4,7 C 0,0 km/h (0 Bft)
18.11.2019 18:33 4,7 C 80 % 1011,2 hPa 0,0 l/m 0,0 km/h (0 Bft) O-NO 78 0 min 0,0 UV-I 0 W/m 1,6 C 4,7 C 0,0 km/h (0 Bft)
18.11.2019 18:32 4,7 C 80 % 1011,3 hPa 0,0 l/m 0,0 km/h (0 Bft) O-NO 78 0 min 0,0 UV-I 0 W/m 1,6 C 4,7 C 0,0 km/h (0 Bft)
18.11.2019 18:31 4,7 C 80 % 1011,3 hPa 0,0 l/m 0,0 km/h (0 Bft) O-NO 72 0 min 0,0 UV-I 0 W/m 1,6 C 4,7 C 0,0 km/h (0 Bft)
18.11.2019 18:30 4,7 C 80 % 1011,3 hPa 0,0 l/m 0,0 km/h (0 Bft) O-NO 74 0 min 0,0 UV-I 0 W/m 1,6 C 4,7 C 0,0 km/h (0 Bft)
18.11.2019 18:29 4,7 C 80 % 1011,3 hPa 0,0 l/m 0,0 km/h (0 Bft) O-NO 74 0 min 0,0 UV-I 0 W/m 1,6 C 4,7 C 0,0 km/h (0 Bft)
18.11.2019 18:28 4,7 C 80 % 1011,3 hPa 0,0 l/m 0,0 km/h (0 Bft) O-NO 74 0 min 0,0 UV-I 0 W/m 1,6 C 4,7 C 0,0 km/h (0 Bft)
18.11.2019 18:27 4,7 C 80 % 1011,3 hPa 0,0 l/m 0,0 km/h (0 Bft) O-NO 77 0 min 0,0 UV-I 0 W/m 1,6 C 4,7 C 0,0 km/h (0 Bft)
18.11.2019 18:26 4,7 C 80 % 1011,2 hPa 0,0 l/m 0,0 km/h (0 Bft) O-NO 77 0 min 0,0 UV-I 0 W/m 1,6 C 4,7 C 0,0 km/h (0 Bft)
18.11.2019 18:25 4,7 C 80 % 1011,3 hPa 0,0 l/m 0,0 km/h (0 Bft) NO 42 0 min 0,0 UV-I 0 W/m 1,6 C 4,7 C 0,0 km/h (0 Bft)
18.11.2019 18:24 4,7 C 80 % 1011,2 hPa 0,0 l/m 0,0 km/h (0 Bft) NO 42 0 min 0,0 UV-I 0 W/m 1,6 C 4,7 C 0,0 km/h (0 Bft)
18.11.2019 18:23 4,7 C 80 % 1011,2 hPa 0,0 l/m 0,0 km/h (0 Bft) NO 42 0 min 0,0 UV-I 0 W/m 1,6 C 4,7 C 0,0 km/h (0 Bft)
18.11.2019 18:22 4,7 C 80 % 1011,2 hPa 0,0 l/m 0,0 km/h (0 Bft) NO 42 0 min 0,0 UV-I 0 W/m 1,6 C 4,7 C 0,0 km/h (0 Bft)
18.11.2019 18:21 4,7 C 80 % 1011,2 hPa 0,0 l/m 0,0 km/h (0 Bft) N-NO 30 0 min 0,0 UV-I 0 W/m 1,6 C 4,7 C 0,0 km/h (0 Bft)
18.11.2019 18:20 4,7 C 80 % 1011,2 hPa 0,0 l/m 0,0 km/h (0 Bft) N-NO 29 0 min 0,0 UV-I 0 W/m 1,6 C 4,7 C 0,0 km/h (0 Bft)
18.11.2019 18:19 4,7 C 80 % 1011,2 hPa 0,0 l/m 0,0 km/h (0 Bft) N-NO 29 0 min 0,0 UV-I 0 W/m 1,6 C 4,7 C 0,0 km/h (0 Bft)
18.11.2019 18:18 4,7 C 79 % 1011,2 hPa 0,0 l/m 0,0 km/h (0 Bft) N-NO 17 0 min 0,0 UV-I 0 W/m 1,4 C 4,7 C 0,0 km/h (0 Bft)
18.11.2019 18:17 4,7 C 79 % 1011,1 hPa 0,0 l/m 0,0 km/h (0 Bft) N-NO 17 0 min 0,0 UV-I 0 W/m 1,4 C 4,7 C 0,0 km/h (0 Bft)
18.11.2019 18:16 4,7 C 79 % 1011,1 hPa 0,0 l/m 0,0 km/h (0 Bft) N-NO 15 0 min 0,0 UV-I 0 W/m 1,4 C 4,7 C 0,0 km/h (0 Bft)
18.11.2019 18:15 4,7 C 79 % 1011,1 hPa 0,0 l/m 0,0 km/h (0 Bft) NO 48 0 min 0,0 UV-I 0 W/m 1,4 C 4,7 C 0,0 km/h (0 Bft)
18.11.2019 18:14 4,7 C 79 % 1011,1 hPa 0,0 l/m 0,0 km/h (0 Bft) NO 48 0 min 0,0 UV-I 0 W/m 1,4 C 4,7 C 0,0 km/h (0 Bft)
18.11.2019 18:13 4,8 C 79 % 1011,1 hPa 0,0 l/m 0,0 km/h (0 Bft) NO 48 0 min 0,0 UV-I 0 W/m 1,5 C 4,8 C 0,0 km/h (0 Bft)
18.11.2019 18:12 4,8 C 79 % 1011,1 hPa 0,0 l/m 0,0 km/h (0 Bft) NO 48 0 min 0,0 UV-I 0 W/m 1,5 C 4,8 C 0,0 km/h (0 Bft)
18.11.2019 18:11 4,8 C 79 % 1011,0 hPa 0,0 l/m 0,0 km/h (0 Bft) NO 48 0 min 0,0 UV-I 0 W/m 1,5 C 4,8 C 0,0 km/h (0 Bft)
18.11.2019 18:10 4,8 C 79 % 1011,0 hPa 0,0 l/m 0,0 km/h (0 Bft) NO 51 0 min 0,0 UV-I 0 W/m 1,5 C 4,8 C 0,0 km/h (0 Bft)
18.11.2019 18:09 4,8 C 79 % 1011,1 hPa 0,0 l/m 0,0 km/h (0 Bft) NO 50 0 min 0,0 UV-I 0 W/m 1,5 C 4,8 C 0,0 km/h (0 Bft)
18.11.2019 18:08 4,8 C 79 % 1011,1 hPa 0,0 l/m 0,0 km/h (0 Bft) NO 45 0 min 0,0 UV-I 0 W/m 1,5 C 4,8 C 0,0 km/h (0 Bft)
18.11.2019 18:07 4,8 C 79 % 1011,0 hPa 0,0 l/m 0,0 km/h (0 Bft) O-NO 69 0 min 0,0 UV-I 0 W/m 1,5 C 4,8 C 0,0 km/h (0 Bft)
18.11.2019 18:06 4,8 C 79 % 1011,1 hPa 0,0 l/m 0,0 km/h (0 Bft) O-NO 69 0 min 0,0 UV-I 0 W/m 1,5 C 4,8 C 0,0 km/h (0 Bft)
18.11.2019 18:05 4,8 C 79 % 1011,1 hPa 0,0 l/m 0,0 km/h (0 Bft) O-NO 69 0 min 0,0 UV-I 0 W/m 1,5 C 4,8 C 0,0 km/h (0 Bft)
18.11.2019 18:04 4,8 C 79 % 1011,1 hPa 0,0 l/m 0,0 km/h (0 Bft) NO 55 0 min 0,0 UV-I 0 W/m 1,5 C 4,8 C 0,0 km/h (0 Bft)
18.11.2019 18:03 4,8 C 79 % 1011,1 hPa 0,0 l/m 0,0 km/h (0 Bft) NO 55 0 min 0,0 UV-I 0 W/m 1,5 C 4,8 C 0,0 km/h (0 Bft)
18.11.2019 18:02 4,8 C 79 % 1011,1 hPa 0,0 l/m 0,0 km/h (0 Bft) NO 55 0 min 0,0 UV-I 0 W/m 1,5 C 4,8 C 0,0 km/h (0 Bft)
18.11.2019 18:01 4,8 C 79 % 1011,1 hPa 0,0 l/m 0,0 km/h (0 Bft) NO 55 0 min 0,0 UV-I 0 W/m 1,5 C 4,8 C 0,0 km/h (0 Bft)
18.11.2019 18:00 4,9 C 78 % 1011,0 hPa 0,0 l/m 0,0 km/h (0 Bft) NO 55 0 min 0,0 UV-I 0 W/m 1,4 C 4,9 C 0,0 km/h (0 Bft)
18.11.2019 17:59 4,9 C 78 % 1011,1 hPa 0,0 l/m 0,0 km/h (0 Bft) NO 55 0 min 0,0 UV-I 0 W/m 1,4 C 4,9 C 0,0 km/h (0 Bft)
18.11.2019 17:58 4,9 C 78 % 1011,0 hPa 0,0 l/m 0,0 km/h (0 Bft) NO 55 0 min 0,0 UV-I 0 W/m 1,4 C 4,9 C 0,0 km/h (0 Bft)
18.11.2019 17:57 4,9 C 78 % 1011,0 hPa 0,0 l/m 0,0 km/h (0 Bft) NO 55 0 min 0,0 UV-I 0 W/m 1,4 C 4,9 C 0,0 km/h (0 Bft)
18.11.2019 17:56 4,9 C 78 % 1011,0 hPa 0,0 l/m 0,0 km/h (0 Bft) NO 55 0 min 0,0 UV-I 0 W/m 1,4 C 4,9 C 0,0 km/h (0 Bft)
18.11.2019 17:55 4,9 C 78 % 1011,0 hPa 0,0 l/m 0,0 km/h (0 Bft) NO 55 0 min 0,0 UV-I 0 W/m 1,4 C 4,9 C 0,0 km/h (0 Bft)
18.11.2019 17:54 4,9 C 78 % 1011,0 hPa 0,0 l/m 0,0 km/h (0 Bft) NO 55 0 min 0,0 UV-I 0 W/m 1,4 C 4,9 C 0,0 km/h (0 Bft)
18.11.2019 17:53 4,9 C 78 % 1011,0 hPa 0,0 l/m 0,0 km/h (0 Bft) NO 55 0 min 0,0 UV-I 0 W/m 1,4 C 4,9 C 0,0 km/h (0 Bft)
18.11.2019 17:52 4,9 C 78 % 1011,0 hPa 0,0 l/m 0,0 km/h (0 Bft) O 80 0 min 0,0 UV-I 0 W/m 1,4 C 4,9 C 0,0 km/h (0 Bft)
18.11.2019 17:51 4,9 C 78 % 1011,0 hPa 0,0 l/m 0,0 km/h (0 Bft) O 80 0 min 0,0 UV-I 0 W/m 1,4 C 4,9 C 0,0 km/h (0 Bft)
18.11.2019 17:50 4,9 C 78 % 1011,0 hPa 0,0 l/m 0,0 km/h (0 Bft) O-NO 64 0 min 0,0 UV-I 0 W/m 1,4 C 4,9 C 0,0 km/h (0 Bft)
18.11.2019 17:49 4,9 C 78 % 1011,0 hPa 0,0 l/m 0,0 km/h (0 Bft) O-NO 64 0 min 0,0 UV-I 0 W/m 1,4 C 4,9 C 0,0 km/h (0 Bft)
18.11.2019 17:48 4,9 C 78 % 1011,0 hPa 0,0 l/m 0,0 km/h (0 Bft) O-NO 64 0 min 0,0 UV-I 0 W/m 1,4 C 4,9 C 0,0 km/h (0 Bft)
18.11.2019 17:47 5,0 C 78 % 1011,0 hPa 0,0 l/m 0,0 km/h (0 Bft) O-NO 64 0 min 0,0 UV-I 0 W/m 1,5 C 5,0 C 0,0 km/h (0 Bft)
18.11.2019 17:46 5,0 C 78 % 1011,0 hPa 0,0 l/m 0,5 km/h (0 Bft) O-NO 64 0 min 0,0 UV-I 0 W/m 1,5 C 5,0 C 3,2 km/h (1 Bft)
18.11.2019 17:45 5,0 C 78 % 1011,0 hPa 0,0 l/m 2,6 km/h (1 Bft) O-NO 64 0 min 0,0 UV-I 0 W/m 1,5 C 5,0 C 3,2 km/h (1 Bft)
18.11.2019 17:44 5,0 C 78 % 1011,0 hPa 0,0 l/m 1,9 km/h (1 Bft) O-NO 64 0 min 0,0 UV-I 0 W/m 1,5 C 5,0 C 3,2 km/h (1 Bft)
18.11.2019 17:43 5,0 C 78 % 1011,0 hPa 0,0 l/m 3,0 km/h (1 Bft) O-NO 64 0 min 0,0 UV-I 0 W/m 1,5 C 5,0 C 4,8 km/h (1 Bft)
18.11.2019 17:42 5,0 C 78 % 1011,0 hPa 0,0 l/m 3,6 km/h (1 Bft) NO 55 0 min 0,0 UV-I 0 W/m 1,5 C 5,0 C 4,8 km/h (1 Bft)
18.11.2019 17:41 5,1 C 78 % 1011,0 hPa 0,0 l/m 1,1 km/h (1 Bft) O-NO 70 0 min 0,0 UV-I 0 W/m 1,6 C 5,1 C 4,8 km/h (1 Bft)
18.11.2019 17:40 5,1 C 78 % 1011,0 hPa 0,0 l/m 0,0 km/h (0 Bft) NO 44 0 min 0,0 UV-I 0 W/m 1,6 C 5,1 C 0,0 km/h (0 Bft)
18.11.2019 17:39 5,1 C 78 % 1010,9 hPa 0,0 l/m 0,0 km/h (0 Bft) NO 44 0 min 0,0 UV-I 0 W/m 1,6 C 5,1 C 0,0 km/h (0 Bft)
18.11.2019 17:38 5,1 C 78 % 1010,9 hPa 0,0 l/m 1,7 km/h (1 Bft) NO 44 0 min 0,0 UV-I 0 W/m 1,6 C 5,1 C 3,2 km/h (1 Bft)
18.11.2019 17:37 5,1 C 77 % 1010,9 hPa 0,0 l/m 3,0 km/h (1 Bft) NO 44 0 min 0,0 UV-I 0 W/m 1,4 C 5,1 C 4,8 km/h (1 Bft)
18.11.2019 17:36 5,1 C 77 % 1010,9 hPa 0,0 l/m 4,2 km/h (1 Bft) NO 44 0 min 0,0 UV-I 0 W/m 1,4 C 5,1 C 8,0 km/h (2 Bft)
18.11.2019 17:35 5,1 C 77 % 1010,9 hPa 0,0 l/m 5,5 km/h (1 Bft) NO 55 0 min 0,0 UV-I 0 W/m 1,4 C 5,1 C 8,0 km/h (2 Bft)
18.11.2019 17:34 5,1 C 77 % 1010,9 hPa 0,0 l/m 4,8 km/h (1 Bft) O-NO 59 0 min 0,0 UV-I 0 W/m 1,4 C 5,1 C 6,4 km/h (2 Bft)
18.11.2019 17:33 5,1 C 77 % 1010,8 hPa 0,0 l/m 3,4 km/h (1 Bft) NO 52 0 min 0,0 UV-I 0 W/m 1,4 C 5,1 C 4,8 km/h (1 Bft)
18.11.2019 17:32 5,2 C 77 % 1010,8 hPa 0,0 l/m 4,8 km/h (1 Bft) NO 52 0 min 0,0 UV-I 0 W/m 1,5 C 5,2 C 6,4 km/h (2 Bft)
18.11.2019 17:31 5,2 C 77 % 1010,8 hPa 0,0 l/m 4,8 km/h (1 Bft) O-NO 67 0 min 0,0 UV-I 0 W/m 1,5 C 5,2 C 6,4 km/h (2 Bft)
18.11.2019 17:30 5,2 C 77 % 1010,8 hPa 0,0 l/m 4,1 km/h (1 Bft) O-NO 65 0 min 0,0 UV-I 0 W/m 1,5 C 5,2 C 4,8 km/h (1 Bft)
18.11.2019 17:29 5,2 C 76 % 1010,8 hPa 0,0 l/m 3,9 km/h (1 Bft) NO 46 0 min 0,0 UV-I 0 W/m 1,3 C 5,2 C 6,4 km/h (2 Bft)
18.11.2019 17:28 5,2 C 77 % 1010,8 hPa 0,0 l/m 5,6 km/h (1 Bft) O-NO 65 0 min 0,0 UV-I 0 W/m 1,5 C 5,2 C 8,0 km/h (2 Bft)
18.11.2019 17:27 5,2 C 76 % 1010,8 hPa 0,0 l/m 3,2 km/h (1 Bft) NO 34 0 min 0,0 UV-I 0 W/m 1,3 C 5,2 C 6,4 km/h (2 Bft)
18.11.2019 17:26 5,2 C 76 % 1010,8 hPa 0,0 l/m 7,4 km/h (2 Bft) N-NO 32 0 min 0,0 UV-I 0 W/m 1,3 C 4,3 C 11,3 km/h (2 Bft)
18.11.2019 17:25 5,2 C 76 % 1010,8 hPa 0,0 l/m 4,0 km/h (1 Bft) N-NO 16 0 min 0,0 UV-I 0 W/m 1,3 C 5,2 C 6,4 km/h (2 Bft)
18.11.2019 17:24 5,3 C 76 % 1010,8 hPa 0,0 l/m 5,0 km/h (1 Bft) O-NO 63 0 min 0,0 UV-I 0 W/m 1,4 C 5,3 C 8,0 km/h (2 Bft)
18.11.2019 17:23 5,3 C 76 % 1010,8 hPa 0,0 l/m 5,1 km/h (1 Bft) NO 53 0 min 0,0 UV-I 0 W/m 1,4 C 5,3 C 8,0 km/h (2 Bft)
18.11.2019 17:22 5,3 C 76 % 1010,8 hPa 0,0 l/m 4,4 km/h (1 Bft) NO 36 0 min 0,0 UV-I 0 W/m 1,4 C 5,3 C 6,4 km/h (2 Bft)
18.11.2019 17:21 5,3 C 76 % 1010,8 hPa 0,0 l/m 5,1 km/h (1 Bft) NO 54 0 min 0,0 UV-I 0 W/m 1,4 C 5,3 C 6,4 km/h (2 Bft)
18.11.2019 17:20 5,3 C 76 % 1010,8 hPa 0,0 l/m 5,2 km/h (1 Bft) N-NW 343 0 min 0,0 UV-I 0 W/m 1,4 C 5,3 C 6,4 km/h (2 Bft)
18.11.2019 17:19 5,3 C 76 % 1010,8 hPa 0,0 l/m 3,7 km/h (1 Bft) NO 49 0 min 0,0 UV-I 0 W/m 1,4 C 5,3 C 4,8 km/h (1 Bft)
18.11.2019 17:18 5,3 C 76 % 1010,8 hPa 0,0 l/m 8,6 km/h (2 Bft) O-NO 75 0 min 0,0 UV-I 0 W/m 1,4 C 3,4 C 16,1 km/h (3 Bft)
18.11.2019 17:17 5,3 C 76 % 1010,8 hPa 0,0 l/m 2,2 km/h (1 Bft) NO 41 0 min 0,0 UV-I 0 W/m 1,4 C 5,3 C 11,3 km/h (2 Bft)
18.11.2019 17:16 5,3 C 76 % 1010,8 hPa 0,0 l/m 0,0 km/h (0 Bft) N-NO 21 0 min 0,0 UV-I 0 W/m 1,4 C 5,3 C 0,0 km/h (0 Bft)
18.11.2019 17:15 5,3 C 76 % 1010,7 hPa 0,0 l/m 0,0 km/h (0 Bft) N-NO 17 0 min 0,0 UV-I 0 W/m 1,4 C 5,3 C 0,0 km/h (0 Bft)
18.11.2019 17:14 5,4 C 76 % 1010,7 hPa 0,0 l/m 0,0 km/h (0 Bft) O-NO 57 0 min 0,0 UV-I 0 W/m 1,5 C 5,4 C 0,0 km/h (0 Bft)
18.11.2019 17:13 5,4 C 76 % 1010,7 hPa 0,0 l/m 0,0 km/h (0 Bft) NO 45 0 min 0,0 UV-I 0 W/m 1,5 C 5,4 C 0,0 km/h (0 Bft)
18.11.2019 17:12 5,4 C 75 % 1010,7 hPa 0,0 l/m 0,6 km/h (0 Bft) NO 45 0 min 0,0 UV-I 0 W/m 1,3 C 5,4 C 3,2 km/h (1 Bft)
18.11.2019 17:11 5,4 C 75 % 1010,7 hPa 0,0 l/m 3,6 km/h (1 Bft) NO 46 0 min 0,0 UV-I 0 W/m 1,3 C 5,4 C 4,8 km/h (1 Bft)
18.11.2019 17:10 5,4 C 75 % 1010,7 hPa 0,0 l/m 5,7 km/h (1 Bft) N-NO 32 0 min 0,0 UV-I 0 W/m 1,3 C 5,4 C 11,3 km/h (2 Bft)
18.11.2019 17:09 5,4 C 75 % 1010,7 hPa 0,0 l/m 4,8 km/h (1 Bft) N-NO 28 0 min 0,0 UV-I 0 W/m 1,3 C 5,4 C 6,4 km/h (2 Bft)
18.11.2019 17:08 5,4 C 76 % 1010,7 hPa 0,0 l/m 9,3 km/h (2 Bft) NO 34 0 min 0,0 UV-I 0 W/m 1,5 C 3,0 C 12,9 km/h (3 Bft)
18.11.2019 17:07 5,4 C 75 % 1010,7 hPa 0,0 l/m 6,8 km/h (2 Bft) N-NO 22 0 min 0,0 UV-I 0 W/m 1,3 C 5,1 C 11,3 km/h (2 Bft)
18.11.2019 17:06 5,4 C 75 % 1010,6 hPa 0,0 l/m 7,6 km/h (2 Bft) N-NO 14 0 min 0,0 UV-I 0 W/m 1,3 C 4,4 C 11,3 km/h (2 Bft)
18.11.2019 17:05 5,4 C 75 % 1010,7 hPa 0,0 l/m 8,1 km/h (2 Bft) N-NO 28 0 min 0,0 UV-I 0 W/m 1,3 C 3,9 C 11,3 km/h (2 Bft)
18.11.2019 17:04 5,4 C 75 % 1010,7 hPa 0,0 l/m 9,2 km/h (2 Bft) N-NO 17 0 min 0,0 UV-I 0 W/m 1,3 C 3,1 C 12,9 km/h (3 Bft)
18.11.2019 17:03 5,4 C 75 % 1010,7 hPa 0,0 l/m 8,0 km/h (2 Bft) O-NO 60 0 min 0,0 UV-I 0 W/m 1,3 C 4,0 C 12,9 km/h (3 Bft)
18.11.2019 17:02 5,4 C 75 % 1010,6 hPa 0,0 l/m 8,0 km/h (2 Bft) N 9 0 min 0,0 UV-I 0 W/m 1,3 C 4,0 C 11,3 km/h (2 Bft)
18.11.2019 17:01 5,4 C 75 % 1010,7 hPa 0,0 l/m 4,3 km/h (1 Bft) N 5 0 min 0,0 UV-I 0 W/m 1,3 C 5,4 C 6,4 km/h (2 Bft)
18.11.2019 17:00 5,5 C 75 % 1010,6 hPa 0,0 l/m 7,5 km/h (2 Bft) NO 53 0 min 0,0 UV-I 0 W/m 1,4 C 4,5 C 12,9 km/h (3 Bft)
18.11.2019 16:59 5,5 C 75 % 1010,6 hPa 0,0 l/m 1,7 km/h (1 Bft) N-NO 17 0 min 0,0 UV-I 0 W/m 1,4 C 5,5 C 12,9 km/h (3 Bft)
18.11.2019 16:58 5,5 C 75 % 1010,6 hPa 0,0 l/m 5,1 km/h (1 Bft) O-NO 67 0 min 0,0 UV-I 0 W/m 1,4 C 5,5 C 8,0 km/h (2 Bft)
18.11.2019 16:57 5,5 C 75 % 1010,6 hPa 0,0 l/m 6,6 km/h (2 Bft) N-NO 15 0 min 0,0 UV-I 0 W/m 1,4 C 5,3 C 9,7 km/h (2 Bft)
18.11.2019 16:56 5,6 C 75 % 1010,6 hPa 0,0 l/m 4,1 km/h (1 Bft) O-NO 64 0 min 0,0 UV-I 0 W/m 1,5 C 5,6 C 8,0 km/h (2 Bft)
18.11.2019 16:55 5,6 C 75 % 1010,5 hPa 0,0 l/m 6,0 km/h (2 Bft) N-NO 26 0 min 0,0 UV-I 0 W/m 1,5 C 5,6 C 14,5 km/h (3 Bft)
18.11.2019 16:54 5,6 C 75 % 1010,6 hPa 0,0 l/m 5,1 km/h (1 Bft) N-NO 24 0 min 0,0 UV-I 0 W/m 1,5 C 5,6 C 12,9 km/h (3 Bft)
18.11.2019 16:53 5,6 C 75 % 1010,6 hPa 0,0 l/m 4,9 km/h (1 Bft) O 81 0 min 0,0 UV-I 0 W/m 1,5 C 5,6 C 6,4 km/h (2 Bft)
18.11.2019 16:52 5,6 C 75 % 1010,6 hPa 0,0 l/m 7,3 km/h (2 Bft) O-NO 73 0 min 0,0 UV-I 0 W/m 1,5 C 4,8 C 12,9 km/h (3 Bft)
18.11.2019 16:51 5,6 C 75 % 1010,5 hPa 0,0 l/m 10,3 km/h (2 Bft) NO 44 0 min 0,0 UV-I 0 W/m 1,5 C 2,5 C 17,7 km/h (3 Bft)
18.11.2019 16:50 5,7 C 75 % 1010,6 hPa 0,0 l/m 10,3 km/h (2 Bft) NO 38 0 min 0,0 UV-I 0 W/m 1,6 C 2,6 C 16,1 km/h (3 Bft)
18.11.2019 16:49 5,7 C 75 % 1010,5 hPa 0,0 l/m 8,7 km/h (2 Bft) N-NW 348 0 min 0,0 UV-I 0 W/m 1,6 C 3,8 C 16,1 km/h (3 Bft)
18.11.2019 16:48 5,7 C 74 % 1010,5 hPa 0,0 l/m 11,4 km/h (2 Bft) N-NO 17 0 min 0,0 UV-I 0 W/m 1,4 C 1,9 C 16,1 km/h (3 Bft)
18.11.2019 16:47 5,7 C 75 % 1010,5 hPa 0,0 l/m 8,0 km/h (2 Bft) NO 49 0 min 0,0 UV-I 0 W/m 1,6 C 4,3 C 14,5 km/h (3 Bft)
18.11.2019 16:46 5,7 C 75 % 1010,5 hPa 0,0 l/m 9,7 km/h (2 Bft) NO 40 0 min 0,0 UV-I 0 W/m 1,6 C 3,1 C 14,5 km/h (3 Bft)
18.11.2019 16:45 5,7 C 75 % 1010,5 hPa 0,0 l/m 8,4 km/h (2 Bft) NO 42 0 min 0,0 UV-I 0 W/m 1,6 C 4,0 C 12,9 km/h (3 Bft)
18.11.2019 16:44 5,7 C 75 % 1010,4 hPa 0,0 l/m 14,4 km/h (3 Bft) N-NO 13 0 min 0,0 UV-I 0 W/m 1,6 C 0,2 C 20,9 km/h (4 Bft)
18.11.2019 16:43 5,7 C 75 % 1010,5 hPa 0,0 l/m 9,6 km/h (2 Bft) NW 311 0 min 0,0 UV-I 0 W/m 1,6 C 3,1 C 16,1 km/h (3 Bft)
18.11.2019 16:42 5,7 C 75 % 1010,4 hPa 0,0 l/m 8,8 km/h (2 Bft) N 5 0 min 0,0 UV-I 0 W/m 1,6 C 3,7 C 12,9 km/h (3 Bft)
18.11.2019 16:41 5,7 C 75 % 1010,3 hPa 0,0 l/m 8,1 km/h (2 Bft) NO 44 0 min 0,0 UV-I 0 W/m 1,6 C 4,3 C 17,7 km/h (3 Bft)
18.11.2019 16:40 5,7 C 75 % 1010,3 hPa 0,0 l/m 6,7 km/h (2 Bft) N 349 0 min 0,0 UV-I 0 W/m 1,6 C 5,5 C 9,7 km/h (2 Bft)
18.11.2019 16:39 5,7 C 75 % 1010,3 hPa 0,0 l/m 9,5 km/h (2 Bft) N-NO 31 0 min 0,0 UV-I 0 W/m 1,6 C 3,2 C 16,1 km/h (3 Bft)
18.11.2019 16:38 5,8 C 75 % 1010,3 hPa 0,0 l/m 13,0 km/h (3 Bft) N 5 0 min 0,0 UV-I 0 W/m 1,7 C 1,1 C 17,7 km/h (3 Bft)
18.11.2019 16:37 5,7 C 75 % 1010,3 hPa 0,0 l/m 8,1 km/h (2 Bft) NO 41 0 min 0,0 UV-I 0 W/m 1,6 C 4,3 C 12,9 km/h (3 Bft)
18.11.2019 16:36 5,8 C 75 % 1010,3 hPa 0,0 l/m 7,9 km/h (2 Bft) NO 48 0 min 0,0 UV-I 0 W/m 1,7 C 4,5 C 11,3 km/h (2 Bft)
18.11.2019 16:35 5,8 C 75 % 1010,2 hPa 0,0 l/m 6,7 km/h (2 Bft) NO 36 0 min 0,0 UV-I 0 W/m 1,7 C 5,6 C 14,5 km/h (3 Bft)
18.11.2019 16:34 5,8 C 75 % 1010,2 hPa 0,0 l/m 4,5 km/h (1 Bft) N-NO 17 0 min 0,0 UV-I 0 W/m 1,7 C 5,8 C 6,4 km/h (2 Bft)
18.11.2019 16:33 5,8 C 75 % 1010,2 hPa 0,0 l/m 4,7 km/h (1 Bft) O-NO 62 0 min 0,0 UV-I 0 W/m 1,7 C 5,8 C 6,4 km/h (2 Bft)
18.11.2019 16:32 5,8 C 75 % 1010,2 hPa 0,0 l/m 9,8 km/h (2 Bft) N 355 0 min 0,0 UV-I 0 W/m 1,7 C 3,1 C 14,5 km/h (3 Bft)
18.11.2019 16:31 5,8 C 75 % 1010,2 hPa 0,0 l/m 11,9 km/h (2 Bft) NO 38 0 min 0,0 UV-I 0 W/m 1,7 C 1,7 C 16,1 km/h (3 Bft)
18.11.2019 16:30 5,8 C 75 % 1010,2 hPa 0,0 l/m 8,8 km/h (2 Bft) N 5 0 min 0,0 UV-I 0 W/m 1,7 C 3,8 C 16,1 km/h (3 Bft)
18.11.2019 16:29 5,8 C 75 % 1010,1 hPa 0,0 l/m 14,6 km/h (3 Bft) N-NO 31 0 min 0,0 UV-I 0 W/m 1,7 C 0,2 C 17,7 km/h (3 Bft)
18.11.2019 16:28 5,7 C 75 % 1010,1 hPa 0,0 l/m 14,2 km/h (3 Bft) N 5 0 min 0,0 UV-I 0 W/m 1,6 C 0,3 C 19,3 km/h (3 Bft)
18.11.2019 16:27 5,7 C 75 % 1010,2 hPa 0,0 l/m 13,8 km/h (3 Bft) NO 39 0 min 0,0 UV-I 0 W/m 1,6 C 0,5 C 20,9 km/h (4 Bft)
18.11.2019 16:26 5,7 C 76 % 1010,2 hPa 0,0 l/m 7,2 km/h (2 Bft) N-NO 27 0 min 0,0 UV-I 0 W/m 1,8 C 5,0 C 11,3 km/h (2 Bft)
18.11.2019 16:25 5,8 C 76 % 1010,1 hPa 0,0 l/m 5,5 km/h (1 Bft) N-NO 17 0 min 0,0 UV-I 0 W/m 1,9 C 5,8 C 9,7 km/h (2 Bft)
18.11.2019 16:24 5,8 C 76 % 1010,1 hPa 0,0 l/m 6,3 km/h (2 Bft) N-NO 30 0 min 0,0 UV-I 0 W/m 1,9 C 5,8 C 9,7 km/h (2 Bft)
18.11.2019 16:23 5,8 C 76 % 1010,1 hPa 0,0 l/m 5,9 km/h (2 Bft) N 350 0 min 0,0 UV-I 0 W/m 1,9 C 5,8 C 8,0 km/h (2 Bft)
18.11.2019 16:22 5,8 C 76 % 1010,1 hPa 0,0 l/m 6,5 km/h (2 Bft) N-NO 19 0 min 0,0 UV-I 0 W/m 1,9 C 5,7 C 11,3 km/h (2 Bft)
18.11.2019 16:21 5,8 C 76 % 1010,1 hPa 0,0 l/m 7,5 km/h (2 Bft) N-NW 346 0 min 0,0 UV-I 0 W/m 1,9 C 4,9 C 12,9 km/h (3 Bft)
18.11.2019 16:20 5,7 C 76 % 1010,0 hPa 0,0 l/m 9,0 km/h (2 Bft) N-NW 348 0 min 0,0 UV-I 0 W/m 1,8 C 3,6 C 11,3 km/h (2 Bft)
18.11.2019 16:19 5,7 C 76 % 1010,1 hPa 0,0 l/m 8,0 km/h (2 Bft) N-NO 33 0 min 0,0 UV-I 0 W/m 1,8 C 4,3 C 14,5 km/h (3 Bft)
18.11.2019 16:18 5,7 C 76 % 1010,1 hPa 0,0 l/m 9,6 km/h (2 Bft) O-NO 63 0 min 0,0 UV-I 0 W/m 1,8 C 3,1 C 14,5 km/h (3 Bft)
18.11.2019 16:17 5,7 C 77 % 1010,0 hPa 0,0 l/m 7,3 km/h (2 Bft) NO 40 0 min 0,0 UV-I 5 W/m 2,0 C 4,9 C 12,9 km/h (3 Bft)
18.11.2019 16:16 5,7 C 77 % 1010,0 hPa 0,0 l/m 6,7 km/h (2 Bft) N-NO 17 0 min 0,0 UV-I 5 W/m 2,0 C 5,5 C 9,7 km/h (2 Bft)
18.11.2019 16:15 5,8 C 77 % 1010,0 hPa 0,0 l/m 3,9 km/h (1 Bft) N-NO 21 0 min 0,0 UV-I 5 W/m 2,1 C 5,8 C 4,8 km/h (1 Bft)
18.11.2019 16:14 5,7 C 77 % 1010,0 hPa 0,0 l/m 4,6 km/h (1 Bft) NW 323 0 min 0,0 UV-I 5 W/m 2,0 C 5,7 C 8,0 km/h (2 Bft)
18.11.2019 16:13 5,8 C 77 % 1009,9 hPa 0,0 l/m 5,8 km/h (2 Bft) N-NO 15 0 min 0,0 UV-I 5 W/m 2,1 C 5,8 C 6,4 km/h (2 Bft)
18.11.2019 16:12 5,8 C 77 % 1010,0 hPa 0,0 l/m 5,8 km/h (2 Bft) N 11 0 min 0,0 UV-I 5 W/m 2,1 C 5,8 C 12,9 km/h (3 Bft)
18.11.2019 16:11 5,8 C 77 % 1009,9 hPa 0,0 l/m 5,8 km/h (2 Bft) N-NW 348 0 min 0,0 UV-I 5 W/m 2,1 C 5,8 C 6,4 km/h (2 Bft)
18.11.2019 16:10 5,8 C 77 % 1009,8 hPa 0,0 l/m 7,1 km/h (2 Bft) NO 39 0 min 0,0 UV-I 5 W/m 2,1 C 5,2 C 9,7 km/h (2 Bft)
18.11.2019 16:09 5,8 C 77 % 1009,9 hPa 0,0 l/m 3,7 km/h (1 Bft) NO 34 0 min 0,0 UV-I 5 W/m 2,1 C 5,8 C 6,4 km/h (2 Bft)
18.11.2019 16:08 5,8 C 77 % 1009,8 hPa 0,0 l/m 6,9 km/h (2 Bft) NO 55 0 min 0,0 UV-I 5 W/m 2,1 C 5,4 C 11,3 km/h (2 Bft)
18.11.2019 16:07 5,8 C 77 % 1009,8 hPa 0,0 l/m 5,3 km/h (1 Bft) N-NW 338 0 min 0,0 UV-I 5 W/m 2,1 C 5,8 C 8,0 km/h (2 Bft)
18.11.2019 16:06 5,8 C 76 % 1009,8 hPa 0,0 l/m 4,3 km/h (1 Bft) NO 47 0 min 0,0 UV-I 5 W/m 1,9 C 5,8 C 6,4 km/h (2 Bft)
18.11.2019 16:05 5,8 C 76 % 1009,8 hPa 0,0 l/m 4,6 km/h (1 Bft) N 355 0 min 0,0 UV-I 7 W/m 1,9 C 5,8 C 6,4 km/h (2 Bft)
18.11.2019 16:04 5,8 C 76 % 1009,7 hPa 0,0 l/m 9,7 km/h (2 Bft) N-NW 348 0 min 0,0 UV-I 7 W/m 1,9 C 3,2 C 14,5 km/h (3 Bft)
18.11.2019 16:03 5,8 C 76 % 1009,8 hPa 0,0 l/m 9,3 km/h (2 Bft) N-NW 336 0 min 0,0 UV-I 7 W/m 1,9 C 3,4 C 14,5 km/h (3 Bft)
18.11.2019 16:02 5,8 C 76 % 1009,6 hPa 0,0 l/m 10,1 km/h (2 Bft) N 5 0 min 0,0 UV-I 7 W/m 1,9 C 2,9 C 14,5 km/h (3 Bft)
18.11.2019 16:01 5,8 C 77 % 1009,7 hPa 0,0 l/m 13,2 km/h (3 Bft) N 10 0 min 0,0 UV-I 7 W/m 2,1 C 1,0 C 20,9 km/h (4 Bft)
18.11.2019 16:00 5,8 C 76 % 1009,7 hPa 0,0 l/m 7,3 km/h (2 Bft) N 350 0 min 0,0 UV-I 7 W/m 1,9 C 5,0 C 9,7 km/h (2 Bft)
18.11.2019 15:59 5,8 C 77 % 1009,7 hPa 0,0 l/m 13,3 km/h (3 Bft) N 5 0 min 0,0 UV-I 7 W/m 2,1 C 0,9 C 17,7 km/h (3 Bft)
18.11.2019 15:58 5,8 C 77 % 1009,6 hPa 0,0 l/m 7,5 km/h (2 Bft) N-NO 15 0 min 0,0 UV-I 7 W/m 2,1 C 4,9 C 12,9 km/h (3 Bft)
18.11.2019 15:57 5,8 C 77 % 1009,6 hPa 0,0 l/m 4,7 km/h (1 Bft) N-NO 21 0 min 0,0 UV-I 7 W/m 2,1 C 5,8 C 9,7 km/h (2 Bft)
18.11.2019 15:56 5,8 C 77 % 1009,6 hPa 0,0 l/m 7,1 km/h (2 Bft) NO 46 0 min 0,0 UV-I 7 W/m 2,1 C 5,2 C 16,1 km/h (3 Bft)
18.11.2019 15:55 5,8 C 77 % 1009,6 hPa 0,0 l/m 5,4 km/h (1 Bft) N 360 0 min 0,0 UV-I 7 W/m 2,1 C 5,8 C 14,5 km/h (3 Bft)
18.11.2019 15:54 5,8 C 77 % 1009,6 hPa 0,0 l/m 11,3 km/h (2 Bft) NO 38 0 min 0,0 UV-I 9 W/m 2,1 C 2,1 C 14,5 km/h (3 Bft)
18.11.2019 15:53 5,8 C 77 % 1009,6 hPa 0,0 l/m 6,9 km/h (2 Bft) N 5 0 min 0,0 UV-I 9 W/m 2,1 C 5,4 C 9,7 km/h (2 Bft)
18.11.2019 15:52 5,8 C 77 % 1009,7 hPa 0,0 l/m 6,0 km/h (2 Bft) N-NO 15 0 min 0,0 UV-I 9 W/m 2,1 C 5,8 C 9,7 km/h (2 Bft)
18.11.2019 15:51 5,8 C 77 % 1009,6 hPa 0,0 l/m 4,8 km/h (1 Bft) N 5 0 min 0,0 UV-I 9 W/m 2,1 C 5,8 C 6,4 km/h (2 Bft)
18.11.2019 15:50 5,8 C 77 % 1009,5 hPa 0,0 l/m 6,3 km/h (2 Bft) N 355 0 min 0,0 UV-I 9 W/m 2,1 C 5,8 C 8,0 km/h (2 Bft)
18.11.2019 15:49 5,8 C 77 % 1009,5 hPa 0,0 l/m 5,7 km/h (1 Bft) O-NO 61 0 min 0,0 UV-I 9 W/m 2,1 C 5,8 C 9,7 km/h (2 Bft)
18.11.2019 15:48 5,8 C 77 % 1009,5 hPa 0,0 l/m 7,5 km/h (2 Bft) N 355 0 min 0,0 UV-I 11 W/m 2,1 C 4,9 C 11,3 km/h (2 Bft)
18.11.2019 15:47 5,8 C 77 % 1009,6 hPa 0,0 l/m 11,8 km/h (2 Bft) N-NW 331 0 min 0,0 UV-I 11 W/m 2,1 C 1,8 C 16,1 km/h (3 Bft)
18.11.2019 15:46 5,8 C 77 % 1009,5 hPa 0,0 l/m 7,8 km/h (2 Bft) N-NO 13 0 min 0,0 UV-I 10 W/m 2,1 C 4,6 C 14,5 km/h (3 Bft)
18.11.2019 15:45 5,8 C 77 % 1009,5 hPa 0,0 l/m 8,2 km/h (2 Bft) N-NO 31 0 min 0,0 UV-I 10 W/m 2,1 C 4,3 C 11,3 km/h (2 Bft)
18.11.2019 15:44 5,8 C 77 % 1009,5 hPa 0,0 l/m 7,5 km/h (2 Bft) N 355 0 min 0,0 UV-I 11 W/m 2,1 C 4,9 C 12,9 km/h (3 Bft)
18.11.2019 15:43 5,8 C 78 % 1009,5 hPa 0,0 l/m 8,3 km/h (2 Bft) NO 53 0 min 0,0 UV-I 11 W/m 2,3 C 4,2 C 19,3 km/h (3 Bft)
18.11.2019 15:42 5,8 C 77 % 1009,5 hPa 0,0 l/m 8,5 km/h (2 Bft) N-NO 32 0 min 0,0 UV-I 11 W/m 2,1 C 4,0 C 14,5 km/h (3 Bft)
18.11.2019 15:41 5,8 C 77 % 1009,4 hPa 0,0 l/m 13,1 km/h (3 Bft) N 355 0 min 0,0 UV-I 9 W/m 2,1 C 1,0 C 20,9 km/h (4 Bft)
18.11.2019 15:40 5,7 C 78 % 1009,4 hPa 0,0 l/m 11,8 km/h (2 Bft) NO 49 0 min 0,0 UV-I 7 W/m 2,2 C 1,7 C 17,7 km/h (3 Bft)
18.11.2019 15:39 5,7 C 79 % 1009,4 hPa 0,0 l/m 17,6 km/h (3 Bft) N-NW 333 0 min 0,0 UV-I 8 W/m 2,3 C -1,3 C 22,5 km/h (4 Bft)
18.11.2019 15:38 5,7 C 79 % 1009,4 hPa 0,0 l/m 4,3 km/h (1 Bft) N 5 0 min 0,0 UV-I 9 W/m 2,3 C 5,7 C 8,0 km/h (2 Bft)
18.11.2019 15:37 5,7 C 79 % 1009,4 hPa 0,0 l/m 9,4 km/h (2 Bft) N 360 0 min 0,0 UV-I 9 W/m 2,3 C 3,3 C 16,1 km/h (3 Bft)
18.11.2019 15:36 5,7 C 80 % 1009,4 hPa 0,0 l/m 10,0 km/h (2 Bft) N 5 0 min 0,0 UV-I 9 W/m 2,5 C 2,8 C 19,3 km/h (3 Bft)
18.11.2019 15:35 5,6 C 80 % 1009,4 hPa 0,0 l/m 7,5 km/h (2 Bft) N-NO 14 0 min 0,0 UV-I 11 W/m 2,4 C 4,6 C 12,9 km/h (3 Bft)
18.11.2019 15:34 5,6 C 81 % 1009,4 hPa 0,0 l/m 4,8 km/h (1 Bft) NO 42 0 min 0,0 UV-I 12 W/m 2,6 C 5,6 C 6,4 km/h (2 Bft)
18.11.2019 15:33 5,6 C 81 % 1009,4 hPa 0,0 l/m 5,9 km/h (2 Bft) NO 44 0 min 0,0 UV-I 13 W/m 2,6 C 5,6 C 8,0 km/h (2 Bft)
18.11.2019 15:32 5,6 C 81 % 1009,3 hPa 0,0 l/m 9,7 km/h (2 Bft) N-NW 340 0 min 0,0 UV-I 15 W/m 2,6 C 2,9 C 14,5 km/h (3 Bft)
18.11.2019 15:31 5,6 C 81 % 1009,3 hPa 0,0 l/m 7,2 km/h (2 Bft) N-NO 17 0 min 0,0 UV-I 18 W/m 2,6 C 4,9 C 14,5 km/h (3 Bft)
18.11.2019 15:30 5,6 C 81 % 1009,3 hPa 0,0 l/m 5,8 km/h (2 Bft) N 5 0 min 0,0 UV-I 18 W/m 2,6 C 5,6 C 12,9 km/h (3 Bft)
18.11.2019 15:29 5,6 C 81 % 1009,3 hPa 0,0 l/m 7,8 km/h (2 Bft) N-NW 345 0 min 0,0 UV-I 18 W/m 2,6 C 4,4 C 16,1 km/h (3 Bft)
18.11.2019 15:28 5,6 C 81 % 1009,3 hPa 0,0 l/m 3,7 km/h (1 Bft) N-NO 17 0 min 0,0 UV-I 20 W/m 2,6 C 5,6 C 4,8 km/h (1 Bft)
18.11.2019 15:27 5,6 C 81 % 1009,2 hPa 0,0 l/m 8,6 km/h (2 Bft) N-NW 342 0 min 0,0 UV-I 21 W/m 2,6 C 3,8 C 12,9 km/h (3 Bft)
18.11.2019 15:26 5,6 C 81 % 1009,3 hPa 0,0 l/m 9,5 km/h (2 Bft) N-NW 342 0 min 0,0 UV-I 20 W/m 2,6 C 3,1 C 12,9 km/h (3 Bft)
18.11.2019 15:25 5,5 C 82 % 1009,2 hPa 0,0 l/m 7,3 km/h (2 Bft) N-NW 339 0 min 0,0 UV-I 19 W/m 2,7 C 4,7 C 12,9 km/h (3 Bft)
18.11.2019 15:24 5,6 C 82 % 1009,3 hPa 0,0 l/m 6,7 km/h (2 Bft) N-NO 24 0 min 0,0 UV-I 18 W/m 2,8 C 5,4 C 9,7 km/h (2 Bft)
18.11.2019 15:23 5,6 C 82 % 1009,2 hPa 0,0 l/m 9,4 km/h (2 Bft) NO 48 0 min 0,0 UV-I 16 W/m 2,8 C 3,2 C 14,5 km/h (3 Bft)
18.11.2019 15:22 5,5 C 82 % 1009,2 hPa 0,0 l/m 5,6 km/h (1 Bft) N 355 0 min 0,0 UV-I 14 W/m 2,7 C 5,5 C 8,0 km/h (2 Bft)
18.11.2019 15:21 5,6 C 82 % 1009,2 hPa 0,0 l/m 0,9 km/h (0 Bft) N-NW 334 0 min 0,0 UV-I 14 W/m 2,8 C 5,6 C 6,4 km/h (2 Bft)
18.11.2019 15:20 5,6 C 82 % 1009,2 hPa 0,0 l/m 5,1 km/h (1 Bft) N-NW 342 0 min 0,0 UV-I 14 W/m 2,8 C 5,6 C 6,4 km/h (2 Bft)
18.11.2019 15:19 5,6 C 82 % 1009,2 hPa 0,0 l/m 0,0 km/h (0 Bft) N-NW 346 0 min 0,0 UV-I 16 W/m 2,8 C 5,6 C 0,0 km/h (0 Bft)
18.11.2019 15:18 5,6 C 82 % 1009,2 hPa 0,0 l/m 0,5 km/h (0 Bft) N-NW 342 0 min 0,0 UV-I 16 W/m 2,8 C 5,6 C 6,4 km/h (2 Bft)
18.11.2019 15:17 5,5 C 82 % 1009,2 hPa 0,0 l/m 10,5 km/h (2 Bft) N-NW 346 0 min 0,0 UV-I 18 W/m 2,7 C 2,3 C 12,9 km/h (3 Bft)
18.11.2019 15:16 5,5 C 82 % 1009,2 hPa 0,0 l/m 12,0 km/h (2 Bft) N-NW 340 0 min 0,0 UV-I 18 W/m 2,7 C 1,3 C 17,7 km/h (3 Bft)
18.11.2019 15:15 5,5 C 82 % 1009,2 hPa 0,0 l/m 0,9 km/h (0 Bft) N-NW 346 0 min 0,0 UV-I 20 W/m 2,7 C 5,5 C 9,7 km/h (2 Bft)
18.11.2019 15:14 5,5 C 82 % 1009,2 hPa 0,0 l/m 0,0 km/h (0 Bft) N-NW 329 0 min 0,0 UV-I 23 W/m 2,7 C 5,5 C 0,0 km/h (0 Bft)
18.11.2019 15:13 5,5 C 82 % 1009,1 hPa 0,0 l/m 5,1 km/h (1 Bft) N-NW 341 0 min 0,0 UV-I 25 W/m 2,7 C 5,5 C 8,0 km/h (2 Bft)
18.11.2019 15:12 5,5 C 82 % 1009,1 hPa 0,0 l/m 7,9 km/h (2 Bft) N 350 0 min 0,0 UV-I 25 W/m 2,7 C 4,2 C 9,7 km/h (2 Bft)
18.11.2019 15:11 5,5 C 82 % 1009,2 hPa 0,0 l/m 6,5 km/h (2 Bft) N 9 0 min 0,0 UV-I 25 W/m 2,7 C 5,4 C 8,0 km/h (2 Bft)
18.11.2019 15:10 5,5 C 82 % 1009,2 hPa 0,0 l/m 10,9 km/h (2 Bft) N-NW 345 0 min 0,0 UV-I 24 W/m 2,7 C 2,0 C 16,1 km/h (3 Bft)
18.11.2019 15:09 5,5 C 82 % 1009,2 hPa 0,0 l/m 7,8 km/h (2 Bft) N 360 0 min 0,0 UV-I 22 W/m 2,7 C 4,3 C 9,7 km/h (2 Bft)
18.11.2019 15:08 5,5 C 82 % 1009,2 hPa 0,0 l/m 5,2 km/h (1 Bft) N-NW 346 0 min 0,0 UV-I 21 W/m 2,7 C 5,5 C 9,7 km/h (2 Bft)
18.11.2019 15:07 5,5 C 83 % 1009,2 hPa 0,0 l/m 6,3 km/h (2 Bft) N-NW 340 0 min 0,0 UV-I 21 W/m 2,8 C 5,5 C 11,3 km/h (2 Bft)
18.11.2019 15:06 5,5 C 83 % 1009,1 hPa 0,0 l/m 0,4 km/h (0 Bft) N-NW 348 0 min 0,0 UV-I 21 W/m 2,8 C 5,5 C 4,8 km/h (1 Bft)
18.11.2019 15:05 5,5 C 82 % 1009,1 hPa 0,0 l/m 7,8 km/h (2 Bft) N 355 0 min 0,0 UV-I 24 W/m 2,7 C 4,3 C 12,9 km/h (3 Bft)
18.11.2019 15:04 5,5 C 83 % 1009,1 hPa 0,0 l/m 7,6 km/h (2 Bft) N-NW 344 0 min 0,0 UV-I 25 W/m 2,8 C 4,5 C 16,1 km/h (3 Bft)
18.11.2019 15:03 5,5 C 83 % 1009,1 hPa 0,0 l/m 2,8 km/h (1 Bft) NW 312 0 min 0,0 UV-I 26 W/m 2,8 C 5,5 C 4,8 km/h (1 Bft)
18.11.2019 15:02 5,5 C 83 % 1009,1 hPa 0,0 l/m 5,6 km/h (1 Bft) NW 323 0 min 0,0 UV-I 29 W/m 2,8 C 5,5 C 8,0 km/h (2 Bft)
18.11.2019 15:01 5,6 C 83 % 1009,1 hPa 0,0 l/m 6,5 km/h (2 Bft) N-NW 329 0 min 0,0 UV-I 34 W/m 2,9 C 5,5 C 8,0 km/h (2 Bft)
18.11.2019 15:00 5,6 C 83 % 1009,1 hPa 0,0 l/m 5,4 km/h (1 Bft) N-NO 16 0 min 0,0 UV-I 37 W/m 2,9 C 5,6 C 8,0 km/h (2 Bft)
18.11.2019 14:59 5,6 C 83 % 1009,1 hPa 0,0 l/m 5,9 km/h (2 Bft) N-NW 344 0 min 0,0 UV-I 40 W/m 2,9 C 5,6 C 8,0 km/h (2 Bft)
18.11.2019 14:58 5,6 C 83 % 1009,0 hPa 0,0 l/m 3,7 km/h (1 Bft) N-NW 347 0 min 0,0 UV-I 43 W/m 2,9 C 5,6 C 4,8 km/h (1 Bft)
18.11.2019 14:57 5,6 C 83 % 1009,1 hPa 0,0 l/m 5,7 km/h (1 Bft) N-NW 347 0 min 0,0 UV-I 41 W/m 2,9 C 5,6 C 8,0 km/h (2 Bft)
18.11.2019 14:56 5,6 C 83 % 1009,0 hPa 0,0 l/m 4,9 km/h (1 Bft) N 360 0 min 0,0 UV-I 37 W/m 2,9 C 5,6 C 6,4 km/h (2 Bft)
18.11.2019 14:55 5,6 C 83 % 1009,0 hPa 0,0 l/m 4,9 km/h (1 Bft) N-NW 346 0 min 0,0 UV-I 35 W/m 2,9 C 5,6 C 6,4 km/h (2 Bft)
18.11.2019 14:54 5,6 C 83 % 1009,0 hPa 0,0 l/m 6,3 km/h (2 Bft) N 360 0 min 0,0 UV-I 36 W/m 2,9 C 5,6 C 8,0 km/h (2 Bft)
18.11.2019 14:53 5,6 C 83 % 1009,0 hPa 0,0 l/m 4,0 km/h (1 Bft) N-NW 340 0 min 0,0 UV-I 40 W/m 2,9 C 5,6 C 4,8 km/h (1 Bft)
18.11.2019 14:52 5,6 C 82 % 1008,9 hPa 0,0 l/m 4,3 km/h (1 Bft) N-NW 337 0 min 0,0 UV-I 45 W/m 2,8 C 5,6 C 6,4 km/h (2 Bft)
18.11.2019 14:51 5,6 C 82 % 1009,0 hPa 0,0 l/m 7,1 km/h (2 Bft) N-NW 337 0 min 0,0 UV-I 54 W/m 2,8 C 5,0 C 14,5 km/h (3 Bft)
18.11.2019 14:50 5,6 C 82 % 1009,0 hPa 0,0 l/m 5,7 km/h (1 Bft) N 351 0 min 0,0 UV-I 60 W/m 2,8 C 5,6 C 9,7 km/h (2 Bft)
18.11.2019 14:49 5,6 C 83 % 1009,0 hPa 0,0 l/m 5,1 km/h (1 Bft) N-NW 346 0 min 0,0 UV-I 60 W/m 2,9 C 5,6 C 8,0 km/h (2 Bft)
18.11.2019 14:48 5,6 C 82 % 1009,0 hPa 0,0 l/m 4,2 km/h (1 Bft) N 10 0 min 0,0 UV-I 56 W/m 2,8 C 5,6 C 6,4 km/h (2 Bft)
18.11.2019 14:47 5,7 C 82 % 1009,0 hPa 0,0 l/m 3,7 km/h (1 Bft) N 360 0 min 0,0 UV-I 58 W/m 2,9 C 5,7 C 4,8 km/h (1 Bft)
18.11.2019 14:46 5,7 C 83 % 1009,0 hPa 0,0 l/m 4,9 km/h (1 Bft) N-NW 346 0 min 0,0 UV-I 64 W/m 3,0 C 5,7 C 6,4 km/h (2 Bft)
18.11.2019 14:45 5,7 C 82 % 1009,0 hPa 0,0 l/m 4,4 km/h (1 Bft) N-NW 346 0 min 0,0 UV-I 68 W/m 2,9 C 5,7 C 8,0 km/h (2 Bft)
18.11.2019 14:44 5,7 C 82 % 1008,9 hPa 0,0 l/m 4,5 km/h (1 Bft) N-NW 344 0 min 0,0 UV-I 70 W/m 2,9 C 5,7 C 6,4 km/h (2 Bft)
18.11.2019 14:43 5,6 C 82 % 1009,0 hPa 0,0 l/m 6,6 km/h (2 Bft) N 5 0 min 0,0 UV-I 78 W/m 2,8 C 5,4 C 8,0 km/h (2 Bft)
18.11.2019 14:42 5,6 C 82 % 1008,9 hPa 0,0 l/m 4,9 km/h (1 Bft) N-NO 21 0 min 0,0 UV-I 88 W/m 2,8 C 5,6 C 8,0 km/h (2 Bft)
18.11.2019 14:41 5,6 C 82 % 1008,9 hPa 0,0 l/m 4,6 km/h (1 Bft) N-NO 12 0 min 0,0 UV-I 96 W/m 2,8 C 5,6 C 9,7 km/h (2 Bft)
18.11.2019 14:40 5,6 C 83 % 1008,9 hPa 0,0 l/m 3,6 km/h (1 Bft) N-NO 12 0 min 0,0 UV-I 98 W/m 2,9 C 5,6 C 4,8 km/h (1 Bft)
18.11.2019 14:39 5,6 C 83 % 1008,9 hPa 0,0 l/m 3,9 km/h (1 Bft) N-NO 17 0 min 0,0 UV-I 96 W/m 2,9 C 5,6 C 6,4 km/h (2 Bft)
18.11.2019 14:38 5,6 C 83 % 1008,9 hPa 0,0 l/m 2,9 km/h (1 Bft) N-NW 333 0 min 0,0 UV-I 95 W/m 2,9 C 5,6 C 4,8 km/h (1 Bft)
18.11.2019 14:37 5,6 C 83 % 1008,9 hPa 0,0 l/m 2,6 km/h (1 Bft) N-NO 28 0 min 0,0 UV-I 116 W/m 2,9 C 5,6 C 6,4 km/h (2 Bft)
18.11.2019 14:36 5,5 C 83 % 1008,9 hPa 0,0 l/m 3,2 km/h (1 Bft) N-NW 342 1 min 0,0 UV-I 155 W/m 2,8 C 5,5 C 4,8 km/h (1 Bft)
18.11.2019 14:35 5,4 C 83 % 1008,9 hPa 0,0 l/m 3,7 km/h (1 Bft) N-NW 342 0 min 0,0 UV-I 101 W/m 2,7 C 5,4 C 4,8 km/h (1 Bft)
18.11.2019 14:34 5,4 C 83 % 1008,8 hPa 0,0 l/m 3,5 km/h (1 Bft) N 5 0 min 0,0 UV-I 74 W/m 2,7 C 5,4 C 4,8 km/h (1 Bft)
18.11.2019 14:33 5,4 C 83 % 1008,8 hPa 0,0 l/m 4,4 km/h (1 Bft) N 349 0 min 0,0 UV-I 67 W/m 2,7 C 5,4 C 6,4 km/h (2 Bft)
18.11.2019 14:32 5,3 C 83 % 1008,9 hPa 0,0 l/m 2,7 km/h (1 Bft) N-NO 30 0 min 0,0 UV-I 63 W/m 2,7 C 5,3 C 4,8 km/h (1 Bft)
18.11.2019 14:31 5,3 C 83 % 1008,8 hPa 0,0 l/m 4,8 km/h (1 Bft) N-NW 344 0 min 0,0 UV-I 63 W/m 2,7 C 5,3 C 6,4 km/h (2 Bft)
18.11.2019 14:30 5,3 C 83 % 1008,8 hPa 0,0 l/m 3,1 km/h (1 Bft) N-NW 345 0 min 0,0 UV-I 65 W/m 2,7 C 5,3 C 6,4 km/h (2 Bft)
18.11.2019 14:29 5,3 C 83 % 1008,8 hPa 0,0 l/m 1,7 km/h (1 Bft) N-NO 26 0 min 0,0 UV-I 66 W/m 2,7 C 5,3 C 3,2 km/h (1 Bft)
18.11.2019 14:28 5,3 C 83 % 1008,8 hPa 0,0 l/m 3,1 km/h (1 Bft) N-NO 26 0 min 0,0 UV-I 63 W/m 2,7 C 5,3 C 6,4 km/h (2 Bft)
18.11.2019 14:27 5,3 C 83 % 1008,8 hPa 0,0 l/m 2,9 km/h (1 Bft) N-NO 32 0 min 0,0 UV-I 62 W/m 2,7 C 5,3 C 4,8 km/h (1 Bft)
18.11.2019 14:26 5,3 C 83 % 1008,8 hPa 0,0 l/m 4,6 km/h (1 Bft) N-NO 32 0 min 0,0 UV-I 62 W/m 2,7 C 5,3 C 6,4 km/h (2 Bft)
18.11.2019 14:25 5,3 C 83 % 1008,8 hPa 0,0 l/m 5,4 km/h (1 Bft) NO 37 0 min 0,0 UV-I 60 W/m 2,7 C 5,3 C 6,4 km/h (2 Bft)
18.11.2019 14:24 5,3 C 83 % 1008,8 hPa 0,0 l/m 5,2 km/h (1 Bft) NO 39 0 min 0,0 UV-I 55 W/m 2,7 C 5,3 C 6,4 km/h (2 Bft)
18.11.2019 14:23 5,3 C 83 % 1008,7 hPa 0,0 l/m 5,1 km/h (1 Bft) N 5 0 min 0,0 UV-I 58 W/m 2,7 C 5,3 C 6,4 km/h (2 Bft)
18.11.2019 14:22 5,2 C 83 % 1008,7 hPa 0,0 l/m 4,0 km/h (1 Bft) N-NO 32 0 min 0,0 UV-I 62 W/m 2,6 C 5,2 C 4,8 km/h (1 Bft)
18.11.2019 14:21 5,2 C 83 % 1008,7 hPa 0,0 l/m 2,7 km/h (1 Bft) N-NO 16 0 min 0,0 UV-I 63 W/m 2,6 C 5,2 C 3,2 km/h (1 Bft)
18.11.2019 14:20 5,2 C 83 % 1008,7 hPa 0,0 l/m 2,9 km/h (1 Bft) N-NO 16 0 min 0,0 UV-I 60 W/m 2,6 C 5,2 C 4,8 km/h (1 Bft)
18.11.2019 14:19 5,2 C 83 % 1008,6 hPa 0,0 l/m 4,1 km/h (1 Bft) N-NO 16 0 min 0,0 UV-I 60 W/m 2,6 C 5,2 C 6,4 km/h (2 Bft)
18.11.2019 14:18 5,2 C 83 % 1008,6 hPa 0,0 l/m 4,8 km/h (1 Bft) N 355 0 min 0,0 UV-I 61 W/m 2,6 C 5,2 C 6,4 km/h (2 Bft)
18.11.2019 14:17 5,2 C 83 % 1008,7 hPa 0,0 l/m 4,3 km/h (1 Bft) N 350 0 min 0,0 UV-I 62 W/m 2,6 C 5,2 C 6,4 km/h (2 Bft)
18.11.2019 14:16 5,2 C 83 % 1008,7 hPa 0,0 l/m 3,1 km/h (1 Bft) N 5 0 min 0,0 UV-I 60 W/m 2,6 C 5,2 C 4,8 km/h (1 Bft)
18.11.2019 14:15 5,2 C 83 % 1008,7 hPa 0,0 l/m 4,8 km/h (1 Bft) N 355 0 min 0,0 UV-I 52 W/m 2,6 C 5,2 C 6,4 km/h (2 Bft)
18.11.2019 14:14 5,2 C 83 % 1008,6 hPa 0,0 l/m 4,8 km/h (1 Bft) N 9 0 min 0,0 UV-I 41 W/m 2,6 C 5,2 C 6,4 km/h (2 Bft)
18.11.2019 14:13 5,2 C 83 % 1008,6 hPa 0,0 l/m 2,7 km/h (1 Bft) N-NO 30 0 min 0,0 UV-I 31 W/m 2,6 C 5,2 C 4,8 km/h (1 Bft)
18.11.2019 14:12 5,2 C 83 % 1008,6 hPa 0,0 l/m 3,2 km/h (1 Bft) N-NW 338 0 min 0,0 UV-I 26 W/m 2,6 C 5,2 C 6,4 km/h (2 Bft)
18.11.2019 14:11 5,2 C 83 % 1008,7 hPa 0,0 l/m 5,7 km/h (1 Bft) N-NW 344 0 min 0,0 UV-I 26 W/m 2,6 C 5,2 C 8,0 km/h (2 Bft)
18.11.2019 14:10 5,2 C 83 % 1008,7 hPa 0,0 l/m 4,6 km/h (1 Bft) N-NW 346 0 min 0,0 UV-I 28 W/m 2,6 C 5,2 C 6,4 km/h (2 Bft)
18.11.2019 14:09 5,2 C 83 % 1008,6 hPa 0,0 l/m 4,2 km/h (1 Bft) N 355 0 min 0,0 UV-I 30 W/m 2,6 C 5,2 C 6,4 km/h (2 Bft)
18.11.2019 14:08 5,2 C 83 % 1008,6 hPa 0,0 l/m 5,4 km/h (1 Bft) N 355 0 min 0,0 UV-I 32 W/m 2,6 C 5,2 C 6,4 km/h (2 Bft)
18.11.2019 14:07 5,2 C 84 % 1008,6 hPa 0,0 l/m 3,8 km/h (1 Bft) N 355 0 min 0,0 UV-I 33 W/m 2,7 C 5,2 C 6,4 km/h (2 Bft)
18.11.2019 14:06 5,2 C 83 % 1008,6 hPa 0,0 l/m 3,4 km/h (1 Bft) N 355 0 min 0,0 UV-I 34 W/m 2,6 C 5,2 C 4,8 km/h (1 Bft)
18.11.2019 14:05 5,2 C 83 % 1008,6 hPa 0,0 l/m 3,4 km/h (1 Bft) N 355 0 min 0,0 UV-I 35 W/m 2,6 C 5,2 C 4,8 km/h (1 Bft)
18.11.2019 14:04 5,2 C 83 % 1008,7 hPa 0,0 l/m 3,4 km/h (1 Bft) N 355 0 min 0,0 UV-I 35 W/m 2,6 C 5,2 C 4,8 km/h (1 Bft)
18.11.2019 14:03 5,2 C 83 % 1008,7 hPa 0,0 l/m 2,4 km/h (1 Bft) N 5 0 min 0,0 UV-I 37 W/m 2,6 C 5,2 C 3,2 km/h (1 Bft)
18.11.2019 14:02 5,2 C 83 % 1008,7 hPa 0,0 l/m 3,2 km/h (1 Bft) N 5 0 min 0,0 UV-I 37 W/m 2,6 C 5,2 C 4,8 km/h (1 Bft)
18.11.2019 14:01 5,2 C 83 % 1008,7 hPa 0,0 l/m 2,3 km/h (1 Bft) N-NO 15 0 min 0,0 UV-I 39 W/m 2,6 C 5,2 C 4,8 km/h (1 Bft)
18.11.2019 14:00 5,2 C 83 % 1008,7 hPa 0,0 l/m 5,9 km/h (2 Bft) N-NO 19 0 min 0,0 UV-I 40 W/m 2,6 C 5,2 C 8,0 km/h (2 Bft)
18.11.2019 13:59 5,2 C 83 % 1008,6 hPa 0,0 l/m 4,7 km/h (1 Bft) N 360 0 min 0,0 UV-I 39 W/m 2,6 C 5,2 C 6,4 km/h (2 Bft)
18.11.2019 13:58 5,2 C 83 % 1008,6 hPa 0,0 l/m 3,5 km/h (1 Bft) N 360 0 min 0,0 UV-I 36 W/m 2,6 C 5,2 C 4,8 km/h (1 Bft)
18.11.2019 13:57 5,2 C 83 % 1008,6 hPa 0,0 l/m 1,1 km/h (1 Bft) N 360 0 min 0,0 UV-I 33 W/m 2,6 C 5,2 C 1,6 km/h (1 Bft)
18.11.2019 13:56 5,2 C 83 % 1008,6 hPa 0,0 l/m 2,3 km/h (1 Bft) N 360 0 min 0,0 UV-I 32 W/m 2,6 C 5,2 C 4,8 km/h (1 Bft)
18.11.2019 13:55 5,2 C 83 % 1008,7 hPa 0,0 l/m 4,0 km/h (1 Bft) N 360 0 min 0,0 UV-I 32 W/m 2,6 C 5,2 C 4,8 km/h (1 Bft)
18.11.2019 13:54 5,2 C 82 % 1008,7 hPa 0,0 l/m 4,7 km/h (1 Bft) N 360 0 min 0,0 UV-I 32 W/m 2,4 C 5,2 C 6,4 km/h (2 Bft)
18.11.2019 13:53 5,2 C 82 % 1008,7 hPa 0,0 l/m 5,9 km/h (2 Bft) N-NO 18 0 min 0,0 UV-I 32 W/m 2,4 C 5,2 C 9,7 km/h (2 Bft)
18.11.2019 13:52 5,2 C 82 % 1008,7 hPa 0,0 l/m 3,3 km/h (1 Bft) N-NO 30 0 min 0,0 UV-I 33 W/m 2,4 C 5,2 C 4,8 km/h (1 Bft)
18.11.2019 13:51 5,2 C 82 % 1008,6 hPa 0,0 l/m 3,2 km/h (1 Bft) N-NO 33 0 min 0,0 UV-I 35 W/m 2,4 C 5,2 C 4,8 km/h (1 Bft)
18.11.2019 13:50 5,2 C 82 % 1008,6 hPa 0,0 l/m 4,1 km/h (1 Bft) N-NO 33 0 min 0,0 UV-I 36 W/m 2,4 C 5,2 C 6,4 km/h (2 Bft)
18.11.2019 13:49 5,2 C 82 % 1008,6 hPa 0,0 l/m 6,3 km/h (2 Bft) NO 48 0 min 0,0 UV-I 33 W/m 2,4 C 5,2 C 8,0 km/h (2 Bft)
18.11.2019 13:48 5,2 C 83 % 1008,7 hPa 0,0 l/m 5,9 km/h (2 Bft) N-NO 30 0 min 0,0 UV-I 27 W/m 2,6 C 5,2 C 8,0 km/h (2 Bft)
18.11.2019 13:47 5,2 C 83 % 1008,7 hPa 0,0 l/m 5,5 km/h (1 Bft) N 5 0 min 0,0 UV-I 24 W/m 2,6 C 5,2 C 6,4 km/h (2 Bft)
18.11.2019 13:46 5,2 C 83 % 1008,7 hPa 0,0 l/m 3,3 km/h (1 Bft) NO 52 0 min 0,0 UV-I 23 W/m 2,6 C 5,2 C 4,8 km/h (1 Bft)
18.11.2019 13:45 5,2 C 83 % 1008,7 hPa 0,0 l/m 3,3 km/h (1 Bft) N-NO 15 0 min 0,0 UV-I 25 W/m 2,6 C 5,2 C 4,8 km/h (1 Bft)
18.11.2019 13:44 5,2 C 83 % 1008,7 hPa 0,0 l/m 3,6 km/h (1 Bft) N-NO 15 0 min 0,0 UV-I 26 W/m 2,6 C 5,2 C 6,4 km/h (2 Bft)
18.11.2019 13:43 5,2 C 82 % 1008,7 hPa 0,0 l/m 5,0 km/h (1 Bft) N-NO 25 0 min 0,0 UV-I 25 W/m 2,4 C 5,2 C 8,0 km/h (2 Bft)
18.11.2019 13:42 5,2 C 83 % 1008,7 hPa 0,0 l/m 7,0 km/h (2 Bft) N 11 0 min 0,0 UV-I 25 W/m 2,6 C 4,7 C 8,0 km/h (2 Bft)
18.11.2019 13:41 5,2 C 83 % 1008,7 hPa 0,0 l/m 7,4 km/h (2 Bft) NO 44 0 min 0,0 UV-I 25 W/m 2,6 C 4,3 C 11,3 km/h (2 Bft)
18.11.2019 13:40 5,2 C 83 % 1008,7 hPa 0,0 l/m 9,7 km/h (2 Bft) N-NO 30 0 min 0,0 UV-I 25 W/m 2,6 C 2,5 C 16,1 km/h (3 Bft)
18.11.2019 13:39 5,2 C 83 % 1008,7 hPa 0,0 l/m 4,6 km/h (1 Bft) N-NO 13 0 min 0,0 UV-I 27 W/m 2,6 C 5,2 C 11,3 km/h (2 Bft)
18.11.2019 13:38 5,2 C 83 % 1008,8 hPa 0,0 l/m 3,8 km/h (1 Bft) N 5 0 min 0,0 UV-I 31 W/m 2,6 C 5,2 C 4,8 km/h (1 Bft)
18.11.2019 13:37 5,2 C 83 % 1008,8 hPa 0,0 l/m 5,6 km/h (1 Bft) N 9 0 min 0,0 UV-I 32 W/m 2,6 C 5,2 C 11,3 km/h (2 Bft)
18.11.2019 13:36 5,2 C 83 % 1008,7 hPa 0,0 l/m 3,6 km/h (1 Bft) O-NO 73 0 min 0,0 UV-I 33 W/m 2,6 C 5,2 C 6,4 km/h (2 Bft)
18.11.2019 13:35 5,2 C 83 % 1008,7 hPa 0,0 l/m 8,3 km/h (2 Bft) NO 39 0 min 0,0 UV-I 32 W/m 2,6 C 3,6 C 12,9 km/h (3 Bft)
18.11.2019 13:34 5,2 C 83 % 1008,7 hPa 0,0 l/m 6,5 km/h (2 Bft) NO 34 0 min 0,0 UV-I 32 W/m 2,6 C 5,1 C 9,7 km/h (2 Bft)
18.11.2019 13:33 5,2 C 83 % 1008,8 hPa 0,0 l/m 2,5 km/h (1 Bft) NO 44 0 min 0,0 UV-I 32 W/m 2,6 C 5,2 C 4,8 km/h (1 Bft)
18.11.2019 13:32 5,2 C 83 % 1008,7 hPa 0,0 l/m 4,6 km/h (1 Bft) NO 49 0 min 0,0 UV-I 32 W/m 2,6 C 5,2 C 6,4 km/h (2 Bft)
18.11.2019 13:31 5,2 C 83 % 1008,7 hPa 0,0 l/m 4,6 km/h (1 Bft) O-NO 74 0 min 0,0 UV-I 32 W/m 2,6 C 5,2 C 6,4 km/h (2 Bft)
18.11.2019 13:30 5,2 C 83 % 1008,6 hPa 0,0 l/m 4,8 km/h (1 Bft) N-NO 28 0 min 0,0 UV-I 33 W/m 2,6 C 5,2 C 6,4 km/h (2 Bft)
18.11.2019 13:29 5,2 C 83 % 1008,6 hPa 0,0 l/m 6,0 km/h (2 Bft) NO 36 0 min 0,0 UV-I 33 W/m 2,6 C 5,2 C 8,0 km/h (2 Bft)
18.11.2019 13:28 5,2 C 83 % 1008,6 hPa 0,0 l/m 9,2 km/h (2 Bft) NO 50 0 min 0,0 UV-I 33 W/m 2,6 C 2,9 C 14,5 km/h (3 Bft)
18.11.2019 13:27 5,2 C 84 % 1008,6 hPa 0,0 l/m 6,6 km/h (2 Bft) O 88 0 min 0,0 UV-I 35 W/m 2,7 C 5,0 C 8,0 km/h (2 Bft)
18.11.2019 13:26 5,3 C 84 % 1008,7 hPa 0,0 l/m 8,0 km/h (2 Bft) N-NO 16 0 min 0,0 UV-I 37 W/m 2,8 C 3,9 C 12,9 km/h (3 Bft)
18.11.2019 13:25 5,3 C 84 % 1008,6 hPa 0,0 l/m 7,2 km/h (2 Bft) NO 53 0 min 0,0 UV-I 38 W/m 2,8 C 4,6 C 16,1 km/h (3 Bft)
18.11.2019 13:24 5,3 C 84 % 1008,6 hPa 0,0 l/m 7,0 km/h (2 Bft) O-NO 67 0 min 0,0 UV-I 39 W/m 2,8 C 4,8 C 8,0 km/h (2 Bft)
18.11.2019 13:23 5,3 C 84 % 1008,6 hPa 0,0 l/m 5,7 km/h (1 Bft) NO 36 0 min 0,0 UV-I 36 W/m 2,8 C 5,3 C 14,5 km/h (3 Bft)
18.11.2019 13:22 5,3 C 84 % 1008,6 hPa 0,0 l/m 6,4 km/h (2 Bft) O-NO 76 0 min 0,0 UV-I 29 W/m 2,8 C 5,3 C 9,7 km/h (2 Bft)
18.11.2019 13:21 5,3 C 84 % 1008,6 hPa 0,0 l/m 8,4 km/h (2 Bft) O 96 0 min 0,0 UV-I 26 W/m 2,8 C 3,6 C 14,5 km/h (3 Bft)
18.11.2019 13:20 5,3 C 84 % 1008,6 hPa 0,0 l/m 8,3 km/h (2 Bft) N-NO 15 0 min 0,0 UV-I 26 W/m 2,8 C 3,7 C 12,9 km/h (3 Bft)
18.11.2019 13:19 5,3 C 84 % 1008,6 hPa 0,0 l/m 9,1 km/h (2 Bft) NO 39 0 min 0,0 UV-I 26 W/m 2,8 C 3,1 C 12,9 km/h (3 Bft)
18.11.2019 13:18 5,3 C 84 % 1008,6 hPa 0,0 l/m 6,4 km/h (2 Bft) N-NO 19 0 min 0,0 UV-I 25 W/m 2,8 C 5,3 C 8,0 km/h (2 Bft)
18.11.2019 13:17 5,3 C 84 % 1008,6 hPa 0,0 l/m 7,5 km/h (2 Bft) O-NO 65 0 min 0,0 UV-I 23 W/m 2,8 C 4,3 C 11,3 km/h (2 Bft)
18.11.2019 13:16 5,4 C 84 % 1008,6 hPa 0,0 l/m 7,2 km/h (2 Bft) NO 46 0 min 0,0 UV-I 21 W/m 2,9 C 4,7 C 12,9 km/h (3 Bft)
18.11.2019 13:15 5,4 C 84 % 1008,6 hPa 0,0 l/m 2,9 km/h (1 Bft) O-NO 60 0 min 0,0 UV-I 22 W/m 2,9 C 5,4 C 11,3 km/h (2 Bft)
18.11.2019 13:14 5,4 C 84 % 1008,6 hPa 0,0 l/m 0,1 km/h (0 Bft) O-NO 64 0 min 0,0 UV-I 24 W/m 2,9 C 5,4 C 1,6 km/h (1 Bft)
18.11.2019 13:13 5,4 C 84 % 1008,6 hPa 0,0 l/m 4,6 km/h (1 Bft) NO 52 0 min 0,0 UV-I 26 W/m 2,9 C 5,4 C 9,7 km/h (2 Bft)
18.11.2019 13:12 5,4 C 84 % 1008,6 hPa 0,0 l/m 5,2 km/h (1 Bft) N-NO 22 0 min 0,0 UV-I 26 W/m 2,9 C 5,4 C 6,4 km/h (2 Bft)
18.11.2019 13:11 5,4 C 84 % 1008,6 hPa 0,0 l/m 6,6 km/h (2 Bft) NO 34 0 min 0,0 UV-I 26 W/m 2,9 C 5,2 C 9,7 km/h (2 Bft)
18.11.2019 13:10 5,4 C 84 % 1008,6 hPa 0,0 l/m 8,6 km/h (2 Bft) O-NO 63 0 min 0,0 UV-I 28 W/m 2,9 C 3,5 C 12,9 km/h (3 Bft)
18.11.2019 13:09 5,4 C 84 % 1008,6 hPa 0,0 l/m 4,3 km/h (1 Bft) O 92 0 min 0,0 UV-I 29 W/m 2,9 C 5,4 C 4,8 km/h (1 Bft)
18.11.2019 13:08 5,4 C 84 % 1008,6 hPa 0,0 l/m 6,9 km/h (2 Bft) NO 56 0 min 0,0 UV-I 27 W/m 2,9 C 5,0 C 8,0 km/h (2 Bft)
18.11.2019 13:07 5,4 C 84 % 1008,6 hPa 0,0 l/m 8,2 km/h (2 Bft) N-NO 29 0 min 0,0 UV-I 24 W/m 2,9 C 3,9 C 12,9 km/h (3 Bft)
18.11.2019 13:06 5,4 C 85 % 1008,6 hPa 0,0 l/m 7,0 km/h (2 Bft) N 360 0 min 0,0 UV-I 23 W/m 3,1 C 4,9 C 8,0 km/h (2 Bft)
18.11.2019 13:05 5,5 C 85 % 1008,6 hPa 0,0 l/m 4,8 km/h (1 Bft) O-NO 71 0 min 0,0 UV-I 25 W/m 3,2 C 5,5 C 11,3 km/h (2 Bft)
18.11.2019 13:04 5,5 C 85 % 1008,5 hPa 0,0 l/m 0,0 km/h (0 Bft) O-NO 61 0 min 0,0 UV-I 25 W/m 3,2 C 5,5 C 0,0 km/h (0 Bft)
18.11.2019 13:03 5,5 C 85 % 1008,5 hPa 0,0 l/m 0,1 km/h (0 Bft) O-NO 74 0 min 0,0 UV-I 25 W/m 3,2 C 5,5 C 3,2 km/h (1 Bft)
18.11.2019 13:02 5,5 C 85 % 1008,6 hPa 0,0 l/m 6,3 km/h (2 Bft) O-NO 74 0 min 0,0 UV-I 25 W/m 3,2 C 5,5 C 8,0 km/h (2 Bft)
18.11.2019 13:01 5,5 C 85 % 1008,6 hPa 0,0 l/m 5,0 km/h (1 Bft) O-NO 67 0 min 0,0 UV-I 26 W/m 3,2 C 5,5 C 6,4 km/h (2 Bft)
18.11.2019 13:00 5,5 C 85 % 1008,6 hPa 0,0 l/m 3,6 km/h (1 Bft) O-NO 59 0 min 0,0 UV-I 27 W/m 3,2 C 5,5 C 6,4 km/h (2 Bft)
18.11.2019 12:59 5,5 C 85 % 1008,6 hPa 0,0 l/m 4,8 km/h (1 Bft) N-NO 28 0 min 0,0 UV-I 26 W/m 3,2 C 5,5 C 6,4 km/h (2 Bft)
18.11.2019 12:58 5,5 C 85 % 1008,6 hPa 0,0 l/m 8,8 km/h (2 Bft) N-NO 22 0 min 0,0 UV-I 26 W/m 3,2 C 3,5 C 11,3 km/h (2 Bft)
18.11.2019 12:57 5,5 C 85 % 1008,5 hPa 0,0 l/m 4,1 km/h (1 Bft) O-NO 60 0 min 0,0 UV-I 27 W/m 3,2 C 5,5 C 8,0 km/h (2 Bft)
18.11.2019 12:56 5,5 C 85 % 1008,5 hPa 0,0 l/m 4,0 km/h (1 Bft) NO 40 0 min 0,0 UV-I 29 W/m 3,2 C 5,5 C 4,8 km/h (1 Bft)
18.11.2019 12:55 5,5 C 85 % 1008,5 hPa 0,0 l/m 5,0 km/h (1 Bft) NO 55 0 min 0,0 UV-I 31 W/m 3,2 C 5,5 C 9,7 km/h (2 Bft)
18.11.2019 12:54 5,5 C 85 % 1008,5 hPa 0,0 l/m 7,9 km/h (2 Bft) NO 34 0 min 0,0 UV-I 34 W/m 3,2 C 4,2 C 11,3 km/h (2 Bft)
18.11.2019 12:53 5,5 C 85 % 1008,4 hPa 0,0 l/m 7,0 km/h (2 Bft) NO 42 0 min 0,0 UV-I 39 W/m 3,2 C 5,0 C 11,3 km/h (2 Bft)
18.11.2019 12:52 5,5 C 85 % 1008,4 hPa 0,0 l/m 3,7 km/h (1 Bft) N-NO 19 0 min 0,0 UV-I 39 W/m 3,2 C 5,5 C 4,8 km/h (1 Bft)
18.11.2019 12:51 5,5 C 85 % 1008,4 hPa 0,0 l/m 5,4 km/h (1 Bft) N 5 0 min 0,0 UV-I 39 W/m 3,2 C 5,5 C 9,7 km/h (2 Bft)
18.11.2019 12:50 5,5 C 85 % 1008,4 hPa 0,0 l/m 0,7 km/h (0 Bft) N 5 0 min 0,0 UV-I 40 W/m 3,2 C 5,5 C 4,8 km/h (1 Bft)
18.11.2019 12:49 5,5 C 85 % 1008,4 hPa 0,0 l/m 6,3 km/h (2 Bft) N 360 0 min 0,0 UV-I 38 W/m 3,2 C 5,5 C 8,0 km/h (2 Bft)
18.11.2019 12:48 5,5 C 85 % 1008,3 hPa 0,0 l/m 4,7 km/h (1 Bft) NO 50 0 min 0,0 UV-I 37 W/m 3,2 C 5,5 C 9,7 km/h (2 Bft)
18.11.2019 12:47 5,5 C 85 % 1008,3 hPa 0,0 l/m 7,4 km/h (2 Bft) N-NO 24 0 min 0,0 UV-I 37 W/m 3,2 C 4,6 C 11,3 km/h (2 Bft)
18.11.2019 12:46 5,5 C 85 % 1008,3 hPa 0,0 l/m 8,4 km/h (2 Bft) N-NO 15 0 min 0,0 UV-I 37 W/m 3,2 C 3,8 C 12,9 km/h (3 Bft)
18.11.2019 12:45 5,5 C 85 % 1008,3 hPa 0,0 l/m 8,6 km/h (2 Bft) N 5 0 min 0,0 UV-I 39 W/m 3,2 C 3,7 C 12,9 km/h (3 Bft)
18.11.2019 12:44 5,5 C 85 % 1008,3 hPa 0,0 l/m 4,1 km/h (1 Bft) N 5 0 min 0,0 UV-I 41 W/m 3,2 C 5,5 C 9,7 km/h (2 Bft)
18.11.2019 12:43 5,5 C 86 % 1008,3 hPa 0,0 l/m 2,5 km/h (1 Bft) N-NW 340 0 min 0,0 UV-I 42 W/m 3,3 C 5,5 C 6,4 km/h (2 Bft)
18.11.2019 12:42 5,6 C 86 % 1008,3 hPa 0,0 l/m 0,0 km/h (0 Bft) N 5 0 min 0,0 UV-I 40 W/m 3,4 C 5,6 C 0,0 km/h (0 Bft)
18.11.2019 12:41 5,5 C 86 % 1008,3 hPa 0,0 l/m 0,0 km/h (0 Bft) N-NO 22 0 min 0,0 UV-I 40 W/m 3,3 C 5,5 C 0,0 km/h (0 Bft)
18.11.2019 12:40 5,5 C 85 % 1008,2 hPa 0,0 l/m 4,5 km/h (1 Bft) N 9 0 min 0,0 UV-I 45 W/m 3,2 C 5,5 C 8,0 km/h (2 Bft)
18.11.2019 12:39 5,5 C 85 % 1008,2 hPa 0,0 l/m 7,5 km/h (2 Bft) N 9 0 min 0,0 UV-I 48 W/m 3,2 C 4,5 C 9,7 km/h (2 Bft)
18.11.2019 12:38 5,5 C 85 % 1008,2 hPa 0,0 l/m 8,6 km/h (2 Bft) N 355 0 min 0,0 UV-I 52 W/m 3,2 C 3,7 C 14,5 km/h (3 Bft)
18.11.2019 12:37 5,5 C 86 % 1008,2 hPa 0,0 l/m 6,9 km/h (2 Bft) N-NO 30 0 min 0,0 UV-I 56 W/m 3,3 C 5,1 C 14,5 km/h (3 Bft)
18.11.2019 12:36 5,5 C 86 % 1008,2 hPa 0,0 l/m 10,0 km/h (2 Bft) N 360 0 min 0,0 UV-I 64 W/m 3,3 C 2,6 C 14,5 km/h (3 Bft)
18.11.2019 12:35 5,5 C 86 % 1008,2 hPa 0,0 l/m 7,6 km/h (2 Bft) N-NO 19 0 min 0,0 UV-I 74 W/m 3,3 C 4,5 C 16,1 km/h (3 Bft)
18.11.2019 12:34 5,6 C 86 % 1008,2 hPa 0,0 l/m 5,4 km/h (1 Bft) N-NO 33 0 min 0,0 UV-I 77 W/m 3,4 C 5,6 C 9,7 km/h (2 Bft)
18.11.2019 12:33 5,5 C 86 % 1008,2 hPa 0,0 l/m 2,7 km/h (1 Bft) N-NO 17 0 min 0,0 UV-I 78 W/m 3,3 C 5,5 C 6,4 km/h (2 Bft)
18.11.2019 12:32 5,4 C 86 % 1008,2 hPa 0,0 l/m 7,1 km/h (2 Bft) NO 42 0 min 0,0 UV-I 80 W/m 3,3 C 4,8 C 9,7 km/h (2 Bft)
18.11.2019 12:31 5,5 C 86 % 1008,1 hPa 0,0 l/m 4,8 km/h (1 Bft) NO 39 0 min 0,0 UV-I 82 W/m 3,3 C 5,5 C 8,0 km/h (2 Bft)
18.11.2019 12:30 5,5 C 86 % 1008,2 hPa 0,0 l/m 5,1 km/h (1 Bft) N 360 0 min 0,0 UV-I 83 W/m 3,3 C 5,5 C 9,7 km/h (2 Bft)
18.11.2019 12:29 5,5 C 86 % 1008,1 hPa 0,0 l/m 7,9 km/h (2 Bft) N-NO 20 0 min 0,0 UV-I 77 W/m 3,3 C 4,2 C 14,5 km/h (3 Bft)
18.11.2019 12:28 5,5 C 86 % 1008,2 hPa 0,0 l/m 6,7 km/h (2 Bft) NO 46 0 min 0,0 UV-I 72 W/m 3,3 C 5,3 C 9,7 km/h (2 Bft)
18.11.2019 12:27 5,5 C 86 % 1008,1 hPa 0,0 l/m 8,4 km/h (2 Bft) N-NO 13 0 min 0,0 UV-I 76 W/m 3,3 C 3,8 C 12,9 km/h (3 Bft)
18.11.2019 12:26 5,5 C 86 % 1008,1 hPa 0,0 l/m 8,6 km/h (2 Bft) N 5 0 min 0,0 UV-I 77 W/m 3,3 C 3,7 C 14,5 km/h (3 Bft)
18.11.2019 12:25 5,6 C 87 % 1008,1 hPa 0,0 l/m 7,7 km/h (2 Bft) N-NO 22 0 min 0,0 UV-I 75 W/m 3,6 C 4,5 C 12,9 km/h (3 Bft)
18.11.2019 12:24 5,6 C 87 % 1008,1 hPa 0,0 l/m 6,0 km/h (2 Bft) N 355 0 min 0,0 UV-I 68 W/m 3,6 C 5,6 C 12,9 km/h (3 Bft)
18.11.2019 12:23 5,6 C 87 % 1008,1 hPa 0,0 l/m 7,3 km/h (2 Bft) N 9 0 min 0,0 UV-I 63 W/m 3,6 C 4,8 C 12,9 km/h (3 Bft)
18.11.2019 12:22 5,6 C 87 % 1008,2 hPa 0,0 l/m 3,1 km/h (1 Bft) N-NO 27 0 min 0,0 UV-I 63 W/m 3,6 C 5,6 C 4,8 km/h (1 Bft)
18.11.2019 12:21 5,6 C 87 % 1008,2 hPa 0,0 l/m 3,9 km/h (1 Bft) O-NO 58 0 min 0,0 UV-I 62 W/m 3,6 C 5,6 C 9,7 km/h (2 Bft)
18.11.2019 12:20 5,6 C 87 % 1008,2 hPa 0,0 l/m 2,2 km/h (1 Bft) N-NO 27 0 min 0,0 UV-I 64 W/m 3,6 C 5,6 C 4,8 km/h (1 Bft)
18.11.2019 12:19 5,6 C 88 % 1008,2 hPa 0,0 l/m 1,7 km/h (1 Bft) O-NO 71 0 min 0,0 UV-I 72 W/m 3,8 C 5,6 C 4,8 km/h (1 Bft)
18.11.2019 12:18 5,6 C 88 % 1008,2 hPa 0,0 l/m 4,0 km/h (1 Bft) N-NO 32 0 min 0,0 UV-I 80 W/m 3,8 C 5,6 C 6,4 km/h (2 Bft)
18.11.2019 12:17 5,6 C 88 % 1008,2 hPa 0,0 l/m 0,0 km/h (0 Bft) N 5 0 min 0,0 UV-I 91 W/m 3,8 C 5,6 C 0,0 km/h (0 Bft)
18.11.2019 12:16 5,6 C 88 % 1008,2 hPa 0,0 l/m 1,9 km/h (1 Bft) NO 36 0 min 0,0 UV-I 101 W/m 3,8 C 5,6 C 4,8 km/h (1 Bft)
18.11.2019 12:15 5,6 C 88 % 1008,2 hPa 0,0 l/m 1,0 km/h (0 Bft) NO 40 0 min 0,0 UV-I 112 W/m 3,8 C 5,6 C 4,8 km/h (1 Bft)
18.11.2019 12:14 5,6 C 88 % 1008,2 hPa 0,0 l/m 4,5 km/h (1 Bft) NO 36 0 min 0,0 UV-I 128 W/m 3,8 C 5,6 C 8,0 km/h (2 Bft)
18.11.2019 12:13 5,5 C 88 % 1008,2 hPa 0,0 l/m 2,6 km/h (1 Bft) N-NW 348 0 min 0,0 UV-I 144 W/m 3,7 C 5,5 C 6,4 km/h (2 Bft)
18.11.2019 12:12 5,5 C 88 % 1008,2 hPa 0,0 l/m 3,9 km/h (1 Bft) N 9 0 min 0,0 UV-I 154 W/m 3,7 C 5,5 C 4,8 km/h (1 Bft)
18.11.2019 12:11 5,4 C 88 % 1008,2 hPa 0,0 l/m 3,3 km/h (1 Bft) N-NO 28 0 min 0,0 UV-I 160 W/m 3,6 C 5,4 C 4,8 km/h (1 Bft)
18.11.2019 12:10 5,4 C 88 % 1008,3 hPa 0,0 l/m 1,1 km/h (1 Bft) NO 38 0 min 0,0 UV-I 155 W/m 3,6 C 5,4 C 4,8 km/h (1 Bft)
18.11.2019 12:09 5,4 C 88 % 1008,3 hPa 0,0 l/m 0,3 km/h (0 Bft) N-NO 31 0 min 0,0 UV-I 141 W/m 3,6 C 5,4 C 1,6 km/h (1 Bft)
18.11.2019 12:08 5,4 C 88 % 1008,3 hPa 0,0 l/m 2,1 km/h (1 Bft) N-NO 31 0 min 0,0 UV-I 120 W/m 3,6 C 5,4 C 6,4 km/h (2 Bft)
18.11.2019 12:07 5,4 C 88 % 1008,4 hPa 0,0 l/m 5,1 km/h (1 Bft) N-NW 344 0 min 0,0 UV-I 115 W/m 3,6 C 5,4 C 6,4 km/h (2 Bft)
18.11.2019 12:06 5,4 C 89 % 1008,4 hPa 0,0 l/m 1,6 km/h (1 Bft) NO 38 0 min 0,0 UV-I 119 W/m 3,7 C 5,4 C 6,4 km/h (2 Bft)
18.11.2019 12:05 5,4 C 89 % 1008,4 hPa 0,0 l/m 0,0 km/h (0 Bft) NO 38 0 min 0,0 UV-I 100 W/m 3,7 C 5,4 C 0,0 km/h (0 Bft)
18.11.2019 12:04 5,4 C 89 % 1008,4 hPa 0,0 l/m 0,0 km/h (0 Bft) NO 38 0 min 0,0 UV-I 92 W/m 3,7 C 5,4 C 0,0 km/h (0 Bft)
18.11.2019 12:03 5,3 C 89 % 1008,4 hPa 0,0 l/m 0,0 km/h (0 Bft) NO 44 0 min 0,0 UV-I 91 W/m 3,6 C 5,3 C 0,0 km/h (0 Bft)
18.11.2019 12:02 5,3 C 89 % 1008,3 hPa 0,0 l/m 0,3 km/h (0 Bft) N-NO 22 0 min 0,0 UV-I 91 W/m 3,6 C 5,3 C 1,6 km/h (1 Bft)
18.11.2019 12:01 5,3 C 89 % 1008,3 hPa 0,0 l/m 0,0 km/h (0 Bft) N-NO 22 0 min 0,0 UV-I 89 W/m 3,6 C 5,3 C 0,0 km/h (0 Bft)
18.11.2019 12:00 5,3 C 88 % 1008,4 hPa 0,0 l/m 0,4 km/h (0 Bft) N-NO 20 0 min 0,0 UV-I 86 W/m 3,5 C 5,3 C 1,6 km/h (1 Bft)
18.11.2019 11:59 5,3 C 88 % 1008,4 hPa 0,0 l/m 1,1 km/h (1 Bft) N-NO 20 0 min 0,0 UV-I 86 W/m 3,5 C 5,3 C 3,2 km/h (1 Bft)
18.11.2019 11:58 5,3 C 89 % 1008,4 hPa 0,0 l/m 2,7 km/h (1 Bft) N-NO 19 0 min 0,0 UV-I 88 W/m 3,6 C 5,3 C 4,8 km/h (1 Bft)
18.11.2019 11:57 5,3 C 89 % 1008,4 hPa 0,0 l/m 3,8 km/h (1 Bft) N-NO 21 0 min 0,0 UV-I 88 W/m 3,6 C 5,3 C 8,0 km/h (2 Bft)
18.11.2019 11:56 5,3 C 89 % 1008,4 hPa 0,0 l/m 3,6 km/h (1 Bft) N 5 0 min 0,0 UV-I 89 W/m 3,6 C 5,3 C 6,4 km/h (2 Bft)
18.11.2019 11:55 5,3 C 89 % 1008,4 hPa 0,0 l/m 4,8 km/h (1 Bft) N-NO 29 0 min 0,0 UV-I 90 W/m 3,6 C 5,3 C 8,0 km/h (2 Bft)
18.11.2019 11:54 5,3 C 89 % 1008,4 hPa 0,0 l/m 5,5 km/h (1 Bft) N-NO 24 0 min 0,0 UV-I 86 W/m 3,6 C 5,3 C 8,0 km/h (2 Bft)
18.11.2019 11:53 5,3 C 89 % 1008,4 hPa 0,0 l/m 4,0 km/h (1 Bft) N-NO 24 0 min 0,0 UV-I 84 W/m 3,6 C 5,3 C 6,4 km/h (2 Bft)
18.11.2019 11:52 5,2 C 89 % 1008,4 hPa 0,0 l/m 0,9 km/h (0 Bft) NO 38 0 min 0,0 UV-I 83 W/m 3,5 C 5,2 C 4,8 km/h (1 Bft)
18.11.2019 11:51 5,2 C 89 % 1008,5 hPa 0,0 l/m 0,7 km/h (0 Bft) N 5 0 min 0,0 UV-I 78 W/m 3,5 C 5,2 C 3,2 km/h (1 Bft)
18.11.2019 11:50 5,2 C 89 % 1008,4 hPa 0,0 l/m 2,5 km/h (1 Bft) N-NO 29 0 min 0,0 UV-I 73 W/m 3,5 C 5,2 C 4,8 km/h (1 Bft)
18.11.2019 11:49 5,2 C 89 % 1008,4 hPa 0,0 l/m 1,9 km/h (1 Bft) N-NO 28 0 min 0,0 UV-I 70 W/m 3,5 C 5,2 C 3,2 km/h (1 Bft)
18.11.2019 11:48 5,2 C 89 % 1008,4 hPa 0,0 l/m 3,4 km/h (1 Bft) N 5 0 min 0,0 UV-I 70 W/m 3,5 C 5,2 C 4,8 km/h (1 Bft)
18.11.2019 11:47 5,2 C 89 % 1008,4 hPa 0,0 l/m 3,6 km/h (1 Bft) N-NW 342 0 min 0,0 UV-I 73 W/m 3,5 C 5,2 C 6,4 km/h (2 Bft)
18.11.2019 11:46 5,2 C 89 % 1008,4 hPa 0,0 l/m 5,4 km/h (1 Bft) N-NW 348 0 min 0,0 UV-I 76 W/m 3,5 C 5,2 C 6,4 km/h (2 Bft)
18.11.2019 11:45 5,2 C 89 % 1008,4 hPa 0,0 l/m 7,4 km/h (2 Bft) NO 39 0 min 0,0 UV-I 77 W/m 3,5 C 4,3 C 12,9 km/h (3 Bft)
18.11.2019 11:44 5,2 C 89 % 1008,4 hPa 0,0 l/m 7,6 km/h (2 Bft) N-NO 26 0 min 0,0 UV-I 76 W/m 3,5 C 4,1 C 11,3 km/h (2 Bft)
18.11.2019 11:43 5,1 C 89 % 1008,4 hPa 0,0 l/m 1,8 km/h (1 Bft) N-NO 17 0 min 0,0 UV-I 76 W/m 3,4 C 5,1 C 4,8 km/h (1 Bft)
18.11.2019 11:42 5,1 C 89 % 1008,4 hPa 0,0 l/m 4,0 km/h (1 Bft) N 5 0 min 0,0 UV-I 77 W/m 3,4 C 5,1 C 6,4 km/h (2 Bft)
18.11.2019 11:41 5,1 C 89 % 1008,3 hPa 0,0 l/m 5,7 km/h (1 Bft) N 350 0 min 0,0 UV-I 79 W/m 3,4 C 5,1 C 8,0 km/h (2 Bft)
18.11.2019 11:40 5,1 C 90 % 1008,3 hPa 0,0 l/m 6,2 km/h (2 Bft) N 9 0 min 0,0 UV-I 73 W/m 3,6 C 5,1 C 9,7 km/h (2 Bft)
18.11.2019 11:39 5,1 C 90 % 1008,3 hPa 0,0 l/m 2,4 km/h (1 Bft) N-NO 33 0 min 0,0 UV-I 68 W/m 3,6 C 5,1 C 8,0 km/h (2 Bft)
18.11.2019 11:38 5,1 C 90 % 1008,3 hPa 0,0 l/m 2,0 km/h (1 Bft) N-NO 17 0 min 0,0 UV-I 68 W/m 3,6 C 5,1 C 6,4 km/h (2 Bft)
18.11.2019 11:37 5,1 C 90 % 1008,3 hPa 0,0 l/m 1,6 km/h (1 Bft) N 360 0 min 0,0 UV-I 69 W/m 3,6 C 5,1 C 4,8 km/h (1 Bft)
18.11.2019 11:36 5,1 C 90 % 1008,3 hPa 0,0 l/m 2,7 km/h (1 Bft) N-NW 344 0 min 0,0 UV-I 70 W/m 3,6 C 5,1 C 4,8 km/h (1 Bft)
18.11.2019 11:35 5,1 C 90 % 1008,3 hPa 0,0 l/m 4,8 km/h (1 Bft) N-NW 335 0 min 0,0 UV-I 69 W/m 3,6 C 5,1 C 6,4 km/h (2 Bft)
18.11.2019 11:34 5,0 C 90 % 1008,3 hPa 0,0 l/m 5,7 km/h (1 Bft) N-NO 30 0 min 0,0 UV-I 66 W/m 3,5 C 5,0 C 9,7 km/h (2 Bft)
18.11.2019 11:33 5,0 C 90 % 1008,3 hPa 0,0 l/m 6,0 km/h (2 Bft) N-NO 28 0 min 0,0 UV-I 62 W/m 3,5 C 5,0 C 9,7 km/h (2 Bft)
18.11.2019 11:32 5,0 C 90 % 1008,4 hPa 0,0 l/m 5,5 km/h (1 Bft) N 10 0 min 0,0 UV-I 55 W/m 3,5 C 5,0 C 8,0 km/h (2 Bft)
18.11.2019 11:31 5,0 C 90 % 1008,3 hPa 0,0 l/m 8,7 km/h (2 Bft) N 355 0 min 0,0 UV-I 51 W/m 3,5 C 3,0 C 12,9 km/h (3 Bft)
18.11.2019 11:30 5,1 C 90 % 1008,4 hPa 0,0 l/m 10,2 km/h (2 Bft) N 355 0 min 0,0 UV-I 47 W/m 3,6 C 2,0 C 19,3 km/h (3 Bft)
18.11.2019 11:29 5,1 C 91 % 1008,4 hPa 0,0 l/m 8,7 km/h (2 Bft) N 355 0 min 0,0 UV-I 46 W/m 3,8 C 3,1 C 12,9 km/h (3 Bft)
18.11.2019 11:28 5,0 C 91 % 1008,4 hPa 0,0 l/m 4,8 km/h (1 Bft) N 350 0 min 0,0 UV-I 43 W/m 3,7 C 5,0 C 8,0 km/h (2 Bft)
18.11.2019 11:27 5,1 C 91 % 1008,3 hPa 0,0 l/m 0,0 km/h (0 Bft) N 5 0 min 0,0 UV-I 41 W/m 3,8 C 5,1 C 0,0 km/h (0 Bft)
18.11.2019 11:26 5,1 C 91 % 1008,3 hPa 0,0 l/m 2,3 km/h (1 Bft) N 5 0 min 0,0 UV-I 40 W/m 3,8 C 5,1 C 6,4 km/h (2 Bft)
18.11.2019 11:25 5,1 C 91 % 1008,3 hPa 0,0 l/m 6,4 km/h (2 Bft) N 355 0 min 0,0 UV-I 40 W/m 3,8 C 5,1 C 8,0 km/h (2 Bft)
18.11.2019 11:24 5,1 C 91 % 1008,2 hPa 0,0 l/m 7,2 km/h (2 Bft) N 351 0 min 0,0 UV-I 40 W/m 3,8 C 4,4 C 12,9 km/h (3 Bft)
18.11.2019 11:23 5,1 C 91 % 1008,2 hPa 0,0 l/m 6,3 km/h (2 Bft) N 9 0 min 0,0 UV-I 38 W/m 3,8 C 5,1 C 8,0 km/h (2 Bft)
18.11.2019 11:22 5,1 C 91 % 1008,2 hPa 0,0 l/m 6,4 km/h (2 Bft) N-NW 344 0 min 0,0 UV-I 37 W/m 3,8 C 5,1 C 8,0 km/h (2 Bft)
18.11.2019 11:21 5,1 C 91 % 1008,2 hPa 0,0 l/m 3,3 km/h (1 Bft) N-NW 343 0 min 0,0 UV-I 37 W/m 3,8 C 5,1 C 6,4 km/h (2 Bft)
18.11.2019 11:20 5,1 C 91 % 1008,2 hPa 0,0 l/m 2,9 km/h (1 Bft) N 9 0 min 0,0 UV-I 35 W/m 3,8 C 5,1 C 4,8 km/h (1 Bft)
18.11.2019 11:19 5,1 C 91 % 1008,2 hPa 0,0 l/m 4,3 km/h (1 Bft) N 9 0 min 0,0 UV-I 35 W/m 3,8 C 5,1 C 6,4 km/h (2 Bft)
18.11.2019 11:18 5,0 C 91 % 1008,2 hPa 0,0 l/m 4,4 km/h (1 Bft) N-NO 26 0 min 0,0 UV-I 33 W/m 3,7 C 5,0 C 6,4 km/h (2 Bft)
18.11.2019 11:17 5,1 C 91 % 1008,3 hPa 0,0 l/m 4,3 km/h (1 Bft) NO 42 0 min 0,0 UV-I 31 W/m 3,8 C 5,1 C 8,0 km/h (2 Bft)
18.11.2019 11:16 5,1 C 91 % 1008,3 hPa 0,0 l/m 5,1 km/h (1 Bft) N-NW 348 0 min 0,0 UV-I 28 W/m 3,8 C 5,1 C 8,0 km/h (2 Bft)
18.11.2019 11:15 5,1 C 91 % 1008,3 hPa 0,0 l/m 4,9 km/h (1 Bft) NW 319 0 min 0,0 UV-I 25 W/m 3,8 C 5,1 C 6,4 km/h (2 Bft)
18.11.2019 11:14 5,1 C 91 % 1008,3 hPa 0,0 l/m 4,9 km/h (1 Bft) N 351 0 min 0,0 UV-I 25 W/m 3,8 C 5,1 C 6,4 km/h (2 Bft)
18.11.2019 11:13 5,1 C 91 % 1008,3 hPa 0,0 l/m 4,0 km/h (1 Bft) N 355 0 min 0,0 UV-I 25 W/m 3,8 C 5,1 C 6,4 km/h (2 Bft)
18.11.2019 11:12 5,1 C 91 % 1008,3 hPa 0,0 l/m 3,3 km/h (1 Bft) N-NW 330 0 min 0,0 UV-I 25 W/m 3,8 C 5,1 C 4,8 km/h (1 Bft)
18.11.2019 11:11 5,1 C 92 % 1008,3 hPa 0,0 l/m 2,0 km/h (1 Bft) NW 325 0 min 0,0 UV-I 25 W/m 3,9 C 5,1 C 3,2 km/h (1 Bft)
18.11.2019 11:10 5,1 C 91 % 1008,2 hPa 0,0 l/m 2,2 km/h (1 Bft) NW 325 0 min 0,0 UV-I 25 W/m 3,8 C 5,1 C 3,2 km/h (1 Bft)
18.11.2019 11:09 5,0 C 91 % 1008,2 hPa 0,0 l/m 4,2 km/h (1 Bft) NW 314 0 min 0,0 UV-I 25 W/m 3,7 C 5,0 C 6,4 km/h (2 Bft)
18.11.2019 11:08 5,1 C 91 % 1008,2 hPa 0,0 l/m 6,2 km/h (2 Bft) N-NW 348 0 min 0,0 UV-I 25 W/m 3,8 C 5,1 C 8,0 km/h (2 Bft)
18.11.2019 11:07 5,1 C 92 % 1008,2 hPa 0,0 l/m 7,1 km/h (2 Bft) N 355 0 min 0,0 UV-I 26 W/m 3,9 C 4,5 C 9,7 km/h (2 Bft)
18.11.2019 11:06 5,1 C 91 % 1008,2 hPa 0,0 l/m 6,0 km/h (2 Bft) N 355 0 min 0,0 UV-I 28 W/m 3,8 C 5,1 C 9,7 km/h (2 Bft)
18.11.2019 11:05 5,0 C 92 % 1008,1 hPa 0,0 l/m 3,4 km/h (1 Bft) N-NO 16 0 min 0,0 UV-I 31 W/m 3,8 C 5,0 C 6,4 km/h (2 Bft)
18.11.2019 11:04 5,0 C 92 % 1008,1 hPa 0,0 l/m 2,7 km/h (1 Bft) N 355 0 min 0,0 UV-I 34 W/m 3,8 C 5,0 C 6,4 km/h (2 Bft)
18.11.2019 11:03 5,1 C 92 % 1008,1 hPa 0,0 l/m 1,1 km/h (1 Bft) N-NO 23 0 min 0,0 UV-I 35 W/m 3,9 C 5,1 C 3,2 km/h (1 Bft)
18.11.2019 11:02 5,0 C 92 % 1008,1 hPa 0,0 l/m 3,5 km/h (1 Bft) N-NO 23 0 min 0,0 UV-I 35 W/m 3,8 C 5,0 C 6,4 km/h (2 Bft)
18.11.2019 11:01 5,0 C 92 % 1008,1 hPa 0,0 l/m 4,2 km/h (1 Bft) N 355 0 min 0,0 UV-I 33 W/m 3,8 C 5,0 C 6,4 km/h (2 Bft)
18.11.2019 11:00 5,0 C 92 % 1008,1 hPa 0,0 l/m 4,2 km/h (1 Bft) N 350 0 min 0,0 UV-I 33 W/m 3,8 C 5,0 C 6,4 km/h (2 Bft)
18.11.2019 10:59 5,0 C 92 % 1008,1 hPa 0,0 l/m 4,8 km/h (1 Bft) N 9 0 min 0,0 UV-I 33 W/m 3,8 C 5,0 C 6,4 km/h (2 Bft)
18.11.2019 10:58 5,0 C 92 % 1008,1 hPa 0,0 l/m 3,7 km/h (1 Bft) N 360 0 min 0,0 UV-I 33 W/m 3,8 C 5,0 C 6,4 km/h (2 Bft)
18.11.2019 10:57 5,0 C 92 % 1008,1 hPa 0,0 l/m 5,2 km/h (1 Bft) N-NO 22 0 min 0,0 UV-I 32 W/m 3,8 C 5,0 C 8,0 km/h (2 Bft)
18.11.2019 10:56 5,0 C 92 % 1008,1 hPa 0,0 l/m 1,6 km/h (1 Bft) N-NO 33 0 min 0,0 UV-I 32 W/m 3,8 C 5,0 C 4,8 km/h (1 Bft)
18.11.2019 10:55 5,0 C 92 % 1008,1 hPa 0,0 l/m 3,8 km/h (1 Bft) N-NO 30 0 min 0,0 UV-I 32 W/m 3,8 C 5,0 C 6,4 km/h (2 Bft)
18.11.2019 10:54 5,0 C 92 % 1008,1 hPa 0,0 l/m 3,3 km/h (1 Bft) N 355 0 min 0,0 UV-I 32 W/m 3,8 C 5,0 C 4,8 km/h (1 Bft)
18.11.2019 10:53 5,0 C 92 % 1008,0 hPa 0,0 l/m 4,7 km/h (1 Bft) N-NO 31 0 min 0,0 UV-I 32 W/m 3,8 C 5,0 C 8,0 km/h (2 Bft)
18.11.2019 10:52 5,0 C 92 % 1008,0 hPa 0,0 l/m 5,2 km/h (1 Bft) N-NW 337 0 min 0,0 UV-I 32 W/m 3,8 C 5,0 C 6,4 km/h (2 Bft)
18.11.2019 10:51 5,0 C 92 % 1008,0 hPa 0,0 l/m 3,9 km/h (1 Bft) N 355 0 min 0,0 UV-I 32 W/m 3,8 C 5,0 C 6,4 km/h (2 Bft)
18.11.2019 10:50 5,0 C 92 % 1008,0 hPa 0,0 l/m 3,8 km/h (1 Bft) N-NO 32 0 min 0,0 UV-I 32 W/m 3,8 C 5,0 C 8,0 km/h (2 Bft)
18.11.2019 10:49 5,0 C 92 % 1007,9 hPa 0,0 l/m 5,4 km/h (1 Bft) N-NO 26 0 min 0,0 UV-I 33 W/m 3,8 C 5,0 C 8,0 km/h (2 Bft)
18.11.2019 10:48 5,1 C 92 % 1007,9 hPa 0,0 l/m 4,6 km/h (1 Bft) NO 48 0 min 0,0 UV-I 33 W/m 3,9 C 5,1 C 6,4 km/h (2 Bft)
18.11.2019 10:47 5,1 C 92 % 1007,9 hPa 0,0 l/m 4,1 km/h (1 Bft) N-NW 333 0 min 0,0 UV-I 33 W/m 3,9 C 5,1 C 6,4 km/h (2 Bft)
18.11.2019 10:46 5,0 C 92 % 1008,0 hPa 0,0 l/m 1,8 km/h (1 Bft) N 355 0 min 0,0 UV-I 33 W/m 3,8 C 5,0 C 3,2 km/h (1 Bft)
18.11.2019 10:45 5,0 C 92 % 1008,0 hPa 0,0 l/m 5,1 km/h (1 Bft) N 355 0 min 0,0 UV-I 33 W/m 3,8 C 5,0 C 8,0 km/h (2 Bft)
18.11.2019 10:44 5,0 C 92 % 1008,0 hPa 0,0 l/m 3,1 km/h (1 Bft) N 5 0 min 0,0 UV-I 33 W/m 3,8 C 5,0 C 4,8 km/h (1 Bft)
18.11.2019 10:43 5,0 C 92 % 1008,0 hPa 0,0 l/m 5,4 km/h (1 Bft) N-NO 19 0 min 0,0 UV-I 31 W/m 3,8 C 5,0 C 8,0 km/h (2 Bft)
18.11.2019 10:42 5,0 C 92 % 1008,1 hPa 0,0 l/m 6,6 km/h (2 Bft) N-NO 22 0 min 0,0 UV-I 27 W/m 3,8 C 4,8 C 11,3 km/h (2 Bft)
18.11.2019 10:41 5,0 C 92 % 1008,1 hPa 0,0 l/m 6,0 km/h (2 Bft) N 355 0 min 0,0 UV-I 26 W/m 3,8 C 5,0 C 8,0 km/h (2 Bft)
18.11.2019 10:40 5,0 C 92 % 1008,1 hPa 0,0 l/m 6,5 km/h (2 Bft) N 355 0 min 0,0 UV-I 25 W/m 3,8 C 4,9 C 8,0 km/h (2 Bft)
18.11.2019 10:39 5,0 C 92 % 1008,1 hPa 0,0 l/m 5,8 km/h (2 Bft) N-NW 338 0 min 0,0 UV-I 23 W/m 3,8 C 5,0 C 8,0 km/h (2 Bft)
18.11.2019 10:38 5,0 C 93 % 1008,1 hPa 0,0 l/m 7,3 km/h (2 Bft) N-NO 14 0 min 0,0 UV-I 25 W/m 4,0 C 4,2 C 9,7 km/h (2 Bft)
18.11.2019 10:37 5,0 C 92 % 1008,1 hPa 0,0 l/m 6,8 km/h (2 Bft) N-NW 343 0 min 0,0 UV-I 25 W/m 3,8 C 4,7 C 11,3 km/h (2 Bft)
18.11.2019 10:36 5,0 C 93 % 1008,0 hPa 0,0 l/m 3,4 km/h (1 Bft) N 355 0 min 0,0 UV-I 26 W/m 4,0 C 5,0 C 6,4 km/h (2 Bft)
18.11.2019 10:35 5,0 C 93 % 1008,0 hPa 0,0 l/m 4,6 km/h (1 Bft) N-NO 24 0 min 0,0 UV-I 25 W/m 4,0 C 5,0 C 6,4 km/h (2 Bft)
18.11.2019 10:34 5,0 C 93 % 1008,1 hPa 0,0 l/m 3,4 km/h (1 Bft) NO 38 0 min 0,0 UV-I 24 W/m 4,0 C 5,0 C 4,8 km/h (1 Bft)
18.11.2019 10:33 5,0 C 93 % 1008,1 hPa 0,0 l/m 3,2 km/h (1 Bft) N 10 0 min 0,0 UV-I 25 W/m 4,0 C 5,0 C 6,4 km/h (2 Bft)
18.11.2019 10:32 5,0 C 93 % 1008,0 hPa 0,0 l/m 2,3 km/h (1 Bft) N-NO 26 0 min 0,0 UV-I 25 W/m 4,0 C 5,0 C 4,8 km/h (1 Bft)
18.11.2019 10:31 5,0 C 93 % 1008,0 hPa 0,0 l/m 6,2 km/h (2 Bft) NO 51 0 min 0,0 UV-I 25 W/m 4,0 C 5,0 C 9,7 km/h (2 Bft)
18.11.2019 10:30 5,0 C 93 % 1008,0 hPa 0,0 l/m 5,4 km/h (1 Bft) N 9 0 min 0,0 UV-I 25 W/m 4,0 C 5,0 C 8,0 km/h (2 Bft)
18.11.2019 10:29 5,0 C 93 % 1008,0 hPa 0,0 l/m 4,8 km/h (1 Bft) N-NW 348 0 min 0,0 UV-I 27 W/m 4,0 C 5,0 C 6,4 km/h (2 Bft)
18.11.2019 10:28 5,0 C 93 % 1008,0 hPa 0,0 l/m 5,7 km/h (1 Bft) N 360 0 min 0,0 UV-I 27 W/m 4,0 C 5,0 C 8,0 km/h (2 Bft)
18.11.2019 10:27 5,0 C 93 % 1008,0 hPa 0,0 l/m 3,1 km/h (1 Bft) N-NO 20 0 min 0,0 UV-I 25 W/m 4,0 C 5,0 C 4,8 km/h (1 Bft)
18.11.2019 10:26 5,0 C 93 % 1008,1 hPa 0,0 l/m 2,8 km/h (1 Bft) N-NW 348 0 min 0,0 UV-I 25 W/m 4,0 C 5,0 C 4,8 km/h (1 Bft)
18.11.2019 10:25 5,0 C 93 % 1008,0 hPa 0,0 l/m 2,9 km/h (1 Bft) NO 42 0 min 0,0 UV-I 25 W/m 4,0 C 5,0 C 4,8 km/h (1 Bft)
18.11.2019 10:24 5,0 C 93 % 1008,0 hPa 0,0 l/m 4,1 km/h (1 Bft) NO 56 0 min 0,0 UV-I 25 W/m 4,0 C 5,0 C 4,8 km/h (1 Bft)
18.11.2019 10:23 5,0 C 93 % 1008,0 hPa 0,0 l/m 2,9 km/h (1 Bft) N-NW 346 0 min 0,0 UV-I 26 W/m 4,0 C 5,0 C 6,4 km/h (2 Bft)
18.11.2019 10:22 5,0 C 93 % 1008,0 hPa 0,0 l/m 1,6 km/h (1 Bft) N-NW 341 0 min 0,0 UV-I 26 W/m 4,0 C 5,0 C 4,8 km/h (1 Bft)
18.11.2019 10:21 4,9 C 93 % 1008,0 hPa 0,0 l/m 2,6 km/h (1 Bft) N-NO 15 0 min 0,0 UV-I 26 W/m 3,9 C 4,9 C 4,8 km/h (1 Bft)
18.11.2019 10:20 5,0 C 93 % 1008,0 hPa 0,0 l/m 2,9 km/h (1 Bft) N-NO 17 0 min 0,0 UV-I 25 W/m 4,0 C 5,0 C 4,8 km/h (1 Bft)
18.11.2019 10:19 4,9 C 93 % 1008,0 hPa 0,0 l/m 4,4 km/h (1 Bft) N 350 0 min 0,0 UV-I 25 W/m 3,9 C 4,9 C 6,4 km/h (2 Bft)
18.11.2019 10:18 4,9 C 93 % 1008,0 hPa 0,0 l/m 3,1 km/h (1 Bft) N 355 0 min 0,0 UV-I 25 W/m 3,9 C 4,9 C 4,8 km/h (1 Bft)
18.11.2019 10:17 4,9 C 93 % 1008,0 hPa 0,0 l/m 4,4 km/h (1 Bft) N-NW 338 0 min 0,0 UV-I 25 W/m 3,9 C 4,9 C 6,4 km/h (2 Bft)
18.11.2019 10:16 4,9 C 93 % 1008,0 hPa 0,0 l/m 3,2 km/h (1 Bft) N-NO 24 0 min 0,0 UV-I 25 W/m 3,9 C 4,9 C 6,4 km/h (2 Bft)
18.11.2019 10:15 4,9 C 93 % 1008,0 hPa 0,0 l/m 3,8 km/h (1 Bft) N-NO 31 0 min 0,0 UV-I 23 W/m 3,9 C 4,9 C 6,4 km/h (2 Bft)
18.11.2019 10:14 5,0 C 93 % 1008,0 hPa 0,0 l/m 4,4 km/h (1 Bft) N-NW 336 0 min 0,0 UV-I 23 W/m 4,0 C 5,0 C 8,0 km/h (2 Bft)
18.11.2019 10:13 5,0 C 93 % 1008,0 hPa 0,0 l/m 3,2 km/h (1 Bft) N 5 0 min 0,0 UV-I 23 W/m 4,0 C 5,0 C 4,8 km/h (1 Bft)
18.11.2019 10:12 4,9 C 93 % 1007,9 hPa 0,0 l/m 3,4 km/h (1 Bft) N-NO 30 0 min 0,0 UV-I 23 W/m 3,9 C 4,9 C 6,4 km/h (2 Bft)
18.11.2019 10:11 4,9 C 93 % 1007,8 hPa 0,0 l/m 3,1 km/h (1 Bft) NO 34 0 min 0,0 UV-I 25 W/m 3,9 C 4,9 C 4,8 km/h (1 Bft)
18.11.2019 10:10 4,9 C 93 % 1007,8 hPa 0,0 l/m 4,5 km/h (1 Bft) N 355 0 min 0,0 UV-I 27 W/m 3,9 C 4,9 C 6,4 km/h (2 Bft)
18.11.2019 10:09 4,9 C 93 % 1007,8 hPa 0,0 l/m 5,3 km/h (1 Bft) N 5 0 min 0,0 UV-I 30 W/m 3,9 C 4,9 C 6,4 km/h (2 Bft)
18.11.2019 10:08 4,9 C 94 % 1007,8 hPa 0,0 l/m 3,8 km/h (1 Bft) N 360 0 min 0,0 UV-I 30 W/m 4,0 C 4,9 C 4,8 km/h (1 Bft)
18.11.2019 10:07 4,9 C 94 % 1007,8 hPa 0,0 l/m 0,9 km/h (0 Bft) N-NO 19 0 min 0,0 UV-I 29 W/m 4,0 C 4,9 C 3,2 km/h (1 Bft)
18.11.2019 10:06 4,9 C 94 % 1007,7 hPa 0,0 l/m 2,4 km/h (1 Bft) N 5 0 min 0,0 UV-I 30 W/m 4,0 C 4,9 C 3,2 km/h (1 Bft)
18.11.2019 10:05 4,9 C 94 % 1007,7 hPa 0,0 l/m 2,7 km/h (1 Bft) N 5 0 min 0,0 UV-I 30 W/m 4,0 C 4,9 C 4,8 km/h (1 Bft)
18.11.2019 10:04 4,9 C 94 % 1007,7 hPa 0,0 l/m 2,9 km/h (1 Bft) N 360 0 min 0,0 UV-I 32 W/m 4,0 C 4,9 C 4,8 km/h (1 Bft)
18.11.2019 10:03 4,9 C 94 % 1007,7 hPa 0,0 l/m 3,0 km/h (1 Bft) N-NO 12 0 min 0,0 UV-I 30 W/m 4,0 C 4,9 C 4,8 km/h (1 Bft)
18.11.2019 10:02 4,9 C 94 % 1007,7 hPa 0,0 l/m 4,6 km/h (1 Bft) N 355 0 min 0,0 UV-I 28 W/m 4,0 C 4,9 C 6,4 km/h (2 Bft)
18.11.2019 10:01 4,9 C 94 % 1007,7 hPa 0,0 l/m 4,8 km/h (1 Bft) N 5 0 min 0,0 UV-I 27 W/m 4,0 C 4,9 C 8,0 km/h (2 Bft)
18.11.2019 10:00 4,9 C 94 % 1007,8 hPa 0,0 l/m 1,3 km/h (1 Bft) N 9 0 min 0,0 UV-I 26 W/m 4,0 C 4,9 C 3,2 km/h (1 Bft)
18.11.2019 09:59 4,9 C 94 % 1007,8 hPa 0,0 l/m 3,4 km/h (1 Bft) N 9 0 min 0,0 UV-I 24 W/m 4,0 C 4,9 C 4,8 km/h (1 Bft)
18.11.2019 09:58 4,9 C 94 % 1007,8 hPa 0,0 l/m 2,1 km/h (1 Bft) N-NO 12 0 min 0,0 UV-I 21 W/m 4,0 C 4,9 C 3,2 km/h (1 Bft)
18.11.2019 09:57 4,9 C 94 % 1007,7 hPa 0,0 l/m 1,3 km/h (1 Bft) N-NO 12 0 min 0,0 UV-I 25 W/m 4,0 C 4,9 C 3,2 km/h (1 Bft)
18.11.2019 09:56 4,9 C 94 % 1007,7 hPa 0,0 l/m 4,1 km/h (1 Bft) N-NO 13 0 min 0,0 UV-I 25 W/m 4,0 C 4,9 C 6,4 km/h (2 Bft)
18.11.2019 09:55 4,9 C 94 % 1007,7 hPa 0,0 l/m 0,7 km/h (0 Bft) N 360 0 min 0,0 UV-I 26 W/m 4,0 C 4,9 C 3,2 km/h (1 Bft)
18.11.2019 09:54 4,9 C 94 % 1007,7 hPa 0,0 l/m 0,0 km/h (0 Bft) N-NW 342 0 min 0,0 UV-I 26 W/m 4,0 C 4,9 C 0,0 km/h (0 Bft)
18.11.2019 09:53 4,9 C 94 % 1007,6 hPa 0,0 l/m 0,0 km/h (0 Bft) N 355 0 min 0,0 UV-I 27 W/m 4,0 C 4,9 C 0,0 km/h (0 Bft)
18.11.2019 09:52 4,9 C 94 % 1007,6 hPa 0,0 l/m 0,0 km/h (0 Bft) N 355 0 min 0,0 UV-I 30 W/m 4,0 C 4,9 C 0,0 km/h (0 Bft)
18.11.2019 09:51 4,9 C 94 % 1007,6 hPa 0,0 l/m 0,0 km/h (0 Bft) N 355 0 min 0,0 UV-I 28 W/m 4,0 C 4,9 C 0,0 km/h (0 Bft)
18.11.2019 09:50 4,9 C 94 % 1007,6 hPa 0,0 l/m 0,0 km/h (0 Bft) N 355 0 min 0,0 UV-I 25 W/m 4,0 C 4,9 C 0,0 km/h (0 Bft)
18.11.2019 09:49 4,8 C 94 % 1007,6 hPa 0,0 l/m 0,0 km/h (0 Bft) N 355 0 min 0,0 UV-I 25 W/m 3,9 C 4,8 C 0,0 km/h (0 Bft)
18.11.2019 09:48 4,8 C 94 % 1007,6 hPa 0,0 l/m 0,0 km/h (0 Bft) N 355 0 min 0,0 UV-I 23 W/m 3,9 C 4,8 C 0,0 km/h (0 Bft)
18.11.2019 09:47 4,8 C 94 % 1007,6 hPa 0,0 l/m 0,0 km/h (0 Bft) N 355 0 min 0,0 UV-I 21 W/m 3,9 C 4,8 C 0,0 km/h (0 Bft)
18.11.2019 09:46 4,8 C 94 % 1007,5 hPa 0,0 l/m 0,0 km/h (0 Bft) N 355 0 min 0,0 UV-I 21 W/m 3,9 C 4,8 C 0,0 km/h (0 Bft)
18.11.2019 09:45 4,8 C 94 % 1007,6 hPa 0,0 l/m 2,2 km/h (1 Bft) N 5 0 min 0,0 UV-I 21 W/m 3,9 C 4,8 C 4,8 km/h (1 Bft)
18.11.2019 09:44 4,8 C 94 % 1007,6 hPa 0,0 l/m 4,1 km/h (1 Bft) N 5 0 min 0,0 UV-I 19 W/m 3,9 C 4,8 C 6,4 km/h (2 Bft)
18.11.2019 09:43 4,8 C 94 % 1007,6 hPa 0,0 l/m 2,7 km/h (1 Bft) N 11 0 min 0,0 UV-I 20 W/m 3,9 C 4,8 C 4,8 km/h (1 Bft)
18.11.2019 09:42 4,8 C 94 % 1007,5 hPa 0,0 l/m 4,2 km/h (1 Bft) N 11 0 min 0,0 UV-I 22 W/m 3,9 C 4,8 C 4,8 km/h (1 Bft)
18.11.2019 09:41 4,8 C 94 % 1007,5 hPa 0,0 l/m 2,6 km/h (1 Bft) N-NO 21 0 min 0,0 UV-I 23 W/m 3,9 C 4,8 C 4,8 km/h (1 Bft)
18.11.2019 09:40 4,8 C 94 % 1007,5 hPa 0,0 l/m 1,5 km/h (1 Bft) N 5 0 min 0,0 UV-I 23 W/m 3,9 C 4,8 C 3,2 km/h (1 Bft)
18.11.2019 09:39 4,8 C 94 % 1007,5 hPa 0,0 l/m 0,7 km/h (0 Bft) N 5 0 min 0,0 UV-I 25 W/m 3,9 C 4,8 C 1,6 km/h (1 Bft)
18.11.2019 09:38 4,8 C 94 % 1007,5 hPa 0,0 l/m 1,5 km/h (1 Bft) N 5 0 min 0,0 UV-I 25 W/m 3,9 C 4,8 C 3,2 km/h (1 Bft)
18.11.2019 09:37 4,8 C 94 % 1007,5 hPa 0,0 l/m 3,2 km/h (1 Bft) N 9 0 min 0,0 UV-I 25 W/m 3,9 C 4,8 C 6,4 km/h (2 Bft)
18.11.2019 09:36 4,8 C 94 % 1007,5 hPa 0,0 l/m 3,1 km/h (1 Bft) N-NW 333 0 min 0,0 UV-I 25 W/m 3,9 C 4,8 C 6,4 km/h (2 Bft)
18.11.2019 09:35 4,8 C 94 % 1007,5 hPa 0,0 l/m 2,7 km/h (1 Bft) NO 34 0 min 0,0 UV-I 24 W/m 3,9 C 4,8 C 4,8 km/h (1 Bft)
18.11.2019 09:34 4,8 C 94 % 1007,5 hPa 0,0 l/m 4,6 km/h (1 Bft) N-NO 14 0 min 0,0 UV-I 23 W/m 3,9 C 4,8 C 6,4 km/h (2 Bft)
18.11.2019 09:33 4,8 C 94 % 1007,5 hPa 0,0 l/m 0,6 km/h (0 Bft) N-NO 24 0 min 0,0 UV-I 23 W/m 3,9 C 4,8 C 3,2 km/h (1 Bft)
18.11.2019 09:32 4,8 C 94 % 1007,5 hPa 0,0 l/m 0,3 km/h (0 Bft) NO 36 0 min 0,0 UV-I 23 W/m 3,9 C 4,8 C 1,6 km/h (1 Bft)
18.11.2019 09:31 4,8 C 94 % 1007,6 hPa 0,0 l/m 0,4 km/h (0 Bft) NO 36 0 min 0,0 UV-I 23 W/m 3,9 C 4,8 C 1,6 km/h (1 Bft)
18.11.2019 09:30 4,8 C 94 % 1007,5 hPa 0,0 l/m 1,3 km/h (1 Bft) NO 36 0 min 0,0 UV-I 23 W/m 3,9 C 4,8 C 3,2 km/h (1 Bft)
18.11.2019 09:29 4,8 C 94 % 1007,5 hPa 0,0 l/m 0,8 km/h (0 Bft) NO 35 0 min 0,0 UV-I 21 W/m 3,9 C 4,8 C 3,2 km/h (1 Bft)
18.11.2019 09:28 4,8 C 94 % 1007,6 hPa 0,0 l/m 0,4 km/h (0 Bft) NO 36 0 min 0,0 UV-I 21 W/m 3,9 C 4,8 C 1,6 km/h (1 Bft)
18.11.2019 09:27 4,8 C 94 % 1007,6 hPa 0,0 l/m 0,0 km/h (0 Bft) N 351 0 min 0,0 UV-I 19 W/m 3,9 C 4,8 C 0,0 km/h (0 Bft)
18.11.2019 09:26 4,8 C 94 % 1007,6 hPa 0,0 l/m 0,0 km/h (0 Bft) N 351 0 min 0,0 UV-I 19 W/m 3,9 C 4,8 C 0,0 km/h (0 Bft)
18.11.2019 09:25 4,8 C 94 % 1007,6 hPa 0,0 l/m 0,4 km/h (0 Bft) N 351 0 min 0,0 UV-I 19 W/m 3,9 C 4,8 C 1,6 km/h (1 Bft)
18.11.2019 09:24 4,8 C 94 % 1007,6 hPa 0,0 l/m 0,2 km/h (0 Bft) N 351 0 min 0,0 UV-I 19 W/m 3,9 C 4,8 C 1,6 km/h (1 Bft)
18.11.2019 09:23 4,8 C 94 % 1007,6 hPa 0,0 l/m 1,1 km/h (1 Bft) N 351 0 min 0,0 UV-I 19 W/m 3,9 C 4,8 C 1,6 km/h (1 Bft)
18.11.2019 09:22 4,7 C 94 % 1007,6 hPa 0,0 l/m 2,8 km/h (1 Bft) N 351 0 min 0,0 UV-I 21 W/m 3,8 C 4,7 C 4,8 km/h (1 Bft)
18.11.2019 09:21 4,7 C 94 % 1007,5 hPa 0,0 l/m 3,5 km/h (1 Bft) N 360 0 min 0,0 UV-I 21 W/m 3,8 C 4,7 C 4,8 km/h (1 Bft)
18.11.2019 09:20 4,7 C 94 % 1007,5 hPa 0,0 l/m 0,0 km/h (0 Bft) N 10 0 min 0,0 UV-I 19 W/m 3,8 C 4,7 C 0,0 km/h (0 Bft)
18.11.2019 09:19 4,7 C 94 % 1007,4 hPa 0,0 l/m 0,0 km/h (0 Bft) N-NO 30 0 min 0,0 UV-I 18 W/m 3,8 C 4,7 C 0,0 km/h (0 Bft)
18.11.2019 09:18 4,7 C 94 % 1007,4 hPa 0,0 l/m 0,0 km/h (0 Bft) NO 35 0 min 0,0 UV-I 18 W/m 3,8 C 4,7 C 0,0 km/h (0 Bft)
18.11.2019 09:17 4,7 C 94 % 1007,4 hPa 0,0 l/m 0,0 km/h (0 Bft) NO 35 0 min 0,0 UV-I 19 W/m 3,8 C 4,7 C 0,0 km/h (0 Bft)
18.11.2019 09:16 4,7 C 94 % 1007,4 hPa 0,0 l/m 0,0 km/h (0 Bft) NO 35 0 min 0,0 UV-I 19 W/m 3,8 C 4,7 C 0,0 km/h (0 Bft)
18.11.2019 09:15 4,7 C 94 % 1007,4 hPa 0,0 l/m 0,0 km/h (0 Bft) NO 35 0 min 0,0 UV-I 21 W/m 3,8 C 4,7 C 0,0 km/h (0 Bft)
18.11.2019 09:14 4,7 C 94 % 1007,4 hPa 0,0 l/m 0,0 km/h (0 Bft) NO 35 0 min 0,0 UV-I 20 W/m 3,8 C 4,7 C 0,0 km/h (0 Bft)
18.11.2019 09:13 4,7 C 94 % 1007,4 hPa 0,0 l/m 0,0 km/h (0 Bft) N 360 0 min 0,0 UV-I 18 W/m 3,8 C 4,7 C 0,0 km/h (0 Bft)
18.11.2019 09:12 4,7 C 94 % 1007,4 hPa 0,0 l/m 0,0 km/h (0 Bft) N 360 0 min 0,0 UV-I 19 W/m 3,8 C 4,7 C 0,0 km/h (0 Bft)
18.11.2019 09:11 4,7 C 94 % 1007,4 hPa 0,0 l/m 0,0 km/h (0 Bft) NW 323 0 min 0,0 UV-I 19 W/m 3,8 C 4,7 C 0,0 km/h (0 Bft)
18.11.2019 09:10 4,7 C 94 % 1007,5 hPa 0,0 l/m 0,0 km/h (0 Bft) N 5 0 min 0,0 UV-I 19 W/m 3,8 C 4,7 C 0,0 km/h (0 Bft)
18.11.2019 09:09 4,7 C 94 % 1007,4 hPa 0,0 l/m 0,0 km/h (0 Bft) N 5 0 min 0,0 UV-I 21 W/m 3,8 C 4,7 C 0,0 km/h (0 Bft)
18.11.2019 09:08 4,7 C 94 % 1007,4 hPa 0,0 l/m 0,0 km/h (0 Bft) N 5 0 min 0,0 UV-I 19 W/m 3,8 C 4,7 C 0,0 km/h (0 Bft)
18.11.2019 09:07 4,7 C 94 % 1007,5 hPa 0,0 l/m 0,0 km/h (0 Bft) N 5 0 min 0,0 UV-I 19 W/m 3,8 C 4,7 C 0,0 km/h (0 Bft)
18.11.2019 09:06 4,7 C 94 % 1007,5 hPa 0,0 l/m 0,0 km/h (0 Bft) N 5 0 min 0,0 UV-I 17 W/m 3,8 C 4,7 C 0,0 km/h (0 Bft)
18.11.2019 09:05 4,7 C 94 % 1007,5 hPa 0,0 l/m 0,2 km/h (0 Bft) N 5 0 min 0,0 UV-I 12 W/m 3,8 C 4,7 C 3,2 km/h (1 Bft)
18.11.2019 09:04 4,7 C 94 % 1007,5 hPa 0,0 l/m 2,9 km/h (1 Bft) N-NO 17 0 min 0,0 UV-I 11 W/m 3,8 C 4,7 C 4,8 km/h (1 Bft)
18.11.2019 09:03 4,7 C 94 % 1007,6 hPa 0,0 l/m 2,4 km/h (1 Bft) NO 51 0 min 0,0 UV-I 9 W/m 3,8 C 4,7 C 6,4 km/h (2 Bft)
18.11.2019 09:02 4,7 C 94 % 1007,6 hPa 0,0 l/m 0,6 km/h (0 Bft) N-NO 21 0 min 0,0 UV-I 9 W/m 3,8 C 4,7 C 1,6 km/h (1 Bft)
18.11.2019 09:01 4,7 C 94 % 1007,5 hPa 0,0 l/m 2,1 km/h (1 Bft) N-NO 21 0 min 0,0 UV-I 8 W/m 3,8 C 4,7 C 3,2 km/h (1 Bft)
18.11.2019 09:00 4,7 C 94 % 1007,5 hPa 0,0 l/m 1,6 km/h (1 Bft) N 360 0 min 0,0 UV-I 7 W/m 3,8 C 4,7 C 3,2 km/h (1 Bft)
18.11.2019 08:59 4,7 C 94 % 1007,4 hPa 0,0 l/m 4,4 km/h (1 Bft) O-NO 65 0 min 0,0 UV-I 7 W/m 3,8 C 4,7 C 6,4 km/h (2 Bft)
18.11.2019 08:58 4,7 C 94 % 1007,4 hPa 0,0 l/m 3,7 km/h (1 Bft) NO 38 0 min 0,0 UV-I 7 W/m 3,8 C 4,7 C 4,8 km/h (1 Bft)
18.11.2019 08:57 4,7 C 94 % 1007,4 hPa 0,0 l/m 5,9 km/h (2 Bft) N 5 0 min 0,0 UV-I 5 W/m 3,8 C 4,7 C 9,7 km/h (2 Bft)
18.11.2019 08:56 4,7 C 94 % 1007,4 hPa 0,0 l/m 3,9 km/h (1 Bft) NO 38 0 min 0,0 UV-I 5 W/m 3,8 C 4,7 C 6,4 km/h (2 Bft)
18.11.2019 08:55 4,7 C 94 % 1007,4 hPa 0,0 l/m 6,3 km/h (2 Bft) N-NO 22 0 min 0,0 UV-I 2 W/m 3,8 C 4,7 C 9,7 km/h (2 Bft)
18.11.2019 08:54 4,7 C 94 % 1007,4 hPa 0,0 l/m 8,4 km/h (2 Bft) N-NO 29 0 min 0,0 UV-I 0 W/m 3,8 C 3,0 C 12,9 km/h (3 Bft)
18.11.2019 08:53 4,7 C 94 % 1007,4 hPa 0,0 l/m 3,9 km/h (1 Bft) N 351 0 min 0,0 UV-I 0 W/m 3,8 C 4,7 C 6,4 km/h (2 Bft)
18.11.2019 08:52 4,7 C 94 % 1007,3 hPa 0,0 l/m 5,8 km/h (2 Bft) N 350 0 min 0,0 UV-I 0 W/m 3,8 C 4,7 C 9,7 km/h (2 Bft)
18.11.2019 08:51 4,7 C 94 % 1007,3 hPa 0,0 l/m 5,6 km/h (1 Bft) N 5 0 min 0,0 UV-I 0 W/m 3,8 C 4,7 C 8,0 km/h (2 Bft)
18.11.2019 08:50 4,7 C 94 % 1007,2 hPa 0,0 l/m 5,0 km/h (1 Bft) N 5 0 min 0,0 UV-I 0 W/m 3,8 C 4,7 C 8,0 km/h (2 Bft)
18.11.2019 08:49 4,8 C 94 % 1007,2 hPa 0,0 l/m 4,2 km/h (1 Bft) N-NO 24 0 min 0,0 UV-I 0 W/m 3,9 C 4,8 C 6,4 km/h (2 Bft)
18.11.2019 08:48 4,7 C 94 % 1007,2 hPa 0,0 l/m 3,1 km/h (1 Bft) N-NO 22 0 min 0,0 UV-I 3 W/m 3,8 C 4,7 C 4,8 km/h (1 Bft)
18.11.2019 08:47 4,8 C 94 % 1007,0 hPa 0,0 l/m 1,8 km/h (1 Bft) N-NO 21 0 min 0,0 UV-I 5 W/m 3,9 C 4,8 C 3,2 km/h (1 Bft)
18.11.2019 08:46 4,7 C 94 % 1007,0 hPa 0,0 l/m 4,1 km/h (1 Bft) N 5 0 min 0,0 UV-I 5 W/m 3,8 C 4,7 C 6,4 km/h (2 Bft)
18.11.2019 08:45 4,8 C 94 % 1006,9 hPa 0,0 l/m 3,4 km/h (1 Bft) N-NO 22 0 min 0,0 UV-I 5 W/m 3,9 C 4,8 C 6,4 km/h (2 Bft)
18.11.2019 08:44 4,8 C 94 % 1006,9 hPa 0,0 l/m 2,4 km/h (1 Bft) NO 38 0 min 0,0 UV-I 5 W/m 3,9 C 4,8 C 4,8 km/h (1 Bft)
18.11.2019 08:43 4,8 C 94 % 1006,9 hPa 0,0 l/m 2,1 km/h (1 Bft) O-NO 72 0 min 0,0 UV-I 5 W/m 3,9 C 4,8 C 3,2 km/h (1 Bft)
18.11.2019 08:42 4,8 C 94 % 1006,8 hPa 0,0 l/m 2,2 km/h (1 Bft) NO 52 0 min 0,0 UV-I 1 W/m 3,9 C 4,8 C 3,2 km/h (1 Bft)
18.11.2019 08:41 4,8 C 94 % 1006,8 hPa 0,0 l/m 1,5 km/h (1 Bft) NO 44 0 min 0,0 UV-I 0 W/m 3,9 C 4,8 C 3,2 km/h (1 Bft)
18.11.2019 08:40 4,8 C 94 % 1006,8 hPa 0,0 l/m 2,1 km/h (1 Bft) NO 40 0 min 0,0 UV-I 0 W/m 3,9 C 4,8 C 4,8 km/h (1 Bft)
18.11.2019 08:39 4,7 C 94 % 1006,7 hPa 0,0 l/m 2,9 km/h (1 Bft) NO 47 0 min 0,0 UV-I 0 W/m 3,8 C 4,7 C 4,8 km/h (1 Bft)
18.11.2019 08:38 4,8 C 94 % 1006,7 hPa 0,0 l/m 4,3 km/h (1 Bft) O-NO 75 0 min 0,0 UV-I 0 W/m 3,9 C 4,8 C 6,4 km/h (2 Bft)
18.11.2019 08:37 4,8 C 94 % 1006,7 hPa 0,0 l/m 3,2 km/h (1 Bft) N-NO 12 0 min 0,0 UV-I 0 W/m 3,9 C 4,8 C 6,4 km/h (2 Bft)
18.11.2019 08:36 4,8 C 94 % 1006,7 hPa 0,0 l/m 0,0 km/h (0 Bft) O-NO 67 0 min 0,0 UV-I 0 W/m 3,9 C 4,8 C 0,0 km/h (0 Bft)
18.11.2019 08:35 4,8 C 94 % 1006,8 hPa 0,0 l/m 1,0 km/h (0 Bft) O-NO 63 0 min 0,0 UV-I 0 W/m 3,9 C 4,8 C 4,8 km/h (1 Bft)
18.11.2019 08:34 4,8 C 94 % 1006,7 hPa 0,0 l/m 4,3 km/h (1 Bft) NO 34 0 min 0,0 UV-I 0 W/m 3,9 C 4,8 C 6,4 km/h (2 Bft)
18.11.2019 08:33 4,8 C 94 % 1006,7 hPa 0,0 l/m 2,5 km/h (1 Bft) N-NO 24 0 min 0,0 UV-I 0 W/m 3,9 C 4,8 C 4,8 km/h (1 Bft)
18.11.2019 08:32 4,8 C 94 % 1006,7 hPa 0,0 l/m 5,6 km/h (1 Bft) O 82 0 min 0,0 UV-I 0 W/m 3,9 C 4,8 C 11,3 km/h (2 Bft)
18.11.2019 08:31 4,8 C 94 % 1006,7 hPa 0,0 l/m 4,6 km/h (1 Bft) O 86 0 min 0,0 UV-I 0 W/m 3,9 C 4,8 C 6,4 km/h (2 Bft)
18.11.2019 08:30 4,8 C 94 % 1006,7 hPa 0,0 l/m 5,1 km/h (1 Bft) NO 49 0 min 0,0 UV-I 0 W/m 3,9 C 4,8 C 8,0 km/h (2 Bft)
18.11.2019 08:29 4,8 C 94 % 1006,7 hPa 0,0 l/m 4,7 km/h (1 Bft) O-NO 59 0 min 0,0 UV-I 0 W/m 3,9 C 4,8 C 6,4 km/h (2 Bft)
18.11.2019 08:28 4,8 C 94 % 1006,7 hPa 0,0 l/m 4,6 km/h (1 Bft) N-NW 348 0 min 0,0 UV-I 0 W/m 3,9 C 4,8 C 8,0 km/h (2 Bft)
18.11.2019 08:27 4,8 C 94 % 1006,7 hPa 0,0 l/m 0,8 km/h (0 Bft) O-NO 68 0 min 0,0 UV-I 0 W/m 3,9 C 4,8 C 3,2 km/h (1 Bft)
18.11.2019 08:26 4,8 C 94 % 1006,6 hPa 0,0 l/m 3,7 km/h (1 Bft) O-NO 71 0 min 0,0 UV-I 0 W/m 3,9 C 4,8 C 6,4 km/h (2 Bft)
18.11.2019 08:25 4,8 C 94 % 1006,6 hPa 0,0 l/m 1,9 km/h (1 Bft) N 5 0 min 0,0 UV-I 0 W/m 3,9 C 4,8 C 4,8 km/h (1 Bft)
18.11.2019 08:24 4,8 C 94 % 1006,6 hPa 0,0 l/m 1,2 km/h (1 Bft) O-NO 58 0 min 0,0 UV-I 0 W/m 3,9 C 4,8 C 4,8 km/h (1 Bft)
18.11.2019 08:23 4,8 C 94 % 1006,6 hPa 0,0 l/m 4,7 km/h (1 Bft) NO 46 0 min 0,0 UV-I 0 W/m 3,9 C 4,8 C 6,4 km/h (2 Bft)
18.11.2019 08:22 4,8 C 94 % 1006,6 hPa 0,0 l/m 5,7 km/h (1 Bft) N-NO 14 0 min 0,0 UV-I 1 W/m 3,9 C 4,8 C 11,3 km/h (2 Bft)
18.11.2019 08:21 4,8 C 94 % 1006,6 hPa 0,0 l/m 0,0 km/h (0 Bft) N-NO 25 0 min 0,0 UV-I 5 W/m 3,9 C 4,8 C 0,0 km/h (0 Bft)
18.11.2019 08:20 4,8 C 94 % 1006,6 hPa 0,0 l/m 0,0 km/h (0 Bft) N-NO 25 0 min 0,0 UV-I 5 W/m 3,9 C 4,8 C 0,0 km/h (0 Bft)
18.11.2019 08:19 4,8 C 94 % 1006,5 hPa 0,0 l/m 0,0 km/h (0 Bft) N-NO 25 0 min 0,0 UV-I 5 W/m 3,9 C 4,8 C 0,0 km/h (0 Bft)
18.11.2019 08:18 4,8 C 94 % 1006,4 hPa 0,0 l/m 2,0 km/h (1 Bft) N-NO 25 0 min 0,0 UV-I 5 W/m 3,9 C 4,8 C 4,8 km/h (1 Bft)
18.11.2019 08:17 4,8 C 94 % 1006,4 hPa 0,0 l/m 1,8 km/h (1 Bft) N-NO 23 0 min 0,0 UV-I 5 W/m 3,9 C 4,8 C 4,8 km/h (1 Bft)
18.11.2019 08:16 4,8 C 94 % 1006,4 hPa 0,0 l/m 0,1 km/h (0 Bft) NO 37 0 min 0,0 UV-I 5 W/m 3,9 C 4,8 C 1,6 km/h (1 Bft)
18.11.2019 08:15 4,8 C 94 % 1006,4 hPa 0,0 l/m 0,7 km/h (0 Bft) NO 37 0 min 0,0 UV-I 6 W/m 3,9 C 4,8 C 3,2 km/h (1 Bft)
18.11.2019 08:14 4,8 C 94 % 1006,4 hPa 0,0 l/m 0,3 km/h (0 Bft) NO 42 0 min 0,0 UV-I 6 W/m 3,9 C 4,8 C 3,2 km/h (1 Bft)
18.11.2019 08:13 4,8 C 94 % 1006,4 hPa 0,0 l/m 2,9 km/h (1 Bft) NO 38 0 min 0,0 UV-I 6 W/m 3,9 C 4,8 C 4,8 km/h (1 Bft)
18.11.2019 08:12 4,8 C 94 % 1006,3 hPa 0,0 l/m 3,9 km/h (1 Bft) O-NO 68 0 min 0,0 UV-I 7 W/m 3,9 C 4,8 C 6,4 km/h (2 Bft)
18.11.2019 08:11 4,8 C 94 % 1006,3 hPa 0,0 l/m 2,1 km/h (1 Bft) O-NO 59 0 min 0,0 UV-I 7 W/m 3,9 C 4,8 C 3,2 km/h (1 Bft)
18.11.2019 08:10 4,8 C 94 % 1006,2 hPa 0,0 l/m 2,2 km/h (1 Bft) NO 40 0 min 0,0 UV-I 10 W/m 3,9 C 4,8 C 3,2 km/h (1 Bft)
18.11.2019 08:09 4,8 C 94 % 1006,2 hPa 0,0 l/m 2,9 km/h (1 Bft) N-NO 30 0 min 0,0 UV-I 11 W/m 3,9 C 4,8 C 4,8 km/h (1 Bft)
18.11.2019 08:08 4,8 C 94 % 1006,2 hPa 0,0 l/m 1,5 km/h (1 Bft) O-NO 75 0 min 0,0 UV-I 11 W/m 3,9 C 4,8 C 3,2 km/h (1 Bft)
18.11.2019 08:07 4,8 C 94 % 1006,2 hPa 0,0 l/m 3,8 km/h (1 Bft) O-NO 75 0 min 0,0 UV-I 9 W/m 3,9 C 4,8 C 6,4 km/h (2 Bft)
18.11.2019 08:06 4,8 C 94 % 1006,2 hPa 0,0 l/m 3,5 km/h (1 Bft) O-NO 68 0 min 0,0 UV-I 9 W/m 3,9 C 4,8 C 6,4 km/h (2 Bft)
18.11.2019 08:05 4,8 C 94 % 1006,3 hPa 0,0 l/m 4,5 km/h (1 Bft) O-SO 106 0 min 0,0 UV-I 9 W/m 3,9 C 4,8 C 9,7 km/h (2 Bft)
18.11.2019 08:04 4,8 C 94 % 1006,4 hPa 0,0 l/m 3,6 km/h (1 Bft) NO 40 0 min 0,0 UV-I 7 W/m 3,9 C 4,8 C 4,8 km/h (1 Bft)
18.11.2019 08:03 4,8 C 94 % 1006,3 hPa 0,0 l/m 3,3 km/h (1 Bft) N-NO 24 0 min 0,0 UV-I 6 W/m 3,9 C 4,8 C 4,8 km/h (1 Bft)
18.11.2019 08:02 4,8 C 94 % 1006,3 hPa 0,0 l/m 2,2 km/h (1 Bft) N-NO 23 0 min 0,0 UV-I 5 W/m 3,9 C 4,8 C 6,4 km/h (2 Bft)
18.11.2019 08:01 4,8 C 94 % 1006,3 hPa 0,0 l/m 1,5 km/h (1 Bft) O 85 0 min 0,0 UV-I 5 W/m 3,9 C 4,8 C 4,8 km/h (1 Bft)
18.11.2019 08:00 4,8 C 94 % 1006,3 hPa 0,0 l/m 2,7 km/h (1 Bft) NO 47 0 min 0,0 UV-I 5 W/m 3,9 C 4,8 C 4,8 km/h (1 Bft)
18.11.2019 07:59 4,8 C 94 % 1006,3 hPa 0,0 l/m 0,0 km/h (0 Bft) N-NO 31 0 min 0,0 UV-I 0 W/m 3,9 C 4,8 C 0,0 km/h (0 Bft)
18.11.2019 07:58 4,8 C 94 % 1006,3 hPa 0,0 l/m 0,0 km/h (0 Bft) N-NO 31 0 min 0,0 UV-I 0 W/m 3,9 C 4,8 C 0,0 km/h (0 Bft)
18.11.2019 07:57 4,8 C 94 % 1006,3 hPa 0,0 l/m 0,0 km/h (0 Bft) N-NO 31 0 min 0,0 UV-I 0 W/m 3,9 C 4,8 C 0,0 km/h (0 Bft)
18.11.2019 07:56 4,8 C 94 % 1006,4 hPa 0,0 l/m 2,5 km/h (1 Bft) N-NO 31 0 min 0,0 UV-I 0 W/m 3,9 C 4,8 C 8,0 km/h (2 Bft)
18.11.2019 07:55 4,8 C 94 % 1006,4 hPa 0,0 l/m 2,5 km/h (1 Bft) N-NO 13 0 min 0,0 UV-I 0 W/m 3,9 C 4,8 C 6,4 km/h (2 Bft)
18.11.2019 07:54 4,8 C 94 % 1006,4 hPa 0,0 l/m 3,9 km/h (1 Bft) NO 56 0 min 0,0 UV-I 0 W/m 3,9 C 4,8 C 8,0 km/h (2 Bft)
18.11.2019 07:53 4,8 C 94 % 1006,4 hPa 0,0 l/m 4,1 km/h (1 Bft) NO 42 0 min 0,0 UV-I 0 W/m 3,9 C 4,8 C 6,4 km/h (2 Bft)
18.11.2019 07:52 4,8 C 94 % 1006,4 hPa 0,0 l/m 4,8 km/h (1 Bft) NO 37 0 min 0,0 UV-I 0 W/m 3,9 C 4,8 C 6,4 km/h (2 Bft)
18.11.2019 07:51 4,8 C 94 % 1006,4 hPa 0,0 l/m 5,2 km/h (1 Bft) N-NO 14 0 min 0,0 UV-I 0 W/m 3,9 C 4,8 C 9,7 km/h (2 Bft)
18.11.2019 07:50 4,8 C 94 % 1006,4 hPa 0,0 l/m 8,0 km/h (2 Bft) N-NO 33 0 min 0,0 UV-I 0 W/m 3,9 C 3,4 C 12,9 km/h (3 Bft)
18.11.2019 07:49 4,8 C 95 % 1006,4 hPa 0,0 l/m 6,1 km/h (2 Bft) N-NO 27 0 min 0,0 UV-I 0 W/m 4,1 C 4,8 C 9,7 km/h (2 Bft)
18.11.2019 07:48 4,8 C 95 % 1006,4 hPa 0,0 l/m 3,9 km/h (1 Bft) O-NO 75 0 min 0,0 UV-I 0 W/m 4,1 C 4,8 C 8,0 km/h (2 Bft)
18.11.2019 07:47 4,8 C 95 % 1006,4 hPa 0,0 l/m 5,0 km/h (1 Bft) NO 44 0 min 0,0 UV-I 0 W/m 4,1 C 4,8 C 8,0 km/h (2 Bft)
18.11.2019 07:46 4,8 C 95 % 1006,4 hPa 0,0 l/m 0,1 km/h (0 Bft) N-NO 32 0 min 0,0 UV-I 0 W/m 4,1 C 4,8 C 1,6 km/h (1 Bft)
18.11.2019 07:45 4,8 C 95 % 1006,4 hPa 0,0 l/m 2,1 km/h (1 Bft) N-NO 32 0 min 0,0 UV-I 0 W/m 4,1 C 4,8 C 4,8 km/h (1 Bft)
18.11.2019 07:44 4,8 C 95 % 1006,4 hPa 0,0 l/m 2,3 km/h (1 Bft) NO 49 0 min 0,0 UV-I 0 W/m 4,1 C 4,8 C 4,8 km/h (1 Bft)
18.11.2019 07:43 4,8 C 95 % 1006,3 hPa 0,0 l/m 0,3 km/h (0 Bft) NO 36 0 min 0,0 UV-I 0 W/m 4,1 C 4,8 C 1,6 km/h (1 Bft)
18.11.2019 07:42 4,8 C 95 % 1006,4 hPa 0,0 l/m 2,0 km/h (1 Bft) NO 36 0 min 0,0 UV-I 0 W/m 4,1 C 4,8 C 3,2 km/h (1 Bft)
18.11.2019 07:41 4,8 C 95 % 1006,4 hPa 0,0 l/m 4,7 km/h (1 Bft) NO 49 0 min 0,0 UV-I 0 W/m 4,1 C 4,8 C 6,4 km/h (2 Bft)
18.11.2019 07:40 4,8 C 95 % 1006,4 hPa 0,0 l/m 4,9 km/h (1 Bft) N-NO 27 0 min 0,0 UV-I 0 W/m 4,1 C 4,8 C 6,4 km/h (2 Bft)
18.11.2019 07:39 4,8 C 95 % 1006,4 hPa 0,0 l/m 4,7 km/h (1 Bft) N-NO 28 0 min 0,0 UV-I 0 W/m 4,1 C 4,8 C 8,0 km/h (2 Bft)
18.11.2019 07:38 4,8 C 95 % 1006,4 hPa 0,0 l/m 3,8 km/h (1 Bft) NO 46 0 min 0,0 UV-I 0 W/m 4,1 C 4,8 C 6,4 km/h (2 Bft)
18.11.2019 07:37 4,9 C 95 % 1006,4 hPa 0,0 l/m 1,7 km/h (1 Bft) NO 41 0 min 0,0 UV-I 0 W/m 4,2 C 4,9 C 3,2 km/h (1 Bft)
18.11.2019 07:36 4,9 C 95 % 1006,4 hPa 0,0 l/m 4,2 km/h (1 Bft) N 5 0 min 0,0 UV-I 0 W/m 4,2 C 4,9 C 6,4 km/h (2 Bft)
18.11.2019 07:35 4,8 C 95 % 1006,4 hPa 0,0 l/m 6,0 km/h (2 Bft) NO 55 0 min 0,0 UV-I 0 W/m 4,1 C 4,8 C 8,0 km/h (2 Bft)
18.11.2019 07:34 4,9 C 95 % 1006,4 hPa 0,0 l/m 5,5 km/h (1 Bft) NO 36 0 min 0,0 UV-I 0 W/m 4,2 C 4,9 C 8,0 km/h (2 Bft)
18.11.2019 07:33 4,9 C 95 % 1006,4 hPa 0,0 l/m 5,9 km/h (2 Bft) NO 50 0 min 0,0 UV-I 0 W/m 4,2 C 4,9 C 8,0 km/h (2 Bft)
18.11.2019 07:32 4,9 C 95 % 1006,4 hPa 0,0 l/m 5,8 km/h (2 Bft) N-NO 13 0 min 0,0 UV-I 0 W/m 4,2 C 4,9 C 8,0 km/h (2 Bft)
18.11.2019 07:31 4,9 C 95 % 1006,3 hPa 0,0 l/m 6,8 km/h (2 Bft) NO 36 0 min 0,0 UV-I 0 W/m 4,2 C 4,6 C 12,9 km/h (3 Bft)
18.11.2019 07:30 4,9 C 95 % 1006,3 hPa 0,0 l/m 7,2 km/h (2 Bft) N-NO 29 0 min 0,0 UV-I 0 W/m 4,2 C 4,2 C 11,3 km/h (2 Bft)
18.11.2019 07:29 4,9 C 95 % 1006,2 hPa 0,0 l/m 5,0 km/h (1 Bft) N 355 0 min 0,0 UV-I 0 W/m 4,2 C 4,9 C 6,4 km/h (2 Bft)
18.11.2019 07:28 4,9 C 95 % 1006,2 hPa 0,0 l/m 3,4 km/h (1 Bft) NO 42 0 min 0,0 UV-I 0 W/m 4,2 C 4,9 C 4,8 km/h (1 Bft)
18.11.2019 07:27 4,9 C 95 % 1006,1 hPa 0,0 l/m 3,8 km/h (1 Bft) N-NO 24 0 min 0,0 UV-I 0 W/m 4,2 C 4,9 C 4,8 km/h (1 Bft)
18.11.2019 07:26 4,9 C 95 % 1006,0 hPa 0,0 l/m 3,6 km/h (1 Bft) NO 48 0 min 0,0 UV-I 0 W/m 4,2 C 4,9 C 6,4 km/h (2 Bft)
18.11.2019 07:25 4,9 C 95 % 1006,1 hPa 0,0 l/m 5,6 km/h (1 Bft) NO 42 0 min 0,0 UV-I 0 W/m 4,2 C 4,9 C 6,4 km/h (2 Bft)
18.11.2019 07:24 4,9 C 95 % 1006,0 hPa 0,0 l/m 3,7 km/h (1 Bft) N-NO 21 0 min 0,0 UV-I 0 W/m 4,2 C 4,9 C 6,4 km/h (2 Bft)
18.11.2019 07:23 4,9 C 95 % 1006,1 hPa 0,0 l/m 0,1 km/h (0 Bft) O-NO 76 0 min 0,0 UV-I 0 W/m 4,2 C 4,9 C 1,6 km/h (1 Bft)
18.11.2019 07:22 4,9 C 95 % 1006,1 hPa 0,0 l/m 3,2 km/h (1 Bft) N-NO 31 0 min 0,0 UV-I 0 W/m 4,2 C 4,9 C 6,4 km/h (2 Bft)
18.11.2019 07:21 4,9 C 95 % 1006,1 hPa 0,0 l/m 5,6 km/h (1 Bft) NO 39 0 min 0,0 UV-I 0 W/m 4,2 C 4,9 C 8,0 km/h (2 Bft)
18.11.2019 07:20 4,9 C 95 % 1006,1 hPa 0,0 l/m 2,3 km/h (1 Bft) N 360 0 min 0,0 UV-I 0 W/m 4,2 C 4,9 C 4,8 km/h (1 Bft)
18.11.2019 07:19 4,9 C 95 % 1006,1 hPa 0,0 l/m 0,0 km/h (0 Bft) NO 41 0 min 0,0 UV-I 0 W/m 4,2 C 4,9 C 0,0 km/h (0 Bft)
18.11.2019 07:18 4,9 C 95 % 1006,1 hPa 0,0 l/m 0,0 km/h (0 Bft) NO 41 0 min 0,0 UV-I 0 W/m 4,2 C 4,9 C 0,0 km/h (0 Bft)
18.11.2019 07:17 4,9 C 94 % 1006,0 hPa 0,0 l/m 0,0 km/h (0 Bft) NO 45 0 min 0,0 UV-I 0 W/m 4,0 C 4,9 C 0,0 km/h (0 Bft)
18.11.2019 07:16 4,9 C 94 % 1006,0 hPa 0,0 l/m 0,0 km/h (0 Bft) NO 45 0 min 0,0 UV-I 0 W/m 4,0 C 4,9 C 0,0 km/h (0 Bft)
18.11.2019 07:15 4,9 C 94 % 1006,0 hPa 0,0 l/m 0,0 km/h (0 Bft) NO 41 0 min 0,0 UV-I 0 W/m 4,0 C 4,9 C 0,0 km/h (0 Bft)
18.11.2019 07:14 4,9 C 94 % 1006,0 hPa 0,0 l/m 0,0 km/h (0 Bft) N-NO 29 0 min 0,0 UV-I 0 W/m 4,0 C 4,9 C 0,0 km/h (0 Bft)
18.11.2019 07:13 4,9 C 94 % 1005,8 hPa 0,0 l/m 0,3 km/h (0 Bft) N-NO 29 0 min 0,0 UV-I 0 W/m 4,0 C 4,9 C 1,6 km/h (1 Bft)
18.11.2019 07:12 4,9 C 94 % 1005,9 hPa 0,0 l/m 3,0 km/h (1 Bft) N-NO 17 0 min 0,0 UV-I 0 W/m 4,0 C 4,9 C 6,4 km/h (2 Bft)
18.11.2019 07:11 4,9 C 94 % 1005,8 hPa 0,0 l/m 2,7 km/h (1 Bft) N-NO 28 0 min 0,0 UV-I 0 W/m 4,0 C 4,9 C 4,8 km/h (1 Bft)
18.11.2019 07:10 5,0 C 94 % 1005,8 hPa 0,0 l/m 0,5 km/h (0 Bft) N-NO 33 0 min 0,0 UV-I 0 W/m 4,1 C 5,0 C 3,2 km/h (1 Bft)
18.11.2019 07:09 5,0 C 94 % 1005,7 hPa 0,0 l/m 1,6 km/h (1 Bft) NO 42 0 min 0,0 UV-I 0 W/m 4,1 C 5,0 C 4,8 km/h (1 Bft)
18.11.2019 07:08 5,0 C 94 % 1005,7 hPa 0,0 l/m 0,0 km/h (0 Bft) O-NO 63 0 min 0,0 UV-I 0 W/m 4,1 C 5,0 C 0,0 km/h (0 Bft)
18.11.2019 07:07 5,0 C 94 % 1005,7 hPa 0,0 l/m 0,1 km/h (0 Bft) O-NO 65 0 min 0,0 UV-I 0 W/m 4,1 C 5,0 C 1,6 km/h (1 Bft)
18.11.2019 07:06 5,0 C 94 % 1005,7 hPa 0,0 l/m 2,5 km/h (1 Bft) O-NO 71 0 min 0,0 UV-I 0 W/m 4,1 C 5,0 C 6,4 km/h (2 Bft)
18.11.2019 07:05 5,0 C 94 % 1005,7 hPa 0,2 l/m 3,6 km/h (1 Bft) N-NO 17 0 min 0,0 UV-I 0 W/m 4,1 C 5,0 C 8,0 km/h (2 Bft)
18.11.2019 07:04 5,0 C 94 % 1005,7 hPa 0,0 l/m 1,0 km/h (0 Bft) NO 56 0 min 0,0 UV-I 0 W/m 4,1 C 5,0 C 4,8 km/h (1 Bft)
18.11.2019 07:03 5,0 C 94 % 1005,8 hPa 0,0 l/m 0,0 km/h (0 Bft) O-NO 57 0 min 0,0 UV-I 0 W/m 4,1 C 5,0 C 0,0 km/h (0 Bft)
18.11.2019 07:02 5,0 C 94 % 1005,7 hPa 0,0 l/m 0,0 km/h (0 Bft) O-NO 57 0 min 0,0 UV-I 0 W/m 4,1 C 5,0 C 0,0 km/h (0 Bft)
18.11.2019 07:01 5,1 C 94 % 1005,7 hPa 0,0 l/m 1,9 km/h (1 Bft) O-NO 57 0 min 0,0 UV-I 0 W/m 4,2 C 5,1 C 4,8 km/h (1 Bft)
18.11.2019 07:00 5,0 C 94 % 1005,7 hPa 0,0 l/m 1,0 km/h (0 Bft) NO 38 0 min 0,0 UV-I 0 W/m 4,1 C 5,0 C 4,8 km/h (1 Bft)
18.11.2019 06:59 5,1 C 94 % 1005,7 hPa 0,0 l/m 0,0 km/h (0 Bft) NO 54 0 min 0,0 UV-I 0 W/m 4,2 C 5,1 C 0,0 km/h (0 Bft)
18.11.2019 06:58 5,1 C 94 % 1005,7 hPa 0,0 l/m 0,0 km/h (0 Bft) NO 56 0 min 0,0 UV-I 0 W/m 4,2 C 5,1 C 0,0 km/h (0 Bft)
18.11.2019 06:57 5,1 C 94 % 1005,7 hPa 0,0 l/m 0,0 km/h (0 Bft) NO 56 0 min 0,0 UV-I 0 W/m 4,2 C 5,1 C 0,0 km/h (0 Bft)
18.11.2019 06:56 5,1 C 94 % 1005,7 hPa 0,0 l/m 0,0 km/h (0 Bft) NO 49 0 min 0,0 UV-I 0 W/m 4,2 C 5,1 C 0,0 km/h (0 Bft)
18.11.2019 06:55 5,1 C 94 % 1005,7 hPa 0,0 l/m 0,0 km/h (0 Bft) NO 49 0 min 0,0 UV-I 0 W/m 4,2 C 5,1 C 0,0 km/h (0 Bft)
18.11.2019 06:54 5,1 C 94 % 1005,7 hPa 0,0 l/m 0,0 km/h (0 Bft) NO 49 0 min 0,0 UV-I 0 W/m 4,2 C 5,1 C 0,0 km/h (0 Bft)
18.11.2019 06:53 5,1 C 94 % 1005,7 hPa 0,0 l/m 2,7 km/h (1 Bft) NO 46 0 min 0,0 UV-I 0 W/m 4,2 C 5,1 C 6,4 km/h (2 Bft)
18.11.2019 06:52 5,1 C 94 % 1005,7 hPa 0,0 l/m 0,1 km/h (0 Bft) O-NO 76 0 min 0,0 UV-I 0 W/m 4,2 C 5,1 C 1,6 km/h (1 Bft)
18.11.2019 06:51 5,1 C 94 % 1005,7 hPa 0,0 l/m 0,0 km/h (0 Bft) O 90 0 min 0,0 UV-I 0 W/m 4,2 C 5,1 C 0,0 km/h (0 Bft)
18.11.2019 06:50 5,1 C 94 % 1005,7 hPa 0,0 l/m 0,0 km/h (0 Bft) N-NO 28 0 min 0,0 UV-I 0 W/m 4,2 C 5,1 C 0,0 km/h (0 Bft)
18.11.2019 06:49 5,1 C 94 % 1005,7 hPa 0,0 l/m 0,0 km/h (0 Bft) N-NO 26 0 min 0,0 UV-I 0 W/m 4,2 C 5,1 C 0,0 km/h (0 Bft)
18.11.2019 06:48 5,1 C 94 % 1005,7 hPa 0,0 l/m 0,0 km/h (0 Bft) N-NO 26 0 min 0,0 UV-I 0 W/m 4,2 C 5,1 C 0,0 km/h (0 Bft)
18.11.2019 06:47 5,1 C 94 % 1005,7 hPa 0,0 l/m 0,0 km/h (0 Bft) N-NO 26 0 min 0,0 UV-I 0 W/m 4,2 C 5,1 C 0,0 km/h (0 Bft)
18.11.2019 06:46 5,1 C 94 % 1005,7 hPa 0,0 l/m 2,4 km/h (1 Bft) N-NO 26 0 min 0,0 UV-I 0 W/m 4,2 C 5,1 C 8,0 km/h (2 Bft)
18.11.2019 06:45 5,1 C 94 % 1005,6 hPa 0,0 l/m 3,1 km/h (1 Bft) N-NO 12 0 min 0,0 UV-I 0 W/m 4,2 C 5,1 C 8,0 km/h (2 Bft)
18.11.2019 06:44 5,1 C 94 % 1005,6 hPa 0,0 l/m 2,4 km/h (1 Bft) O 85 0 min 0,0 UV-I 0 W/m 4,2 C 5,1 C 6,4 km/h (2 Bft)
18.11.2019 06:43 5,1 C 94 % 1005,7 hPa 0,0 l/m 0,7 km/h (0 Bft) NO 34 0 min 0,0 UV-I 0 W/m 4,2 C 5,1 C 3,2 km/h (1 Bft)
18.11.2019 06:42 5,1 C 94 % 1005,6 hPa 0,0 l/m 0,0 km/h (0 Bft) O-NO 78 0 min 0,0 UV-I 0 W/m 4,2 C 5,1 C 0,0 km/h (0 Bft)
18.11.2019 06:41 5,1 C 94 % 1005,6 hPa 0,0 l/m 0,0 km/h (0 Bft) O-NO 78 0 min 0,0 UV-I 0 W/m 4,2 C 5,1 C 0,0 km/h (0 Bft)
18.11.2019 06:40 5,1 C 94 % 1005,6 hPa 0,0 l/m 1,0 km/h (0 Bft) O-NO 74 0 min 0,0 UV-I 0 W/m 4,2 C 5,1 C 3,2 km/h (1 Bft)
18.11.2019 06:39 5,1 C 94 % 1005,6 hPa 0,0 l/m 2,6 km/h (1 Bft) NO 53 0 min 0,0 UV-I 0 W/m 4,2 C 5,1 C 4,8 km/h (1 Bft)
18.11.2019 06:38 5,1 C 94 % 1005,6 hPa 0,0 l/m 3,2 km/h (1 Bft) NO 53 0 min 0,0 UV-I 0 W/m 4,2 C 5,1 C 4,8 km/h (1 Bft)
18.11.2019 06:37 5,1 C 94 % 1005,5 hPa 0,0 l/m 2,3 km/h (1 Bft) NO 40 0 min 0,0 UV-I 0 W/m 4,2 C 5,1 C 6,4 km/h (2 Bft)
18.11.2019 06:36 5,1 C 94 % 1005,5 hPa 0,0 l/m 0,0 km/h (0 Bft) O-NO 66 0 min 0,0 UV-I 0 W/m 4,2 C 5,1 C 0,0 km/h (0 Bft)
18.11.2019 06:35 5,1 C 95 % 1005,5 hPa 0,0 l/m 3,5 km/h (1 Bft) O 88 0 min 0,0 UV-I 0 W/m 4,4 C 5,1 C 8,0 km/h (2 Bft)
18.11.2019 06:34 5,1 C 94 % 1005,6 hPa 0,0 l/m 3,6 km/h (1 Bft) N-NO 22 0 min 0,0 UV-I 0 W/m 4,2 C 5,1 C 6,4 km/h (2 Bft)
18.11.2019 06:33 5,1 C 94 % 1005,6 hPa 0,0 l/m 2,7 km/h (1 Bft) N-NO 14 0 min 0,0 UV-I 0 W/m 4,2 C 5,1 C 4,8 km/h (1 Bft)
18.11.2019 06:32 5,1 C 95 % 1005,5 hPa 0,0 l/m 1,1 km/h (1 Bft) N-NO 31 0 min 0,0 UV-I 0 W/m 4,4 C 5,1 C 4,8 km/h (1 Bft)
18.11.2019 06:31 5,1 C 95 % 1005,5 hPa 0,0 l/m 0,9 km/h (0 Bft) N-NO 28 0 min 0,0 UV-I 0 W/m 4,4 C 5,1 C 6,4 km/h (2 Bft)
18.11.2019 06:30 5,1 C 95 % 1005,5 hPa 0,0 l/m 0,8 km/h (0 Bft) N 360 0 min 0,0 UV-I 0 W/m 4,4 C 5,1 C 3,2 km/h (1 Bft)
18.11.2019 06:29 5,2 C 95 % 1005,5 hPa 0,0 l/m 0,0 km/h (0 Bft) N-NO 17 0 min 0,0 UV-I 0 W/m 4,5 C 5,2 C 0,0 km/h (0 Bft)
18.11.2019 06:28 5,2 C 95 % 1005,5 hPa 0,0 l/m 0,8 km/h (0 Bft) NO 47 0 min 0,0 UV-I 0 W/m 4,5 C 5,2 C 4,8 km/h (1 Bft)
18.11.2019 06:27 5,2 C 95 % 1005,4 hPa 0,0 l/m 1,8 km/h (1 Bft) N 355 0 min 0,0 UV-I 0 W/m 4,5 C 5,2 C 4,8 km/h (1 Bft)
18.11.2019 06:26 5,2 C 95 % 1005,5 hPa 0,0 l/m 5,7 km/h (1 Bft) N-NO 28 0 min 0,0 UV-I 0 W/m 4,5 C 5,2 C 9,7 km/h (2 Bft)
18.11.2019 06:25 5,2 C 95 % 1005,4 hPa 0,0 l/m 2,8 km/h (1 Bft) NO 55 0 min 0,0 UV-I 0 W/m 4,5 C 5,2 C 8,0 km/h (2 Bft)
18.11.2019 06:24 5,2 C 94 % 1005,4 hPa 0,0 l/m 2,7 km/h (1 Bft) N-NO 26 0 min 0,0 UV-I 0 W/m 4,3 C 5,2 C 11,3 km/h (2 Bft)
18.11.2019 06:23 5,2 C 94 % 1005,3 hPa 0,0 l/m 0,2 km/h (0 Bft) N-NO 32 0 min 0,0 UV-I 0 W/m 4,3 C 5,2 C 1,6 km/h (1 Bft)
18.11.2019 06:22 5,2 C 94 % 1005,4 hPa 0,0 l/m 1,2 km/h (1 Bft) O 81 0 min 0,0 UV-I 0 W/m 4,3 C 5,2 C 6,4 km/h (2 Bft)
18.11.2019 06:21 5,2 C 95 % 1005,4 hPa 0,0 l/m 3,2 km/h (1 Bft) N-NO 20 0 min 0,0 UV-I 0 W/m 4,5 C 5,2 C 12,9 km/h (3 Bft)
18.11.2019 06:20 5,2 C 95 % 1005,4 hPa 0,0 l/m 0,1 km/h (0 Bft) N 5 0 min 0,0 UV-I 0 W/m 4,5 C 5,2 C 1,6 km/h (1 Bft)
18.11.2019 06:19 5,2 C 95 % 1005,3 hPa 0,0 l/m 0,4 km/h (0 Bft) NO 50 0 min 0,0 UV-I 0 W/m 4,5 C 5,2 C 4,8 km/h (1 Bft)
18.11.2019 06:18 5,2 C 95 % 1005,2 hPa 0,0 l/m 3,8 km/h (1 Bft) NO 38 0 min 0,0 UV-I 0 W/m 4,5 C 5,2 C 8,0 km/h (2 Bft)
18.11.2019 06:17 5,2 C 95 % 1005,2 hPa 0,0 l/m 0,1 km/h (0 Bft) N-NO 17 0 min 0,0 UV-I 0 W/m 4,5 C 5,2 C 1,6 km/h (1 Bft)
18.11.2019 06:16 5,2 C 95 % 1005,2 hPa 0,0 l/m 0,3 km/h (0 Bft) N-NO 27 0 min 0,0 UV-I 0 W/m 4,5 C 5,2 C 1,6 km/h (1 Bft)
18.11.2019 06:15 5,2 C 95 % 1005,2 hPa 0,0 l/m 4,3 km/h (1 Bft) O-NO 59 0 min 0,0 UV-I 0 W/m 4,5 C 5,2 C 8,0 km/h (2 Bft)
18.11.2019 06:14 5,2 C 95 % 1005,2 hPa 0,0 l/m 7,8 km/h (2 Bft) N 350 0 min 0,0 UV-I 0 W/m 4,5 C 4,0 C 12,9 km/h (3 Bft)
18.11.2019 06:13 5,2 C 95 % 1005,2 hPa 0,0 l/m 6,4 km/h (2 Bft) O-NO 67 0 min 0,0 UV-I 0 W/m 4,5 C 5,2 C 9,7 km/h (2 Bft)
18.11.2019 06:12 5,2 C 95 % 1005,2 hPa 0,0 l/m 5,2 km/h (1 Bft) N 10 0 min 0,0 UV-I 0 W/m 4,5 C 5,2 C 8,0 km/h (2 Bft)
18.11.2019 06:11 5,2 C 95 % 1005,2 hPa 0,0 l/m 7,1 km/h (2 Bft) O-NO 78 0 min 0,0 UV-I 0 W/m 4,5 C 4,6 C 12,9 km/h (3 Bft)
18.11.2019 06:10 5,2 C 95 % 1005,2 hPa 0,0 l/m 4,1 km/h (1 Bft) N 5 0 min 0,0 UV-I 0 W/m 4,5 C 5,2 C 9,7 km/h (2 Bft)
18.11.2019 06:09 5,3 C 95 % 1005,2 hPa 0,0 l/m 6,9 km/h (2 Bft) N-NO 22 0 min 0,0 UV-I 0 W/m 4,6 C 4,9 C 12,9 km/h (3 Bft)
18.11.2019 06:08 5,2 C 95 % 1005,2 hPa 0,0 l/m 0,1 km/h (0 Bft) O-NO 65 0 min 0,0 UV-I 0 W/m 4,5 C 5,2 C 1,6 km/h (1 Bft)
18.11.2019 06:07 5,3 C 95 % 1005,2 hPa 0,0 l/m 0,0 km/h (0 Bft) N-NO 30 0 min 0,0 UV-I 0 W/m 4,6 C 5,3 C 0,0 km/h (0 Bft)
18.11.2019 06:06 5,3 C 95 % 1005,2 hPa 0,0 l/m 0,2 km/h (0 Bft) NO 48 0 min 0,0 UV-I 0 W/m 4,6 C 5,3 C 1,6 km/h (1 Bft)
18.11.2019 06:05 5,3 C 95 % 1005,2 hPa 0,0 l/m 0,6 km/h (0 Bft) NO 49 0 min 0,0 UV-I 0 W/m 4,6 C 5,3 C 3,2 km/h (1 Bft)
18.11.2019 06:04 5,3 C 95 % 1005,2 hPa 0,0 l/m 1,8 km/h (1 Bft) N-NO 15 0 min 0,0 UV-I 0 W/m 4,6 C 5,3 C 8,0 km/h (2 Bft)
18.11.2019 06:03 5,3 C 95 % 1005,2 hPa 0,0 l/m 6,0 km/h (2 Bft) N-NO 26 0 min 0,0 UV-I 0 W/m 4,6 C 5,3 C 9,7 km/h (2 Bft)
18.11.2019 06:02 5,3 C 95 % 1005,2 hPa 0,0 l/m 1,1 km/h (1 Bft) NO 41 0 min 0,0 UV-I 0 W/m 4,6 C 5,3 C 3,2 km/h (1 Bft)
18.11.2019 06:01 5,3 C 95 % 1005,2 hPa 0,0 l/m 0,9 km/h (0 Bft) N-NO 17 0 min 0,0 UV-I 0 W/m 4,6 C 5,3 C 1,6 km/h (1 Bft)
18.11.2019 06:00 5,3 C 95 % 1005,1 hPa 0,0 l/m 0,4 km/h (0 Bft) NO 46 0 min 0,0 UV-I 0 W/m 4,6 C 5,3 C 4,8 km/h (1 Bft)
18.11.2019 05:59 5,3 C 95 % 1005,2 hPa 0,0 l/m 4,4 km/h (1 Bft) N-NO 17 0 min 0,0 UV-I 0 W/m 4,6 C 5,3 C 6,4 km/h (2 Bft)
18.11.2019 05:58 5,3 C 95 % 1005,1 hPa 0,0 l/m 0,7 km/h (0 Bft) N-NO 16 0 min 0,0 UV-I 0 W/m 4,6 C 5,3 C 4,8 km/h (1 Bft)
18.11.2019 05:57 5,3 C 95 % 1005,1 hPa 0,0 l/m 0,2 km/h (0 Bft) NO 47 0 min 0,0 UV-I 0 W/m 4,6 C 5,3 C 1,6 km/h (1 Bft)
18.11.2019 05:56 5,3 C 95 % 1005,1 hPa 0,0 l/m 3,9 km/h (1 Bft) NO 46 0 min 0,0 UV-I 0 W/m 4,6 C 5,3 C 6,4 km/h (2 Bft)
18.11.2019 05:55 5,3 C 95 % 1005,1 hPa 0,0 l/m 4,8 km/h (1 Bft) N-NO 25 0 min 0,0 UV-I 0 W/m 4,6 C 5,3 C 9,7 km/h (2 Bft)
18.11.2019 05:54 5,3 C 95 % 1005,1 hPa 0,0 l/m 3,8 km/h (1 Bft) O-NO 59 0 min 0,0 UV-I 0 W/m 4,6 C 5,3 C 8,0 km/h (2 Bft)
18.11.2019 05:53 5,3 C 95 % 1005,1 hPa 0,0 l/m 5,0 km/h (1 Bft) N-NO 29 0 min 0,0 UV-I 0 W/m 4,6 C 5,3 C 8,0 km/h (2 Bft)
18.11.2019 05:52 5,3 C 95 % 1005,1 hPa 0,0 l/m 2,8 km/h (1 Bft) N-NO 31 0 min 0,0 UV-I 0 W/m 4,6 C 5,3 C 6,4 km/h (2 Bft)
18.11.2019 05:51 5,3 C 95 % 1005,1 hPa 0,0 l/m 0,1 km/h (0 Bft) NO 44 0 min 0,0 UV-I 0 W/m 4,6 C 5,3 C 1,6 km/h (1 Bft)
18.11.2019 05:50 5,3 C 95 % 1005,1 hPa 0,0 l/m 0,1 km/h (0 Bft) NO 44 0 min 0,0 UV-I 0 W/m 4,6 C 5,3 C 1,6 km/h (1 Bft)
18.11.2019 05:49 5,3 C 95 % 1005,0 hPa 0,0 l/m 1,2 km/h (1 Bft) N-NO 30 0 min 0,0 UV-I 0 W/m 4,6 C 5,3 C 3,2 km/h (1 Bft)
18.11.2019 05:48 5,3 C 95 % 1005,0 hPa 0,0 l/m 2,2 km/h (1 Bft) NO 34 0 min 0,0 UV-I 0 W/m 4,6 C 5,3 C 4,8 km/h (1 Bft)
18.11.2019 05:47 5,4 C 95 % 1005,0 hPa 0,0 l/m 0,3 km/h (0 Bft) N 360 0 min 0,0 UV-I 0 W/m 4,7 C 5,4 C 4,8 km/h (1 Bft)
18.11.2019 05:46 5,4 C 95 % 1005,0 hPa 0,0 l/m 3,9 km/h (1 Bft) NO 53 0 min 0,0 UV-I 0 W/m 4,7 C 5,4 C 8,0 km/h (2 Bft)
18.11.2019 05:45 5,4 C 95 % 1005,0 hPa 0,0 l/m 0,2 km/h (0 Bft) O-NO 61 0 min 0,0 UV-I 0 W/m 4,7 C 5,4 C 3,2 km/h (1 Bft)
18.11.2019 05:44 5,4 C 95 % 1004,9 hPa 0,0 l/m 1,7 km/h (1 Bft) NO 54 0 min 0,0 UV-I 0 W/m 4,7 C 5,4 C 6,4 km/h (2 Bft)
18.11.2019 05:43 5,4 C 95 % 1005,0 hPa 0,0 l/m 3,6 km/h (1 Bft) NW 313 0 min 0,0 UV-I 0 W/m 4,7 C 5,4 C 11,3 km/h (2 Bft)
18.11.2019 05:42 5,4 C 95 % 1005,0 hPa 0,0 l/m 0,0 km/h (0 Bft) O-NO 61 0 min 0,0 UV-I 0 W/m 4,7 C 5,4 C 0,0 km/h (0 Bft)
18.11.2019 05:41 5,4 C 95 % 1005,0 hPa 0,0 l/m 1,8 km/h (1 Bft) O-NO 63 0 min 0,0 UV-I 0 W/m 4,7 C 5,4 C 4,8 km/h (1 Bft)
18.11.2019 05:40 5,4 C 95 % 1005,0 hPa 0,0 l/m 3,9 km/h (1 Bft) O 83 0 min 0,0 UV-I 0 W/m 4,7 C 5,4 C 6,4 km/h (2 Bft)
18.11.2019 05:39 5,4 C 95 % 1005,0 hPa 0,0 l/m 8,3 km/h (2 Bft) O-NO 74 0 min 0,0 UV-I 0 W/m 4,7 C 3,8 C 12,9 km/h (3 Bft)
18.11.2019 05:38 5,5 C 95 % 1005,0 hPa 0,0 l/m 3,4 km/h (1 Bft) N 5 0 min 0,0 UV-I 0 W/m 4,8 C 5,5 C 6,4 km/h (2 Bft)
18.11.2019 05:37 5,5 C 95 % 1005,0 hPa 0,0 l/m 4,3 km/h (1 Bft) N 350 0 min 0,0 UV-I 0 W/m 4,8 C 5,5 C 6,4 km/h (2 Bft)
18.11.2019 05:36 5,6 C 95 % 1005,0 hPa 0,0 l/m 3,5 km/h (1 Bft) O-NO 63 0 min 0,0 UV-I 0 W/m 4,9 C 5,6 C 6,4 km/h (2 Bft)
18.11.2019 05:35 5,6 C 95 % 1005,0 hPa 0,0 l/m 3,2 km/h (1 Bft) NO 43 0 min 0,0 UV-I 0 W/m 4,9 C 5,6 C 6,4 km/h (2 Bft)
18.11.2019 05:34 5,6 C 95 % 1005,0 hPa 0,0 l/m 0,5 km/h (0 Bft) NO 42 0 min 0,0 UV-I 0 W/m 4,9 C 5,6 C 3,2 km/h (1 Bft)
18.11.2019 05:33 5,6 C 95 % 1005,0 hPa 0,0 l/m 3,8 km/h (1 Bft) O-NO 75 0 min 0,0 UV-I 0 W/m 4,9 C 5,6 C 8,0 km/h (2 Bft)
18.11.2019 05:32 5,6 C 95 % 1005,0 hPa 0,0 l/m 8,0 km/h (2 Bft) N 9 0 min 0,0 UV-I 0 W/m 4,9 C 4,2 C 14,5 km/h (3 Bft)
18.11.2019 05:31 5,6 C 95 % 1005,0 hPa 0,0 l/m 7,2 km/h (2 Bft) N 350 0 min 0,0 UV-I 0 W/m 4,9 C 4,9 C 11,3 km/h (2 Bft)
18.11.2019 05:30 5,6 C 95 % 1005,0 hPa 0,0 l/m 3,8 km/h (1 Bft) N 360 0 min 0,0 UV-I 0 W/m 4,9 C 5,6 C 8,0 km/h (2 Bft)
18.11.2019 05:29 5,6 C 95 % 1005,0 hPa 0,0 l/m 0,0 km/h (0 Bft) N-NO 30 0 min 0,0 UV-I 0 W/m 4,9 C 5,6 C 0,0 km/h (0 Bft)
18.11.2019 05:28 5,6 C 95 % 1005,0 hPa 0,0 l/m 0,8 km/h (0 Bft) N-NO 30 0 min 0,0 UV-I 0 W/m 4,9 C 5,6 C 3,2 km/h (1 Bft)
18.11.2019 05:27 5,6 C 95 % 1005,0 hPa 0,0 l/m 0,4 km/h (0 Bft) N 355 0 min 0,0 UV-I 0 W/m 4,9 C 5,6 C 3,2 km/h (1 Bft)
18.11.2019 05:26 5,6 C 95 % 1005,0 hPa 0,0 l/m 0,0 km/h (0 Bft) NO 35 0 min 0,0 UV-I 0 W/m 4,9 C 5,6 C 0,0 km/h (0 Bft)
18.11.2019 05:25 5,6 C 95 % 1005,0 hPa 0,0 l/m 0,0 km/h (0 Bft) NO 35 0 min 0,0 UV-I 0 W/m 4,9 C 5,6 C 0,0 km/h (0 Bft)
18.11.2019 05:24 5,6 C 95 % 1005,0 hPa 0,0 l/m 0,0 km/h (0 Bft) NO 35 0 min 0,0 UV-I 0 W/m 4,9 C 5,6 C 0,0 km/h (0 Bft)
18.11.2019 05:23 5,6 C 95 % 1004,9 hPa 0,0 l/m 0,0 km/h (0 Bft) NO 35 0 min 0,0 UV-I 0 W/m 4,9 C 5,6 C 0,0 km/h (0 Bft)
18.11.2019 05:22 5,6 C 95 % 1004,9 hPa 0,0 l/m 0,0 km/h (0 Bft) NO 35 0 min 0,0 UV-I 0 W/m 4,9 C 5,6 C 0,0 km/h (0 Bft)
18.11.2019 05:21 5,6 C 95 % 1004,9 hPa 0,0 l/m 2,2 km/h (1 Bft) N 11 0 min 0,0 UV-I 0 W/m 4,9 C 5,6 C 6,4 km/h (2 Bft)
18.11.2019 05:20 5,6 C 95 % 1004,9 hPa 0,0 l/m 0,8 km/h (0 Bft) NO 35 0 min 0,0 UV-I 0 W/m 4,9 C 5,6 C 6,4 km/h (2 Bft)
18.11.2019 05:19 5,6 C 95 % 1004,9 hPa 0,0 l/m 0,0 km/h (0 Bft) N-NO 31 0 min 0,0 UV-I 0 W/m 4,9 C 5,6 C 0,0 km/h (0 Bft)
18.11.2019 05:18 5,6 C 95 % 1004,9 hPa 0,0 l/m 0,0 km/h (0 Bft) N-NO 31 0 min 0,0 UV-I 0 W/m 4,9 C 5,6 C 0,0 km/h (0 Bft)
18.11.2019 05:17 5,6 C 95 % 1004,9 hPa 0,0 l/m 1,7 km/h (1 Bft) N-NO 31 0 min 0,0 UV-I 0 W/m 4,9 C 5,6 C 6,4 km/h (2 Bft)
18.11.2019 05:16 5,6 C 95 % 1004,9 hPa 0,0 l/m 1,4 km/h (1 Bft) NO 42 0 min 0,0 UV-I 0 W/m 4,9 C 5,6 C 4,8 km/h (1 Bft)
18.11.2019 05:15 5,6 C 95 % 1004,8 hPa 0,0 l/m 4,4 km/h (1 Bft) N-NO 22 0 min 0,0 UV-I 0 W/m 4,9 C 5,6 C 8,0 km/h (2 Bft)
18.11.2019 05:14 5,6 C 95 % 1004,8 hPa 0,0 l/m 2,9 km/h (1 Bft) N-NO 22 0 min 0,0 UV-I 0 W/m 4,9 C 5,6 C 6,4 km/h (2 Bft)
18.11.2019 05:13 5,6 C 95 % 1004,8 hPa 0,0 l/m 2,4 km/h (1 Bft) N-NO 17 0 min 0,0 UV-I 0 W/m 4,9 C 5,6 C 4,8 km/h (1 Bft)
18.11.2019 05:12 5,7 C 95 % 1004,8 hPa 0,0 l/m 2,8 km/h (1 Bft) N-NO 25 0 min 0,0 UV-I 0 W/m 5,0 C 5,7 C 8,0 km/h (2 Bft)
18.11.2019 05:11 5,7 C 95 % 1004,9 hPa 0,0 l/m 2,9 km/h (1 Bft) N-NO 21 0 min 0,0 UV-I 0 W/m 5,0 C 5,7 C 6,4 km/h (2 Bft)
18.11.2019 05:10 5,7 C 95 % 1004,9 hPa 0,0 l/m 3,1 km/h (1 Bft) N-NO 29 0 min 0,0 UV-I 0 W/m 5,0 C 5,7 C 6,4 km/h (2 Bft)
18.11.2019 05:09 5,7 C 95 % 1004,9 hPa 0,0 l/m 0,5 km/h (0 Bft) NO 37 0 min 0,0 UV-I 0 W/m 5,0 C 5,7 C 1,6 km/h (1 Bft)
18.11.2019 05:08 5,7 C 95 % 1004,8 hPa 0,0 l/m 1,0 km/h (0 Bft) NO 45 0 min 0,0 UV-I 0 W/m 5,0 C 5,7 C 3,2 km/h (1 Bft)
18.11.2019 05:07 5,7 C 95 % 1004,8 hPa 0,0 l/m 4,8 km/h (1 Bft) N-NO 31 0 min 0,0 UV-I 0 W/m 5,0 C 5,7 C 8,0 km/h (2 Bft)
18.11.2019 05:06 5,7 C 95 % 1004,8 hPa 0,0 l/m 4,3 km/h (1 Bft) N-NO 31 0 min 0,0 UV-I 0 W/m 5,0 C 5,7 C 9,7 km/h (2 Bft)
18.11.2019 05:05 5,7 C 95 % 1004,8 hPa 0,0 l/m 1,7 km/h (1 Bft) N-NO 30 0 min 0,0 UV-I 0 W/m 5,0 C 5,7 C 6,4 km/h (2 Bft)
18.11.2019 05:04 5,7 C 95 % 1004,7 hPa 0,0 l/m 3,8 km/h (1 Bft) N-NO 17 0 min 0,0 UV-I 0 W/m 5,0 C 5,7 C 6,4 km/h (2 Bft)
18.11.2019 05:03 5,7 C 95 % 1004,6 hPa 0,0 l/m 0,1 km/h (0 Bft) N-NO 32 0 min 0,0 UV-I 0 W/m 5,0 C 5,7 C 1,6 km/h (1 Bft)
18.11.2019 05:02 5,7 C 95 % 1004,6 hPa 0,0 l/m 0,7 km/h (0 Bft) O-NO 67 0 min 0,0 UV-I 0 W/m 5,0 C 5,7 C 4,8 km/h (1 Bft)
18.11.2019 05:01 5,7 C 95 % 1004,6 hPa 0,0 l/m 0,0 km/h (0 Bft) N 5 0 min 0,0 UV-I 0 W/m 5,0 C 5,7 C 0,0 km/h (0 Bft)
18.11.2019 05:00 5,7 C 95 % 1004,6 hPa 0,0 l/m 0,1 km/h (0 Bft) N 355 0 min 0,0 UV-I 0 W/m 5,0 C 5,7 C 1,6 km/h (1 Bft)
18.11.2019 04:59 5,7 C 95 % 1004,6 hPa 0,0 l/m 4,6 km/h (1 Bft) NO 38 0 min 0,0 UV-I 0 W/m 5,0 C 5,7 C 12,9 km/h (3 Bft)
18.11.2019 04:58 5,7 C 95 % 1004,6 hPa 0,0 l/m 5,7 km/h (1 Bft) NO 38 0 min 0,0 UV-I 0 W/m 5,0 C 5,7 C 9,7 km/h (2 Bft)
18.11.2019 04:57 5,7 C 95 % 1004,6 hPa 0,0 l/m 5,5 km/h (1 Bft) N-NO 32 0 min 0,0 UV-I 0 W/m 5,0 C 5,7 C 9,7 km/h (2 Bft)
18.11.2019 04:56 5,7 C 95 % 1004,6 hPa 0,0 l/m 0,3 km/h (0 Bft) N-NO 12 0 min 0,0 UV-I 0 W/m 5,0 C 5,7 C 3,2 km/h (1 Bft)
18.11.2019 04:55 5,7 C 95 % 1004,6 hPa 0,0 l/m 0,0 km/h (0 Bft) O-NO 65 0 min 0,0 UV-I 0 W/m 5,0 C 5,7 C 0,0 km/h (0 Bft)
18.11.2019 04:54 5,7 C 95 % 1004,6 hPa 0,0 l/m 0,1 km/h (0 Bft) O-NO 65 0 min 0,0 UV-I 0 W/m 5,0 C 5,7 C 1,6 km/h (1 Bft)
18.11.2019 04:53 5,7 C 95 % 1004,5 hPa 0,0 l/m 0,0 km/h (0 Bft) O-NO 67 0 min 0,0 UV-I 0 W/m 5,0 C 5,7 C 0,0 km/h (0 Bft)
18.11.2019 04:52 5,7 C 95 % 1004,5 hPa 0,0 l/m 1,6 km/h (1 Bft) O-NO 69 0 min 0,0 UV-I 0 W/m 5,0 C 5,7 C 6,4 km/h (2 Bft)
18.11.2019 04:51 5,7 C 95 % 1004,5 hPa 0,0 l/m 0,1 km/h (0 Bft) O-NO 74 0 min 0,0 UV-I 0 W/m 5,0 C 5,7 C 1,6 km/h (1 Bft)
18.11.2019 04:50 5,7 C 95 % 1004,6 hPa 0,0 l/m 0,0 km/h (0 Bft) O 88 0 min 0,0 UV-I 0 W/m 5,0 C 5,7 C 0,0 km/h (0 Bft)
18.11.2019 04:49 5,7 C 95 % 1004,6 hPa 0,0 l/m 0,0 km/h (0 Bft) O 88 0 min 0,0 UV-I 0 W/m 5,0 C 5,7 C 0,0 km/h (0 Bft)
18.11.2019 04:48 5,7 C 95 % 1004,6 hPa 0,0 l/m 0,0 km/h (0 Bft) O 88 0 min 0,0 UV-I 0 W/m 5,0 C 5,7 C 0,0 km/h (0 Bft)
18.11.2019 04:47 5,7 C 95 % 1004,6 hPa 0,0 l/m 0,0 km/h (0 Bft) O 88 0 min 0,0 UV-I 0 W/m 5,0 C 5,7 C 0,0 km/h (0 Bft)
18.11.2019 04:46 5,7 C 95 % 1004,6 hPa 0,0 l/m 0,0 km/h (0 Bft) O 88 0 min 0,0 UV-I 0 W/m 5,0 C 5,7 C 0,0 km/h (0 Bft)
18.11.2019 04:45 5,7 C 95 % 1004,7 hPa 0,0 l/m 0,0 km/h (0 Bft) O 88 0 min 0,0 UV-I 0 W/m 5,0 C 5,7 C 0,0 km/h (0 Bft)
18.11.2019 04:44 5,7 C 95 % 1004,7 hPa 0,0 l/m 0,0 km/h (0 Bft) O 88 0 min 0,0 UV-I 0 W/m 5,0 C 5,7 C 0,0 km/h (0 Bft)
18.11.2019 04:43 5,7 C 95 % 1004,7 hPa 0,0 l/m 0,0 km/h (0 Bft) O 88 0 min 0,0 UV-I 0 W/m 5,0 C 5,7 C 0,0 km/h (0 Bft)
18.11.2019 04:42 5,7 C 95 % 1004,7 hPa 0,0 l/m 0,1 km/h (0 Bft) O 88 0 min 0,0 UV-I 0 W/m 5,0 C 5,7 C 1,6 km/h (1 Bft)
18.11.2019 04:41 5,7 C 95 % 1004,6 hPa 0,0 l/m 0,0 km/h (0 Bft) O-NO 73 0 min 0,0 UV-I 0 W/m 5,0 C 5,7 C 0,0 km/h (0 Bft)
18.11.2019 04:40 5,7 C 95 % 1004,6 hPa 0,0 l/m 0,1 km/h (0 Bft) O-NO 73 0 min 0,0 UV-I 0 W/m 5,0 C 5,7 C 1,6 km/h (1 Bft)
18.11.2019 04:39 5,7 C 95 % 1004,6 hPa 0,0 l/m 0,0 km/h (0 Bft) NO 51 0 min 0,0 UV-I 0 W/m 5,0 C 5,7 C 0,0 km/h (0 Bft)
18.11.2019 04:38 5,7 C 95 % 1004,6 hPa 0,0 l/m 0,0 km/h (0 Bft) NO 35 0 min 0,0 UV-I 0 W/m 5,0 C 5,7 C 0,0 km/h (0 Bft)
18.11.2019 04:37 5,7 C 95 % 1004,5 hPa 0,0 l/m 0,0 km/h (0 Bft) NO 35 0 min 0,0 UV-I 0 W/m 5,0 C 5,7 C 0,0 km/h (0 Bft)
18.11.2019 04:36 5,8 C 95 % 1004,6 hPa 0,0 l/m 0,0 km/h (0 Bft) N-NO 21 0 min 0,0 UV-I 0 W/m 5,1 C 5,8 C 0,0 km/h (0 Bft)
18.11.2019 04:35 5,7 C 95 % 1004,6 hPa 0,0 l/m 0,0 km/h (0 Bft) N-NO 21 0 min 0,0 UV-I 0 W/m 5,0 C 5,7 C 0,0 km/h (0 Bft)
18.11.2019 04:34 5,7 C 95 % 1004,6 hPa 0,0 l/m 1,1 km/h (1 Bft) N-NO 21 0 min 0,0 UV-I 0 W/m 5,0 C 5,7 C 4,8 km/h (1 Bft)
18.11.2019 04:33 5,7 C 95 % 1004,6 hPa 0,0 l/m 0,8 km/h (0 Bft) N-NO 21 0 min 0,0 UV-I 0 W/m 5,0 C 5,7 C 4,8 km/h (1 Bft)
18.11.2019 04:32 5,8 C 95 % 1004,6 hPa 0,0 l/m 1,1 km/h (1 Bft) N-NO 20 0 min 0,0 UV-I 0 W/m 5,1 C 5,8 C 3,2 km/h (1 Bft)
18.11.2019 04:31 5,7 C 95 % 1004,6 hPa 0,0 l/m 0,0 km/h (0 Bft) O-NO 69 0 min 0,0 UV-I 0 W/m 5,0 C 5,7 C 0,0 km/h (0 Bft)
18.11.2019 04:30 5,8 C 95 % 1004,6 hPa 0,0 l/m 0,0 km/h (0 Bft) O-NO 69 0 min 0,0 UV-I 0 W/m 5,1 C 5,8 C 0,0 km/h (0 Bft)
18.11.2019 04:29 5,8 C 95 % 1004,6 hPa 0,0 l/m 0,0 km/h (0 Bft) O-NO 69 0 min 0,0 UV-I 0 W/m 5,1 C 5,8 C 0,0 km/h (0 Bft)
18.11.2019 04:28 5,8 C 95 % 1004,6 hPa 0,0 l/m 0,0 km/h (0 Bft) O-NO 69 0 min 0,0 UV-I 0 W/m 5,1 C 5,8 C 0,0 km/h (0 Bft)
18.11.2019 04:27 5,8 C 95 % 1004,6 hPa 0,0 l/m 0,0 km/h (0 Bft) O-NO 69 0 min 0,0 UV-I 0 W/m 5,1 C 5,8 C 0,0 km/h (0 Bft)
18.11.2019 04:26 5,8 C 95 % 1004,6 hPa 0,0 l/m 0,0 km/h (0 Bft) O-NO 69 0 min 0,0 UV-I 0 W/m 5,1 C 5,8 C 0,0 km/h (0 Bft)
18.11.2019 04:25 5,8 C 95 % 1004,6 hPa 0,0 l/m 0,0 km/h (0 Bft) O-NO 69 0 min 0,0 UV-I 0 W/m 5,1 C 5,8 C 0,0 km/h (0 Bft)
18.11.2019 04:24 5,8 C 95 % 1004,5 hPa 0,0 l/m 0,0 km/h (0 Bft) O-NO 69 0 min 0,0 UV-I 0 W/m 5,1 C 5,8 C 0,0 km/h (0 Bft)
18.11.2019 04:23 5,8 C 95 % 1004,5 hPa 0,0 l/m 0,0 km/h (0 Bft) O-NO 69 0 min 0,0 UV-I 0 W/m 5,1 C 5,8 C 0,0 km/h (0 Bft)
18.11.2019 04:22 5,8 C 95 % 1004,5 hPa 0,0 l/m 0,1 km/h (0 Bft) O-NO 69 0 min 0,0 UV-I 0 W/m 5,1 C 5,8 C 1,6 km/h (1 Bft)
18.11.2019 04:21 5,8 C 95 % 1004,6 hPa 0,0 l/m 0,0 km/h (0 Bft) O-NO 71 0 min 0,0 UV-I 0 W/m 5,1 C 5,8 C 0,0 km/h (0 Bft)
18.11.2019 04:20 5,8 C 95 % 1004,6 hPa 0,0 l/m 0,0 km/h (0 Bft) O-NO 78 0 min 0,0 UV-I 0 W/m 5,1 C 5,8 C 0,0 km/h (0 Bft)
18.11.2019 04:19 5,8 C 95 % 1004,6 hPa 0,0 l/m 0,0 km/h (0 Bft) NO 47 0 min 0,0 UV-I 0 W/m 5,1 C 5,8 C 0,0 km/h (0 Bft)
18.11.2019 04:18 5,8 C 95 % 1004,6 hPa 0,0 l/m 0,0 km/h (0 Bft) NO 44 0 min 0,0 UV-I 0 W/m 5,1 C 5,8 C 0,0 km/h (0 Bft)
18.11.2019 04:16 5,8 C 95 % 1004,7 hPa 0,0 l/m 0,0 km/h (0 Bft) N 0 0 min 0,0 UV-I 0 W/m 5,1 C 5,8 C 0,0 km/h (0 Bft)
18.11.2019 04:15 5,8 C 95 % 1004,7 hPa 0,0 l/m 0,0 km/h (0 Bft) NO 44 0 min 0,0 UV-I 0 W/m 5,1 C 5,8 C 0,0 km/h (0 Bft)
18.11.2019 04:14 5,8 C 95 % 1004,7 hPa 0,0 l/m 0,9 km/h (0 Bft) NO 44 0 min 0,0 UV-I 0 W/m 5,1 C 5,8 C 8,0 km/h (2 Bft)
18.11.2019 04:13 5,8 C 95 % 1004,7 hPa 0,0 l/m 2,5 km/h (1 Bft) NO 34 0 min 0,0 UV-I 0 W/m 5,1 C 5,8 C 8,0 km/h (2 Bft)
18.11.2019 04:12 5,8 C 95 % 1004,6 hPa 0,0 l/m 0,1 km/h (0 Bft) NO 54 0 min 0,0 UV-I 0 W/m 5,1 C 5,8 C 1,6 km/h (1 Bft)
18.11.2019 04:11 5,8 C 95 % 1004,6 hPa 0,0 l/m 0,0 km/h (0 Bft) O-NO 70 0 min 0,0 UV-I 0 W/m 5,1 C 5,8 C 0,0 km/h (0 Bft)
18.11.2019 04:10 5,8 C 95 % 1004,6 hPa 0,0 l/m 0,0 km/h (0 Bft) O-NO 70 0 min 0,0 UV-I 0 W/m 5,1 C 5,8 C 0,0 km/h (0 Bft)
18.11.2019 04:09 5,8 C 95 % 1004,6 hPa 0,0 l/m 3,4 km/h (1 Bft) NO 41 0 min 0,0 UV-I 0 W/m 5,1 C 5,8 C 8,0 km/h (2 Bft)
18.11.2019 04:08 5,8 C 95 % 1004,5 hPa 0,0 l/m 0,0 km/h (0 Bft) NO 50 0 min 0,0 UV-I 0 W/m 5,1 C 5,8 C 0,0 km/h (0 Bft)
18.11.2019 04:07 5,8 C 95 % 1004,6 hPa 0,0 l/m 0,0 km/h (0 Bft) N-NO 22 0 min 0,0 UV-I 0 W/m 5,1 C 5,8 C 0,0 km/h (0 Bft)
18.11.2019 04:06 5,8 C 95 % 1004,6 hPa 0,0 l/m 0,4 km/h (0 Bft) N 355 0 min 0,0 UV-I 0 W/m 5,1 C 5,8 C 3,2 km/h (1 Bft)
18.11.2019 04:05 5,8 C 95 % 1004,6 hPa 0,0 l/m 4,1 km/h (1 Bft) NO 34 0 min 0,0 UV-I 0 W/m 5,1 C 5,8 C 8,0 km/h (2 Bft)
18.11.2019 04:04 5,8 C 95 % 1004,7 hPa 0,0 l/m 6,0 km/h (2 Bft) NO 40 0 min 0,0 UV-I 0 W/m 5,1 C 5,8 C 9,7 km/h (2 Bft)
18.11.2019 04:03 5,8 C 95 % 1004,7 hPa 0,0 l/m 2,4 km/h (1 Bft) NO 34 0 min 0,0 UV-I 0 W/m 5,1 C 5,8 C 4,8 km/h (1 Bft)
18.11.2019 04:02 5,8 C 95 % 1004,6 hPa 0,0 l/m 0,2 km/h (0 Bft) N-NO 24 0 min 0,0 UV-I 0 W/m 5,1 C 5,8 C 3,2 km/h (1 Bft)
18.11.2019 04:01 5,9 C 95 % 1004,6 hPa 0,0 l/m 1,2 km/h (1 Bft) NO 34 0 min 0,0 UV-I 0 W/m 5,2 C 5,9 C 4,8 km/h (1 Bft)
18.11.2019 04:00 5,9 C 95 % 1004,6 hPa 0,0 l/m 0,1 km/h (0 Bft) NO 44 0 min 0,0 UV-I 0 W/m 5,2 C 5,9 C 1,6 km/h (1 Bft)
18.11.2019 03:59 5,9 C 95 % 1004,6 hPa 0,0 l/m 0,9 km/h (0 Bft) N-NO 32 0 min 0,0 UV-I 0 W/m 5,2 C 5,9 C 4,8 km/h (1 Bft)
18.11.2019 03:58 5,9 C 95 % 1004,6 hPa 0,0 l/m 1,1 km/h (1 Bft) N-NO 32 0 min 0,0 UV-I 0 W/m 5,2 C 5,9 C 4,8 km/h (1 Bft)
18.11.2019 03:57 5,9 C 95 % 1004,6 hPa 0,0 l/m 4,2 km/h (1 Bft) N-NO 14 0 min 0,0 UV-I 0 W/m 5,2 C 5,9 C 6,4 km/h (2 Bft)
18.11.2019 03:56 5,9 C 95 % 1004,6 hPa 0,0 l/m 3,2 km/h (1 Bft) N-NO 29 0 min 0,0 UV-I 0 W/m 5,2 C 5,9 C 6,4 km/h (2 Bft)
18.11.2019 03:55 5,9 C 95 % 1004,6 hPa 0,0 l/m 1,6 km/h (1 Bft) N 350 0 min 0,0 UV-I 0 W/m 5,2 C 5,9 C 6,4 km/h (2 Bft)
18.11.2019 03:54 5,9 C 95 % 1004,6 hPa 0,0 l/m 3,5 km/h (1 Bft) N-NO 24 0 min 0,0 UV-I 0 W/m 5,2 C 5,9 C 8,0 km/h (2 Bft)
18.11.2019 03:53 6,0 C 95 % 1004,5 hPa 0,0 l/m 0,9 km/h (0 Bft) N-NO 28 0 min 0,0 UV-I 0 W/m 5,3 C 6,0 C 3,2 km/h (1 Bft)
18.11.2019 03:52 6,0 C 95 % 1004,5 hPa 0,0 l/m 2,1 km/h (1 Bft) N-NO 28 0 min 0,0 UV-I 0 W/m 5,3 C 6,0 C 3,2 km/h (1 Bft)
18.11.2019 03:51 6,0 C 95 % 1004,6 hPa 0,0 l/m 3,3 km/h (1 Bft) N-NW 348 0 min 0,0 UV-I 0 W/m 5,3 C 6,0 C 4,8 km/h (1 Bft)
18.11.2019 03:50 6,0 C 95 % 1004,6 hPa 0,0 l/m 4,2 km/h (1 Bft) N-NO 29 0 min 0,0 UV-I 0 W/m 5,3 C 6,0 C 6,4 km/h (2 Bft)
18.11.2019 03:49 6,0 C 95 % 1004,6 hPa 0,0 l/m 4,6 km/h (1 Bft) N-NO 19 0 min 0,0 UV-I 0 W/m 5,3 C 6,0 C 6,4 km/h (2 Bft)
18.11.2019 03:48 6,0 C 95 % 1004,6 hPa 0,0 l/m 4,0 km/h (1 Bft) NO 42 0 min 0,0 UV-I 0 W/m 5,3 C 6,0 C 4,8 km/h (1 Bft)
18.11.2019 03:47 6,0 C 95 % 1004,6 hPa 0,0 l/m 3,8 km/h (1 Bft) N-NO 26 0 min 0,0 UV-I 0 W/m 5,3 C 6,0 C 6,4 km/h (2 Bft)
18.11.2019 03:46 6,0 C 95 % 1004,6 hPa 0,0 l/m 3,5 km/h (1 Bft) N-NO 28 0 min 0,0 UV-I 0 W/m 5,3 C 6,0 C 8,0 km/h (2 Bft)
18.11.2019 03:45 6,1 C 95 % 1004,6 hPa 0,0 l/m 4,2 km/h (1 Bft) N-NO 17 0 min 0,0 UV-I 0 W/m 5,4 C 6,1 C 6,4 km/h (2 Bft)
18.11.2019 03:44 6,1 C 95 % 1004,6 hPa 0,0 l/m 1,9 km/h (1 Bft) NO 42 0 min 0,0 UV-I 0 W/m 5,4 C 6,1 C 6,4 km/h (2 Bft)
18.11.2019 03:43 6,1 C 95 % 1004,6 hPa 0,0 l/m 2,3 km/h (1 Bft) N-NO 21 0 min 0,0 UV-I 0 W/m 5,4 C 6,1 C 4,8 km/h (1 Bft)
18.11.2019 03:42 6,1 C 95 % 1004,6 hPa 0,0 l/m 3,0 km/h (1 Bft) O-NO 57 0 min 0,0 UV-I 0 W/m 5,4 C 6,1 C 4,8 km/h (1 Bft)
18.11.2019 03:41 6,1 C 95 % 1004,6 hPa 0,0 l/m 2,0 km/h (1 Bft) N-NO 30 0 min 0,0 UV-I 0 W/m 5,4 C 6,1 C 3,2 km/h (1 Bft)
18.11.2019 03:40 6,1 C 95 % 1004,6 hPa 0,0 l/m 4,6 km/h (1 Bft) N-NO 30 0 min 0,0 UV-I 0 W/m 5,4 C 6,1 C 6,4 km/h (2 Bft)
18.11.2019 03:39 6,1 C 95 % 1004,6 hPa 0,0 l/m 4,2 km/h (1 Bft) N-NO 30 0 min 0,0 UV-I 0 W/m 5,4 C 6,1 C 4,8 km/h (1 Bft)
18.11.2019 03:38 6,1 C 95 % 1004,5 hPa 0,0 l/m 2,6 km/h (1 Bft) NO 46 0 min 0,0 UV-I 0 W/m 5,4 C 6,1 C 4,8 km/h (1 Bft)
18.11.2019 03:37 6,1 C 95 % 1004,5 hPa 0,0 l/m 0,3 km/h (0 Bft) N-NO 19 0 min 0,0 UV-I 0 W/m 5,4 C 6,1 C 3,2 km/h (1 Bft)
18.11.2019 03:36 6,1 C 94 % 1004,5 hPa 0,0 l/m 0,2 km/h (0 Bft) NO 42 0 min 0,0 UV-I 0 W/m 5,2 C 6,1 C 1,6 km/h (1 Bft)
18.11.2019 03:35 6,1 C 94 % 1004,5 hPa 0,0 l/m 1,1 km/h (1 Bft) NO 42 0 min 0,0 UV-I 0 W/m 5,2 C 6,1 C 3,2 km/h (1 Bft)
18.11.2019 03:34 6,1 C 94 % 1004,5 hPa 0,0 l/m 1,0 km/h (0 Bft) N-NO 21 0 min 0,0 UV-I 0 W/m 5,2 C 6,1 C 3,2 km/h (1 Bft)
18.11.2019 03:33 6,1 C 94 % 1004,5 hPa 0,0 l/m 2,8 km/h (1 Bft) N-NO 21 0 min 0,0 UV-I 0 W/m 5,2 C 6,1 C 4,8 km/h (1 Bft)
18.11.2019 03:32 6,1 C 94 % 1004,5 hPa 0,0 l/m 4,3 km/h (1 Bft) N-NO 29 0 min 0,0 UV-I 0 W/m 5,2 C 6,1 C 6,4 km/h (2 Bft)
18.11.2019 03:31 6,1 C 94 % 1004,5 hPa 0,0 l/m 2,5 km/h (1 Bft) NO 48 0 min 0,0 UV-I 0 W/m 5,2 C 6,1 C 4,8 km/h (1 Bft)
18.11.2019 03:30 6,1 C 95 % 1004,5 hPa 0,0 l/m 1,1 km/h (1 Bft) NO 53 0 min 0,0 UV-I 0 W/m 5,4 C 6,1 C 1,6 km/h (1 Bft)
18.11.2019 03:29 6,2 C 95 % 1004,4 hPa 0,0 l/m 1,5 km/h (1 Bft) NO 53 0 min 0,0 UV-I 0 W/m 5,5 C 6,2 C 3,2 km/h (1 Bft)
18.11.2019 03:28 6,2 C 95 % 1004,4 hPa 0,0 l/m 1,7 km/h (1 Bft) N-NO 25 0 min 0,0 UV-I 0 W/m 5,5 C 6,2 C 4,8 km/h (1 Bft)
18.11.2019 03:27 6,2 C 95 % 1004,4 hPa 0,0 l/m 0,5 km/h (0 Bft) NO 43 0 min 0,0 UV-I 0 W/m 5,5 C 6,2 C 4,8 km/h (1 Bft)
18.11.2019 03:26 6,2 C 95 % 1004,4 hPa 0,0 l/m 0,0 km/h (0 Bft) O-NO 63 0 min 0,0 UV-I 0 W/m 5,5 C 6,2 C 0,0 km/h (0 Bft)
18.11.2019 03:25 6,2 C 94 % 1004,4 hPa 0,0 l/m 0,0 km/h (0 Bft) O-NO 63 0 min 0,0 UV-I 0 W/m 5,3 C 6,2 C 0,0 km/h (0 Bft)
18.11.2019 03:24 6,2 C 94 % 1004,4 hPa 0,0 l/m 0,0 km/h (0 Bft) O-NO 63 0 min 0,0 UV-I 0 W/m 5,3 C 6,2 C 0,0 km/h (0 Bft)
18.11.2019 03:23 6,2 C 94 % 1004,4 hPa 0,0 l/m 0,0 km/h (0 Bft) O-NO 63 0 min 0,0 UV-I 0 W/m 5,3 C 6,2 C 0,0 km/h (0 Bft)
18.11.2019 03:22 6,2 C 94 % 1004,4 hPa 0,0 l/m 0,0 km/h (0 Bft) O-NO 63 0 min 0,0 UV-I 0 W/m 5,3 C 6,2 C 0,0 km/h (0 Bft)
18.11.2019 03:21 6,2 C 94 % 1004,4 hPa 0,0 l/m 0,0 km/h (0 Bft) NO 42 0 min 0,0 UV-I 0 W/m 5,3 C 6,2 C 0,0 km/h (0 Bft)
18.11.2019 03:20 6,2 C 94 % 1004,3 hPa 0,0 l/m 0,0 km/h (0 Bft) NO 42 0 min 0,0 UV-I 0 W/m 5,3 C 6,2 C 0,0 km/h (0 Bft)
18.11.2019 03:19 6,2 C 94 % 1004,4 hPa 0,0 l/m 0,0 km/h (0 Bft) NO 42 0 min 0,0 UV-I 0 W/m 5,3 C 6,2 C 0,0 km/h (0 Bft)
18.11.2019 03:18 6,2 C 94 % 1004,4 hPa 0,0 l/m 0,0 km/h (0 Bft) NO 42 0 min 0,0 UV-I 0 W/m 5,3 C 6,2 C 0,0 km/h (0 Bft)
18.11.2019 03:17 6,2 C 94 % 1004,3 hPa 0,0 l/m 4,4 km/h (1 Bft) NO 42 0 min 0,0 UV-I 0 W/m 5,3 C 6,2 C 6,4 km/h (2 Bft)
18.11.2019 03:16 6,2 C 94 % 1004,4 hPa 0,0 l/m 3,6 km/h (1 Bft) O-NO 65 0 min 0,0 UV-I 0 W/m 5,3 C 6,2 C 11,3 km/h (2 Bft)
18.11.2019 03:15 6,2 C 94 % 1004,3 hPa 0,0 l/m 3,1 km/h (1 Bft) O-NO 77 0 min 0,0 UV-I 0 W/m 5,3 C 6,2 C 6,4 km/h (2 Bft)
18.11.2019 03:14 6,2 C 94 % 1004,4 hPa 0,0 l/m 3,0 km/h (1 Bft) O-NO 74 0 min 0,0 UV-I 0 W/m 5,3 C 6,2 C 6,4 km/h (2 Bft)
18.11.2019 03:13 6,3 C 94 % 1004,3 hPa 0,0 l/m 2,4 km/h (1 Bft) NO 38 0 min 0,0 UV-I 0 W/m 5,4 C 6,3 C 3,2 km/h (1 Bft)
18.11.2019 03:12 6,3 C 94 % 1004,3 hPa 0,0 l/m 4,8 km/h (1 Bft) N-NW 347 0 min 0,0 UV-I 0 W/m 5,4 C 6,3 C 6,4 km/h (2 Bft)
18.11.2019 03:11 6,3 C 94 % 1004,4 hPa 0,0 l/m 4,6 km/h (1 Bft) O-NO 76 0 min 0,0 UV-I 0 W/m 5,4 C 6,3 C 8,0 km/h (2 Bft)
18.11.2019 03:10 6,3 C 94 % 1004,4 hPa 0,0 l/m 0,0 km/h (0 Bft) O 84 0 min 0,0 UV-I 0 W/m 5,4 C 6,3 C 0,0 km/h (0 Bft)
18.11.2019 03:09 6,3 C 94 % 1004,3 hPa 0,0 l/m 1,6 km/h (1 Bft) N-NO 32 0 min 0,0 UV-I 0 W/m 5,4 C 6,3 C 6,4 km/h (2 Bft)
18.11.2019 03:08 6,3 C 94 % 1004,3 hPa 0,0 l/m 0,0 km/h (0 Bft) O 88 0 min 0,0 UV-I 0 W/m 5,4 C 6,3 C 0,0 km/h (0 Bft)
18.11.2019 03:07 6,3 C 94 % 1004,3 hPa 0,0 l/m 0,0 km/h (0 Bft) O 88 0 min 0,0 UV-I 0 W/m 5,4 C 6,3 C 0,0 km/h (0 Bft)
18.11.2019 03:06 6,3 C 94 % 1004,3 hPa 0,0 l/m 0,1 km/h (0 Bft) O-SO 117 0 min 0,0 UV-I 0 W/m 5,4 C 6,3 C 1,6 km/h (1 Bft)
18.11.2019 03:05 6,3 C 94 % 1004,4 hPa 0,0 l/m 0,0 km/h (0 Bft) NO 55 0 min 0,0 UV-I 0 W/m 5,4 C 6,3 C 0,0 km/h (0 Bft)
18.11.2019 03:04 6,3 C 94 % 1004,3 hPa 0,0 l/m 1,7 km/h (1 Bft) NO 55 0 min 0,0 UV-I 0 W/m 5,4 C 6,3 C 6,4 km/h (2 Bft)
18.11.2019 03:03 6,3 C 94 % 1004,2 hPa 0,0 l/m 1,1 km/h (1 Bft) N-NO 31 0 min 0,0 UV-I 0 W/m 5,4 C 6,3 C 6,4 km/h (2 Bft)
18.11.2019 03:02 6,3 C 94 % 1004,3 hPa 0,0 l/m 1,7 km/h (1 Bft) NO 34 0 min 0,0 UV-I 0 W/m 5,4 C 6,3 C 8,0 km/h (2 Bft)
18.11.2019 03:01 6,3 C 94 % 1004,3 hPa 0,0 l/m 0,3 km/h (0 Bft) O 82 0 min 0,0 UV-I 0 W/m 5,4 C 6,3 C 1,6 km/h (1 Bft)
18.11.2019 03:00 6,3 C 94 % 1004,3 hPa 0,0 l/m 0,0 km/h (0 Bft) NO 38 0 min 0,0 UV-I 0 W/m 5,4 C 6,3 C 0,0 km/h (0 Bft)
_ Min-Zeit 20:35 16:48 03:03 - 23:29 - - - - - 17:29 21:47 23:29
Minimum _ 4,3 C 74 % 1004,2 hPa - 0,0 km/h (0 Bft) - - - - - 1,3 C -4,0 C 0,0 km/h (0 Bft)
_ Max-Zeit 03:13 07:49 02:01 07:05 21:47 - - 14:36 02:01 12:11 03:29 03:13 21:50
Maximum _ 6,3 C 95 % 1014,3 hPa 0,2 l/m 21,0 km/h
NO (4 Bft)
- - 1 min 0,0 UV-I 160 W/m 5,5 C 6,3 C 27,4 km/h
N-NO (4 Bft)
Durchschnitt _ 5,2 C 86 % 1008,9 hPa #0,2 l/m 4,2 km/h (1 Bft) N-NO - #0 min. 0,0 UV-I 0 W/m 3,1 C 4,5 C 7,2 km/h (2 Bft)